[[{"header":{"parameterUnit":"m.s-1","parameterCategory":1,"la1":30.6,"la2":28.766,"lo1":-90.7593,"lo2":-88.6598,"dy":0.0162,"dx":0.0183,"nx":116,"ny":114,"refTime":"2023-07-12T12:00:00:Z","depth":0,"parameterNumber":2,"parameterNumberName":"U-component_of_WINDS"},"data":[0.0,0.0,0.0,0.0,0.0,0.0,0.0,0.0,0.0,0.0,0.0,0.0,0.0,0.0,0.0,0.0,0.0,0.0,0.0,0.0,0.0,0.0,0.0,0.0,0.0,0.0,0.0,0.0,0.0,0.0,0.0,0.0,0.0,0.0,0.0,0.0,0.0,0.0,0.0,0.0,0.0,0.0,0.0,0.0,0.0,0.0,0.0,0.0,0.0,0.0,0.0,0.0,0.0,0.0,0.0,0.0,0.0,0.0,0.0,0.0,0.0,0.0,0.0,0.0,0.0,0.0,0.0,0.0,0.0,0.0,0.0,0.0,0.0,0.0,0.0,0.0,0.0,0.0,0.0,0.0,0.0,0.0,0.0,0.0,0.0,0.0,0.0,0.0,0.0,0.0,0.0,0.0,0.0,0.0,0.0,0.0,0.0,0.0,0.0,0.0,0.0,0.0,0.0,0.0,0.0,0.0,0.0,0.0,0.0,0.0,0.0,0.0,0.0,0.0,0.0,0.0,0.0,0.0,0.0,0.0,0.0,0.0,0.0,0.0,0.0,0.0,0.0,0.0,0.0,0.0,0.0,0.0,0.0,0.0,0.0,0.0,0.0,0.0,0.0,0.0,0.0,0.0,0.0,0.0,0.0,0.0,0.0,0.0,0.0,0.0,0.0,0.0,0.0,0.0,0.0,0.0,0.0,0.0,0.0,0.0,0.0,0.0,0.0,0.0,0.0,0.0,0.0,0.0,0.0,0.0,0.0,0.0,0.0,0.0,0.0,0.0,0.0,0.0,0.0,0.0,0.0,0.0,0.0,0.0,0.0,0.0,0.0,0.0,0.0,0.0,0.0,0.0,0.0,0.0,0.0,0.0,0.0,0.0,0.0,0.0,0.0,0.0,0.0,0.0,0.0,0.0,0.0,0.0,0.0,0.0,0.0,0.0,0.0,0.0,0.0,0.0,0.0,0.0,0.0,0.0,0.0,0.0,0.0,0.0,0.0,0.0,0.0,0.0,0.0,0.0,0.0,0.0,0.0,0.0,0.0,0.0,0.0,0.0,0.0,0.0,0.0,0.0,0.0,0.0,0.0,0.0,0.0,0.0,0.0,0.0,0.0,0.0,0.0,0.0,0.0,0.0,0.0,0.0,0.0,0.0,0.0,0.0,0.0,0.0,0.0,0.0,0.0,0.0,0.0,0.0,0.0,0.0,0.0,0.0,0.0,0.0,0.0,0.0,0.0,0.0,0.0,0.0,0.0,0.0,0.0,0.0,0.0,0.0,0.0,0.0,0.0,0.0,0.0,0.0,0.0,0.0,0.0,0.0,0.0,0.0,0.0,0.0,0.0,0.0,0.0,0.0,0.0,0.0,0.0,0.0,0.0,0.0,0.0,0.0,0.0,0.0,0.0,0.0,0.0,0.0,0.0,0.0,0.0,0.0,0.0,0.0,0.0,0.0,0.0,0.0,0.0,0.0,0.0,0.0,0.0,0.0,0.0,0.0,0.0,0.0,0.0,0.0,0.0,0.0,0.0,0.0,0.0,0.0,0.0,0.0,0.0,0.0,0.0,0.0,0.0,0.0,0.0,0.0,0.0,0.0,0.0,0.0,0.0,0.0,0.0,0.0,0.0,0.0,0.0,0.0,0.0,0.0,0.0,0.0,0.0,0.0,0.0,0.0,0.0,0.0,0.0,0.0,0.0,0.0,0.0,0.0,0.0,0.0,0.0,0.0,0.0,0.0,0.0,0.0,0.0,0.0,0.0,0.0,0.0,0.0,0.0,0.0,0.0,0.0,0.0,0.0,0.0,0.0,0.0,0.0,0.0,0.0,0.0,0.0,0.0,0.0,0.0,0.0,0.0,0.0,0.0,0.0,0.0,0.0,0.0,0.0,0.0,0.0,0.0,0.0,0.0,0.0,0.0,0.0,0.0,0.0,0.0,0.0,0.0,0.0,0.0,0.0,0.0,0.0,0.0,0.0,0.0,0.0,0.0,0.0,0.0,0.0,0.0,0.0,0.0,0.0,0.0,0.0,0.0,0.0,0.0,0.0,0.0,0.0,0.0,0.0,0.0,0.0,0.0,0.0,0.0,0.0,0.0,0.0,0.0,0.0,0.0,0.0,0.0,0.0,0.0,0.0,0.0,0.0,0.0,0.0,0.0,0.0,0.0,0.0,0.0,0.0,0.0,0.0,0.0,0.0,0.0,0.0,0.0,0.0,0.0,0.0,0.0,0.0,0.0,0.0,0.0,0.0,0.0,0.0,0.0,0.0,0.0,0.0,0.0,0.0,0.0,0.0,0.0,0.0,0.0,0.0,0.0,0.0,0.0,0.0,0.0,0.0,0.0,0.0,0.0,0.0,0.0,0.0,0.0,0.0,0.0,0.0,0.0,0.0,0.0,0.0,0.0,0.0,0.0,0.0,0.0,0.0,0.0,0.0,0.0,0.0,0.0,0.0,0.0,0.0,0.0,0.0,0.0,0.0,0.0,0.0,0.0,0.0,0.0,0.0,0.0,0.0,0.0,0.0,0.0,0.0,0.0,0.0,0.0,0.0,0.0,0.0,0.0,0.0,0.0,0.0,0.0,0.0,0.0,0.0,0.0,0.0,0.0,0.0,0.0,0.0,0.0,0.0,0.0,0.0,0.0,0.0,0.0,0.0,0.0,0.0,0.0,0.0,0.0,0.0,0.0,0.0,0.0,0.0,0.0,0.0,0.0,0.0,0.0,0.0,0.0,0.0,0.0,0.0,0.0,0.0,0.0,0.0,0.0,0.0,0.0,0.0,0.0,0.0,0.0,0.0,0.0,0.0,0.0,0.0,0.0,0.0,0.0,0.0,0.0,0.0,0.0,0.0,0.0,0.0,0.0,0.0,0.0,0.0,0.0,0.0,0.0,0.0,0.0,0.0,0.0,0.0,0.0,0.0,0.0,0.0,0.0,0.0,0.0,0.0,0.0,0.0,0.0,0.0,0.0,0.0,0.0,0.0,0.0,0.0,0.0,0.0,0.0,0.0,0.0,0.0,0.0,0.0,0.0,0.0,0.0,0.0,0.0,0.0,0.0,0.0,0.0,0.0,0.0,0.0,0.0,0.0,0.0,0.0,0.0,0.0,0.0,0.0,0.0,0.0,0.0,0.0,0.0,0.0,0.0,0.0,0.0,0.0,0.0,0.0,0.0,0.0,0.0,0.0,0.0,0.0,0.0,0.0,0.0,0.0,0.0,0.0,0.0,0.0,0.0,0.0,0.0,0.0,0.0,0.0,0.0,0.0,0.0,0.0,0.0,0.0,0.0,0.0,0.0,0.0,0.0,0.0,0.0,0.0,0.0,0.0,0.0,0.0,0.0,0.0,0.0,0.0,0.0,0.0,0.0,0.0,0.0,0.0,0.0,0.0,0.0,0.0,0.0,0.0,0.0,0.0,0.0,0.0,0.0,0.0,0.0,0.0,0.0,0.0,0.0,0.0,0.0,0.0,0.0,0.0,0.0,0.0,0.0,0.0,0.0,0.0,0.0,0.0,0.0,0.0,0.0,0.0,0.0,0.0,0.0,0.0,0.0,0.0,0.0,0.0,0.0,0.0,0.0,0.0,0.0,0.0,0.0,0.0,0.0,0.0,0.0,0.0,0.0,0.0,0.0,0.0,0.0,0.0,0.0,0.0,0.0,0.0,0.0,0.0,0.0,0.0,0.0,0.0,0.0,0.0,0.0,0.0,0.0,0.0,0.0,0.0,0.0,0.0,0.0,0.0,0.0,0.0,0.0,0.0,0.0,0.0,0.0,0.0,0.0,0.0,0.0,0.0,0.0,0.0,0.0,0.0,0.0,0.0,0.0,0.0,0.0,0.0,0.0,0.0,0.0,0.0,0.0,0.0,0.0,0.0,0.0,0.0,0.0,0.0,0.0,0.0,0.0,0.0,0.0,0.0,0.0,0.0,0.0,0.0,0.0,0.0,0.0,0.0,0.0,0.0,0.0,0.0,0.0,0.0,0.0,0.0,0.0,0.0,0.0,0.0,0.0,0.0,0.0,0.0,0.0,0.0,0.0,0.0,0.0,0.0,0.0,0.0,0.0,0.0,0.0,0.0,0.0,0.0,0.0,0.0,0.0,0.0,0.0,0.0,0.0,0.0,0.0,0.0,0.0,0.0,0.0,0.0,0.0,0.0,0.0,0.0,0.0,0.0,0.0,0.0,0.0,0.0,0.0,0.0,0.0,0.0,0.0,0.0,0.0,0.0,0.0,0.0,0.0,0.0,0.0,0.0,0.0,0.0,0.0,0.0,0.0,0.0,0.0,0.0,0.0,0.0,0.0,0.0,0.0,0.0,0.0,0.0,0.0,0.0,0.0,0.0,0.0,0.0,0.0,0.0,0.0,0.0,0.0,0.0,0.0,0.0,0.0,0.0,0.0,0.0,0.0,0.0,0.0,0.0,0.0,0.0,0.0,0.0,0.0,0.0,0.0,0.0,0.0,0.0,0.0,0.0,0.0,0.0,0.0,0.0,0.0,0.0,0.0,0.0,0.0,0.0,0.0,0.0,0.0,0.0,0.0,0.0,0.0,0.0,0.0,0.0,0.0,0.0,0.0,0.0,0.0,0.0,0.0,0.0,0.0,0.0,0.0,0.0,0.0,0.0,0.0,0.0,0.0,0.0,0.0,0.0,0.0,0.0,0.0,0.0,0.0,0.0,0.0,0.0,0.0,0.0,0.0,0.0,0.0,0.0,0.0,0.0,0.0,0.0,0.0,0.0,0.0,0.0,0.0,0.0,0.0,0.0,0.0,0.0,0.0,0.0,0.0,0.0,0.0,0.0,0.0,0.0,0.0,0.0,0.0,0.0,0.0,0.0,0.0,0.0,0.0,0.0,0.0,0.0,0.0,0.0,0.0,0.0,0.0,0.0,0.0,0.0,0.0,0.0,0.0,0.0,0.0,0.0,0.0,0.0,0.0,0.0,0.0,0.0,0.0,0.0,0.0,0.0,0.0,0.0,0.0,0.0,0.0,0.0,0.0,0.0,0.0,0.0,0.0,0.0,0.0,0.0,0.0,0.0,0.0,0.0,0.0,0.0,0.0,0.0,0.0,0.0,0.0,0.0,0.0,0.0,0.0,0.0,0.0,0.0,0.0,0.0,0.0,0.0,0.0,0.0,0.0,0.0,0.0,0.0,0.0,0.0,0.0,0.0,0.0,0.0,0.0,0.0,0.0,0.0,0.0,0.0,0.0,0.0,0.0,0.0,0.0,0.0,0.0,0.0,0.0,0.0,0.0,0.0,0.0,0.0,0.0,0.0,0.0,0.0,0.0,0.0,0.0,0.0,0.0,0.0,0.0,0.0,0.0,0.0,0.0,0.0,0.0,0.0,0.0,0.0,0.0,0.0,0.0,0.0,0.0,0.0,0.0,0.0,0.0,0.0,0.0,0.0,0.0,0.0,0.0,0.0,0.0,0.0,0.0,0.0,0.0,0.0,0.0,0.0,0.0,0.0,0.0,0.0,0.0,0.0,0.0,0.0,0.0,0.0,0.0,0.0,0.0,0.0,0.0,0.0,0.0,0.0,0.0,0.0,0.0,0.0,0.0,0.0,0.0,0.0,0.0,0.0,0.0,0.0,0.0,0.0,0.0,0.0,0.0,0.0,0.0,0.0,0.0,0.0,0.0,0.0,0.0,0.0,0.0,0.0,0.0,0.0,0.0,0.0,0.0,0.0,0.0,0.0,0.0,0.0,0.0,0.0,0.0,0.0,0.0,0.0,0.0,0.0,0.0,0.0,0.0,0.0,0.0,0.0,0.0,0.0,0.0,0.0,0.0,0.0,0.0,0.0,0.0,0.0,0.0,0.0,0.0,0.0,0.0,0.0,0.0,0.0,0.0,0.0,0.0,0.0,0.0,0.0,0.0,0.0,0.0,0.0,0.0,0.0,0.0,0.0,0.0,0.0,0.0,0.0,0.0,0.0,0.0,0.0,0.0,0.0,0.0,0.0,0.0,0.0,0.0,0.0,0.0,0.0,0.0,0.0,0.0,0.0,0.0,0.0,0.0,0.0,0.0,0.0,0.0,0.0,0.0,0.0,0.0,0.0,0.0,0.0,0.0,0.0,0.0,0.0,0.0,0.0,-3.3725,0.0,0.0,0.0,0.0,0.0,0.0,0.0,0.0,0.0,0.0,0.0,0.0,0.0,0.0,0.0,0.0,0.0,0.0,0.0,0.0,0.0,0.0,0.0,0.0,0.0,0.0,0.0,0.0,0.0,0.0,0.0,0.0,0.0,0.0,0.0,0.0,0.0,0.0,0.0,-3.9191,-3.9244,-3.9313,-3.912,-3.881,-3.8382,0.0,0.0,0.0,0.0,0.0,0.0,0.0,0.0,0.0,0.0,0.0,0.0,0.0,0.0,0.0,0.0,0.0,0.0,0.0,0.0,0.0,0.0,0.0,0.0,0.0,0.0,0.0,0.0,0.0,0.0,0.0,0.0,0.0,0.0,0.0,0.0,0.0,0.0,0.0,0.0,0.0,0.0,0.0,0.0,0.0,0.0,0.0,0.0,0.0,0.0,0.0,0.0,0.0,0.0,0.0,0.0,0.0,0.0,0.0,0.0,0.0,0.0,0.0,0.0,0.0,0.0,0.0,0.0,0.0,0.0,0.0,-3.4142,0.0,0.0,0.0,0.0,0.0,0.0,0.0,0.0,0.0,0.0,0.0,0.0,0.0,0.0,0.0,0.0,0.0,0.0,0.0,0.0,0.0,0.0,0.0,0.0,0.0,0.0,0.0,0.0,0.0,0.0,0.0,0.0,0.0,0.0,0.0,0.0,0.0,0.0,-4.0009,-4.0085,-4.0179,-3.9836,-3.9314,-3.8604,-3.8604,0.0,0.0,0.0,0.0,0.0,0.0,0.0,0.0,0.0,0.0,0.0,0.0,0.0,0.0,0.0,0.0,0.0,0.0,0.0,0.0,0.0,0.0,0.0,0.0,0.0,0.0,0.0,0.0,0.0,0.0,0.0,0.0,0.0,0.0,0.0,0.0,0.0,0.0,0.0,0.0,0.0,0.0,0.0,0.0,0.0,0.0,0.0,0.0,0.0,0.0,0.0,0.0,0.0,0.0,0.0,0.0,0.0,0.0,0.0,0.0,0.0,0.0,0.0,0.0,0.0,-3.4414,-3.4414,-3.4346,-3.4128,-3.4264,-3.4142,-3.3896,0.0,0.0,0.0,0.0,0.0,0.0,0.0,0.0,0.0,0.0,0.0,0.0,0.0,0.0,0.0,0.0,0.0,0.0,0.0,0.0,0.0,0.0,0.0,0.0,0.0,0.0,0.0,0.0,0.0,0.0,0.0,0.0,0.0,0.0,-3.9811,-3.9832,-3.9914,-3.9914,-3.9854,-3.9696,-3.9656,-3.9532,-3.9455,-3.9455,-3.9064,-3.8386,0.0,0.0,0.0,0.0,0.0,0.0,0.0,0.0,0.0,0.0,0.0,0.0,0.0,0.0,0.0,0.0,0.0,0.0,0.0,0.0,0.0,0.0,0.0,0.0,0.0,0.0,0.0,0.0,0.0,0.0,0.0,0.0,0.0,0.0,0.0,0.0,0.0,0.0,0.0,0.0,0.0,-3.3713,-3.4138,0.0,0.0,0.0,0.0,0.0,0.0,0.0,0.0,0.0,0.0,0.0,0.0,0.0,0.0,-3.4414,-3.4414,-3.4414,-3.4414,-3.4414,-3.4414,-3.4414,-3.4414,-3.4414,-3.4346,-3.3991,0.0,-3.3896,-3.3466,0.0,0.0,0.0,0.0,0.0,0.0,0.0,0.0,0.0,0.0,0.0,0.0,0.0,0.0,0.0,0.0,0.0,0.0,0.0,0.0,0.0,0.0,0.0,0.0,0.0,0.0,0.0,0.0,0.0,0.0,0.0,0.0,0.0,-4.102,-4.1085,-4.1113,-4.1032,-4.1008,-4.1131,-4.0842,-4.08,-4.0866,-4.0782,-4.0111,-3.9062,-3.8819,0.0,0.0,0.0,0.0,0.0,0.0,0.0,0.0,0.0,0.0,0.0,0.0,0.0,0.0,0.0,0.0,0.0,0.0,0.0,0.0,0.0,0.0,0.0,0.0,0.0,0.0,0.0,0.0,0.0,0.0,0.0,0.0,0.0,0.0,0.0,0.0,0.0,0.0,0.0,-3.3353,-3.3423,-3.3632,-3.377,-3.377,0.0,0.0,0.0,0.0,0.0,0.0,0.0,0.0,0.0,-3.3799,-3.3991,-3.4369,-3.4951,-3.4951,-3.5125,-3.5488,-3.5488,-3.5488,-3.5473,-3.5249,-3.5109,-3.5109,-3.4697,-3.4553,-3.4511,-3.3437,-3.2846,-3.2632,0.0,0.0,0.0,0.0,0.0,0.0,0.0,0.0,0.0,0.0,0.0,0.0,0.0,0.0,0.0,0.0,0.0,0.0,0.0,0.0,0.0,-3.9535,0.0,0.0,0.0,0.0,0.0,0.0,0.0,0.0,0.0,0.0,-4.197,-4.1977,-4.1849,-4.1892,-4.2019,-4.1692,-4.1587,-4.1701,-4.1587,-4.0893,-3.9794,-3.9251,-3.9103,-3.9048,0.0,0.0,0.0,0.0,0.0,0.0,0.0,0.0,0.0,0.0,0.0,0.0,0.0,0.0,0.0,0.0,0.0,0.0,0.0,0.0,0.0,0.0,0.0,0.0,0.0,0.0,0.0,0.0,0.0,0.0,0.0,0.0,0.0,0.0,0.0,0.0,0.0,-3.3241,-3.31,-3.3241,-3.3171,-3.3171,0.0,0.0,0.0,0.0,0.0,0.0,-3.3167,-3.3378,-3.3619,-3.3931,-3.4059,-3.4554,-3.5323,-3.5323,-3.5553,-3.6014,-3.6014,-3.6014,-3.6014,-3.5711,-3.5565,-3.5492,-3.5138,-3.4929,-3.4845,-3.3526,-3.2866,-3.2708,-3.2355,-3.2241,0.0,-3.2182,-3.2023,-3.1776,0.0,0.0,0.0,0.0,0.0,0.0,0.0,0.0,0.0,0.0,0.0,0.0,0.0,0.0,-4.0545,-4.0366,-4.0366,-4.0597,0.0,0.0,0.0,0.0,0.0,0.0,0.0,0.0,0.0,-4.1648,-4.1805,-4.1657,-4.1255,-4.1363,-4.1363,-4.1237,-4.1192,-4.0926,-4.0411,-3.9686,-3.898,-3.83,-3.7317,0.0,0.0,0.0,0.0,0.0,0.0,0.0,0.0,0.0,0.0,0.0,0.0,0.0,0.0,0.0,0.0,0.0,0.0,0.0,0.0,0.0,0.0,0.0,0.0,0.0,0.0,0.0,0.0,0.0,0.0,0.0,0.0,0.0,0.0,0.0,0.0,0.0,0.0,-3.2988,-3.2846,0.0,0.0,0.0,0.0,-3.2775,-3.3401,-3.3748,-3.3601,-3.445,-3.4906,-3.4757,-3.4906,-3.5068,-3.5096,-3.511,-3.5124,-3.5152,-3.5152,-3.5152,-3.5152,-3.5152,-3.5152,-3.5078,-3.4691,-3.4554,-3.4499,-3.4011,-3.3734,-3.3491,-3.2708,-3.2286,-3.2182,-3.2182,-3.2182,-3.2182,0.0,0.0,0.0,0.0,0.0,0.0,0.0,0.0,0.0,0.0,0.0,0.0,0.0,-3.986,-4.0917,-4.1029,-4.1515,-4.1755,-4.1618,0.0,0.0,0.0,0.0,0.0,0.0,0.0,-4.099,-4.0943,-4.0926,-4.0832,-4.0707,-4.1117,-4.1255,-4.1192,-4.0849,-4.0599,-4.0405,-3.9893,-3.9544,-3.9255,-3.7741,-3.7646,0.0,0.0,0.0,0.0,0.0,0.0,0.0,0.0,0.0,0.0,0.0,0.0,0.0,0.0,0.0,0.0,0.0,0.0,0.0,0.0,0.0,0.0,0.0,0.0,0.0,0.0,0.0,0.0,0.0,0.0,0.0,0.0,0.0,0.0,0.0,0.0,0.0,-3.2775,-3.2632,0.0,0.0,-3.3384,-3.355,-3.3864,-3.4024,-3.4087,-3.4012,-3.4204,-3.4403,-3.463,-3.5079,-3.5621,-3.6256,-3.6634,-3.7041,-3.7461,-3.7461,-3.7461,-3.7461,-3.7195,-3.7021,-3.7035,-3.6646,-3.6184,-3.5842,-3.5254,-3.4544,-3.3745,-3.3451,-3.3308,-3.3308,-3.3308,-3.3308,-3.3308,0.0,0.0,0.0,0.0,0.0,0.0,0.0,0.0,0.0,0.0,0.0,-3.8681,-3.9047,-4.0584,-4.1647,-4.18,-4.2225,-4.231,-4.1917,0.0,0.0,0.0,0.0,0.0,0.0,-4.0642,-4.048,-4.048,-4.04,-4.0351,-4.0252,-4.0497,-4.0546,-4.0497,-4.0351,-4.0103,-3.9851,-3.9697,-3.9577,-3.937,-3.8194,-3.8144,-3.8684,0.0,0.0,0.0,0.0,0.0,0.0,0.0,0.0,0.0,0.0,0.0,0.0,0.0,0.0,0.0,0.0,0.0,0.0,0.0,0.0,0.0,0.0,0.0,0.0,0.0,0.0,0.0,0.0,0.0,0.0,0.0,0.0,0.0,0.0,0.0,-3.2715,-3.2994,-3.2863,-3.2965,-3.3743,-3.3798,-3.3977,-3.43,-3.4353,-3.4481,-3.4685,-3.4733,-3.5015,-3.5456,-3.5933,-3.6411,-3.7132,-3.7534,-3.795,-3.8367,-3.8367,-3.8367,-3.8367,-3.8006,-3.7922,-3.7922,-3.7612,-3.7297,-3.689,-3.6497,-3.5873,-3.4993,-3.4194,-3.3869,-3.3869,-3.3869,-3.3869,-3.3869,0.0,0.0,0.0,0.0,0.0,0.0,0.0,0.0,0.0,0.0,-3.9547,-4.0594,-4.0563,-4.1774,-4.2595,-4.2552,-4.2369,-4.2145,-4.1874,-4.1831,0.0,0.0,0.0,0.0,-4.04,-4.0235,-4.0186,-4.0186,-4.0285,-4.0203,-3.9952,-3.9577,-3.9332,-3.9206,-3.9749,-3.9558,-3.8805,-3.9044,-3.892,-3.8446,-3.8446,-3.8214,-3.7934,0.0,0.0,0.0,0.0,0.0,0.0,0.0,0.0,0.0,0.0,0.0,0.0,0.0,0.0,0.0,0.0,0.0,0.0,0.0,0.0,0.0,0.0,0.0,0.0,0.0,0.0,0.0,0.0,0.0,0.0,0.0,0.0,0.0,-3.3099,-3.2674,-3.2763,-3.3528,-3.3436,-3.3581,-3.4134,-3.4203,-3.414,-3.4027,-3.457,-3.514,-3.5737,-3.632,-3.6904,-3.7514,-3.7555,-3.7568,-3.7568,-3.7582,-3.7596,-3.7596,-3.7596,-3.7596,-3.7596,-3.7596,-3.7596,-3.7596,-3.7596,-3.7582,-3.7568,-3.7568,-3.7555,-3.7297,-3.4963,-3.3977,-3.3977,-3.3964,-3.3937,-3.3923,0.0,0.0,0.0,0.0,0.0,0.0,0.0,0.0,0.0,0.0,-3.8608,-3.9431,-3.9755,-4.0624,-4.1213,-4.1293,-4.1265,-4.1128,-4.0832,0.0,0.0,0.0,0.0,0.0,-4.0235,-3.9404,-3.9193,-3.9629,-3.9139,-3.8816,-3.8761,-3.9525,-3.9594,-3.9206,-3.9348,-3.9065,-3.8407,-3.8518,-3.8254,-3.7786,-3.7786,-3.7743,-3.7759,0.0,0.0,0.0,0.0,0.0,0.0,0.0,0.0,0.0,0.0,0.0,0.0,0.0,0.0,0.0,0.0,0.0,0.0,0.0,0.0,0.0,0.0,0.0,0.0,0.0,0.0,0.0,0.0,0.0,0.0,0.0,0.0,-3.3936,-3.3289,-3.3532,-3.3738,-3.3826,-3.3778,-3.4009,-3.4607,-3.4662,-3.495,-3.5805,-3.6022,-3.6388,-3.6999,-3.7189,-3.7351,-3.7528,-3.7948,-3.8165,-3.8165,-3.86,-3.8817,-3.8817,-3.8817,-3.8817,-3.8817,-3.8817,-3.8817,-3.8817,-3.8817,-3.8572,-3.8165,-3.8165,-3.7921,-3.746,-3.6809,-3.6551,-3.6497,-3.6035,-3.5601,-3.5235,0.0,0.0,0.0,0.0,0.0,0.0,0.0,0.0,0.0,0.0,-3.9091,-3.9688,-3.9941,-4.0414,-4.0784,-4.0802,-4.0659,-4.0466,-4.0319,0.0,0.0,0.0,0.0,-3.9387,-3.9387,-3.8761,-3.8613,-3.8941,-3.8502,-3.8278,-3.8294,-3.8739,-3.881,-3.8495,-3.8701,-3.8518,-3.7985,-3.8181,-3.7985,-3.748,-3.748,-3.7599,-3.77,-3.77,-3.7759,-3.7876,-3.7876,-3.7876,-3.7934,-3.8049,0.0,0.0,0.0,0.0,0.0,0.0,0.0,0.0,0.0,0.0,0.0,0.0,0.0,0.0,0.0,0.0,0.0,0.0,0.0,0.0,0.0,0.0,0.0,0.0,-3.4623,-3.4421,-3.3976,-3.4017,-3.4104,-3.4285,-3.4248,-3.4651,-3.5493,-3.5574,-3.5967,-3.6931,-3.6999,-3.7256,-3.7867,-3.7908,-3.8016,-3.8274,-3.86,-3.879,-3.879,-3.9129,-3.9305,-3.9305,-3.9305,-3.9305,-3.9305,-3.9305,-3.9305,0.0,-3.9305,-3.9102,-3.879,-3.879,-3.8586,0.0,0.0,0.0,0.0,0.0,-3.6782,-3.6483,0.0,0.0,0.0,0.0,0.0,0.0,0.0,0.0,0.0,0.0,0.0,-4.0497,-4.0497,-4.0689,-4.0802,-4.0594,-4.0269,-4.002,0.0,0.0,0.0,-3.9226,-3.8613,-3.8278,-3.8278,-3.8238,-3.8238,-3.8278,-3.8181,-3.8181,-3.8181,-3.7786,-3.7524,-3.7464,-3.8026,-3.7985,-3.7539,-3.7985,-3.7943,-3.748,-3.748,-3.7583,-3.77,-3.77,-3.7759,-3.7876,-3.7876,-3.7876,-3.7876,-3.7876,0.0,0.0,0.0,0.0,0.0,0.0,0.0,0.0,0.0,0.0,0.0,0.0,0.0,0.0,0.0,0.0,0.0,0.0,0.0,0.0,0.0,0.0,0.0,0.0,-3.5,-3.5094,-3.4936,-3.4543,-3.4434,-3.4963,-3.5031,-3.5465,-3.6592,-3.67,-3.6958,-3.7582,-3.7636,-3.7894,-3.8491,0.0,0.0,0.0,0.0,-3.9509,-3.9509,-3.9509,-3.9509,-3.9509,-3.9509,-3.9509,-3.9509,-3.9509,-3.9509,-3.9509,-3.9427,-3.94,-3.94,-3.9332,-3.9305,-3.9197,-3.8138,-3.7691,-3.7636,-3.7636,-3.7497,0.0,0.0,0.0,0.0,0.0,0.0,0.0,0.0,0.0,0.0,-3.9729,-3.9918,-3.9969,-3.9918,-3.9901,-3.9747,-3.9259,-3.9222,-3.9115,0.0,0.0,-3.8678,-3.8075,-3.8197,-3.8278,-3.8278,-3.7738,-3.7679,-3.8278,-3.7594,-3.7314,-3.7401,-3.7828,-3.7711,-3.7314,-3.801,-3.7985,-3.7539,-3.7642,-3.7583,-3.748,-3.748,-3.7539,-3.7539,-3.7539,-3.7539,-3.7599,-3.7599,-3.7599,-3.7583,-3.77,-3.7759,-3.7759,-3.7934,0.0,0.0,0.0,0.0,0.0,0.0,0.0,0.0,0.0,0.0,0.0,0.0,0.0,0.0,0.0,0.0,0.0,0.0,0.0,0.0,-3.6041,-3.5798,-3.5547,-3.5547,-3.5859,-3.613,-3.6252,-3.6252,-3.6551,-3.7284,-3.7351,-3.7596,-3.8206,-3.8247,-3.8505,-3.9102,-3.959,0.0,-4.0011,-4.0499,-4.077,-4.077,-4.077,-4.077,-4.077,0.0,0.0,-4.077,-4.077,-4.077,-4.0743,-4.0241,-4.0024,-3.9983,-3.9495,-3.9305,-3.9278,-3.9047,-3.8667,-3.8247,-3.8247,-3.7863,-3.7286,0.0,0.0,0.0,0.0,0.0,0.0,0.0,0.0,0.0,0.0,-3.959,-3.959,-3.9537,-3.959,-3.9415,-3.8914,-3.8766,0.0,0.0,-3.8205,-3.8033,-3.7642,-3.7711,-3.7738,-3.7738,-3.7314,-3.7254,-3.7653,-3.7225,-3.706,-3.7105,-3.7389,-3.7389,-3.7105,-3.7492,-3.7551,-3.7329,-3.7329,-3.7405,-3.748,-3.748,-3.748,-3.748,-3.748,-3.748,-3.748,-3.748,-3.7685,-3.7886,-3.77,-3.7801,-3.8001,-3.786,-3.7876,-3.7992,0.0,0.0,0.0,0.0,0.0,0.0,0.0,0.0,0.0,0.0,0.0,0.0,0.0,0.0,-3.7826,0.0,0.0,-3.6445,-3.6256,-3.5978,-3.5818,-3.6117,-3.6415,-3.6605,-3.6605,-3.6877,-3.7311,-3.7921,-3.7975,-3.822,-3.8817,-3.9129,-3.9427,-3.9726,-4.0323,-4.0648,-4.0648,-4.096,-4.1123,-4.1123,-4.1123,-4.1123,-4.1123,-4.1123,-4.1123,-4.1123,-4.1123,-4.1123,-4.1096,-4.0784,-4.0648,-4.0608,-3.9997,-3.9739,-3.9712,-3.9414,-3.9129,-3.8857,-3.8857,-3.858,-3.8249,0.0,0.0,0.0,0.0,0.0,0.0,0.0,0.0,0.0,0.0,-3.9272,-3.9272,-3.9272,-3.9379,-3.9255,0.0,0.0,0.0,0.0,-3.7759,-3.7583,-3.748,-3.7329,-3.7254,-3.7194,-3.7044,-3.7015,-3.7015,-3.6938,-3.6938,-3.6938,-3.6938,-3.6938,-3.6938,-3.6999,-3.7044,-3.7194,-3.7194,-3.7329,-3.748,-3.748,-3.748,-3.748,-3.748,-3.7583,-3.7626,-3.7524,-3.7886,-3.8238,-3.7685,-3.7786,-3.8141,-3.7743,-3.77,-3.7759,-3.8049,-3.8049,0.0,0.0,0.0,0.0,0.0,0.0,0.0,0.0,0.0,-3.9157,-3.9375,-3.8892,-3.8471,-3.862,-3.7615,-3.6573,-3.6152,-3.5993,-3.6049,-3.6537,-3.6795,-3.6958,-3.6958,-3.7406,-3.7935,-3.8532,-3.8695,-3.8952,-3.9441,-4.0024,-4.0363,-4.0363,-4.096,-4.1286,-4.1286,-4.1408,-4.1462,-4.1462,-4.1462,-4.1462,-4.1462,-4.1462,-4.1462,-4.1462,-4.1462,-4.1462,-4.1449,-4.134,-4.1232,-4.1082,-4.058,-4.0363,-4.0323,-3.9848,-3.9576,-3.9454,-3.9346,-3.9216,-3.9127,0.0,0.0,0.0,0.0,0.0,0.0,0.0,0.0,0.0,0.0,0.0,0.0,0.0,0.0,0.0,0.0,0.0,0.0,-3.7876,-3.7642,-3.7539,-3.748,-3.748,-3.7405,-3.7194,-3.7044,-3.7015,-3.7015,-3.6693,-3.6616,-3.6723,-3.6723,-3.6723,-3.6723,-3.6938,-3.7044,-3.7194,-3.7194,-3.7329,-3.748,-3.748,-3.748,-3.748,-3.748,-3.7786,-3.8141,-3.7685,-3.7943,-3.8407,-3.7743,-3.7642,-3.7759,-3.7583,-3.7583,-3.7759,-3.7876,0.0,-3.8221,-3.8351,-3.8278,-3.818,-3.8164,-3.7998,-3.7896,0.0,0.0,-3.8733,-3.9732,-3.8773,-3.7971,-3.8414,-3.7275,-3.6152,-3.6086,-3.6334,-3.6524,-3.6592,-3.7528,-3.822,-3.822,-3.8274,-3.8559,-3.9142,-3.9671,-4.0024,-4.0078,-4.0662,-4.1015,-4.1015,-4.1584,-4.191,-4.191,-4.2412,-4.2697,-4.2697,-4.2697,-4.2697,-4.2697,-4.2697,-4.2697,-4.2697,-4.2697,-4.2697,-4.2656,-4.2127,-4.1612,-4.111,-4.1042,-4.1015,-4.1001,-4.0933,-4.058,-4.0024,-3.9495,-3.9038,-3.8692,0.0,0.0,0.0,0.0,0.0,0.0,0.0,0.0,0.0,0.0,0.0,0.0,0.0,0.0,0.0,0.0,0.0,0.0,-3.7876,-3.7658,-3.748,-3.748,-3.7405,-3.727,-3.7194,-3.6968,-3.68,-3.68,-3.6616,-3.6554,-3.6723,-3.66,-3.6677,-3.6862,-3.6862,-3.6968,-3.7194,-3.7194,-3.7329,-3.748,-3.748,-3.748,-3.748,-3.748,-3.7828,-3.8294,-3.8026,-3.8197,0.0,0.0,-3.8042,-3.8116,-3.7642,-3.7642,-3.786,-3.786,-3.8033,0.0,-3.8049,-3.7992,-3.7992,0.0,-3.8261,-3.8649,-3.869,-3.9424,-4.0099,-4.019,-3.9191,-3.8311,-3.8458,-3.7014,-3.6007,0.0,-3.6525,-3.6849,-3.7555,-3.8098,-3.8545,-3.8884,-3.9237,-3.9549,-3.9794,-4.0038,-4.0336,-4.0703,-4.1286,-4.1625,-4.1625,-4.2195,-4.2521,-4.2521,-4.2765,-4.2887,-4.2887,-4.2887,-4.2887,-4.2887,-4.2887,-4.2887,-4.2887,-4.2887,-4.2887,-4.2873,-4.2629,-4.2371,-4.2127,-4.1774,-4.1625,-4.1598,-4.1259,-4.096,-4.0648,-4.0038,-3.9514,-3.8948,0.0,0.0,0.0,0.0,0.0,0.0,0.0,0.0,0.0,0.0,0.0,0.0,0.0,0.0,0.0,0.0,0.0,0.0,0.0,-3.7658,-3.748,-3.748,-3.7329,-3.7194,-3.715,-3.6846,-3.6662,-3.6662,-3.6554,-3.6554,-3.6723,-3.6554,-3.6693,-3.7015,-3.68,-3.6892,-3.7194,-3.7194,-3.7329,-3.748,-3.748,-3.748,-3.748,-3.748,-3.7786,-3.8141,-3.8141,-3.8351,0.0,-3.839,-3.8407,-3.8479,-3.8059,-3.8017,-3.8075,-3.8148,-3.8132,-3.8132,-3.7876,-3.7876,-3.7908,-3.7982,-3.8507,-3.9109,-3.9138,-4.015,-4.0962,-4.0516,-3.9525,-3.8605,-3.8324,-3.7049,-3.6103,-3.6537,-3.6877,-3.7406,-3.8301,-3.8559,-3.8884,-3.9481,-3.9916,-4.0323,-4.0648,-4.0689,-4.0879,-4.1327,-4.191,-4.2249,-4.2249,-4.2656,-4.2887,-4.2887,-4.2887,-4.2887,-4.2887,-4.2887,-4.2887,-4.2887,-4.2887,-4.2887,-4.2887,-4.2887,-4.2887,-4.2887,-4.2887,-4.2887,-4.286,-4.2426,-4.2249,-4.2195,-4.1774,-4.1503,-4.1313,-4.0852,-4.011,-3.937,0.0,0.0,0.0,0.0,0.0,0.0,0.0,0.0,0.0,0.0,0.0,0.0,0.0,0.0,0.0,0.0,0.0,0.0,0.0,-3.7599,-3.748,-3.748,-3.7329,-3.715,-3.6999,-3.68,-3.6662,-3.6492,-3.6492,-3.6554,-3.6723,-3.6554,-3.6693,-3.7015,-3.68,-3.6892,-3.7194,-3.7194,-3.7329,-3.748,-3.748,-3.748,-3.748,-3.748,-3.7583,-3.77,-3.77,0.0,-3.892,-3.8613,-3.8535,-3.8678,-3.9044,-3.8805,0.0,-3.8711,-3.86,-3.8335,-3.8221,-3.8049,-3.8019,-3.8555,-3.8613,-3.8825,-3.999,-4.0432,-4.0669,-4.0779,-3.9647,-3.8605,-3.8175,-3.7242,-3.6578,-3.6605,-3.7596,-3.8383,-3.841,-3.8912,-3.9495,-4.0092,-4.0173,-4.0648,0.0,-4.1951,-4.1951,-4.1978,-4.2521,-4.286,-4.286,-4.2873,-4.2887,-4.2887,-4.2887,-4.2887,-4.2887,-4.2887,-4.2887,-4.2887,-4.2887,-4.2887,-4.2887,-4.2887,-4.2887,-4.2887,-4.2887,-4.2887,-4.2887,-4.2873,-4.286,-4.286,-4.2833,-4.248,-4.1978,-4.1951,-4.0924,-3.9533,0.0,0.0,0.0,0.0,0.0,0.0,0.0,0.0,0.0,0.0,0.0,0.0,0.0,0.0,0.0,0.0,0.0,0.0,0.0,-3.7524,-3.7539,-3.7658,-3.7464,-3.7345,-3.715,-3.6984,-3.68,-3.66,-3.66,-3.6739,-3.6877,-3.6739,-3.6846,-3.7301,-3.6907,-3.6968,-3.7405,-3.7254,-3.7329,-3.748,-3.748,-3.748,-3.7539,-3.7599,-3.77,-3.7844,0.0,0.0,-3.8952,-3.9262,-3.9315,-3.9242,-3.9049,-3.9011,-3.9044,-3.8843,-3.8544,-3.8221,-3.8049,-3.8195,-3.8476,-3.855,-3.9124,-3.9865,-4.0418,-4.0795,-4.1056,-4.0972,-4.02,-3.9367,-3.8998,-3.809,-3.7578,-3.8002,-3.8238,-3.8559,-3.8952,-3.9169,-3.9522,-4.0119,-4.0553,0.0,0.0,0.0,0.0,-4.2561,-4.2778,-4.2887,-4.2887,-4.2887,-4.2887,-4.2887,-4.2887,-4.2887,-4.2887,-4.2887,-4.2887,-4.2887,-4.2887,-4.2887,-4.2887,-4.2887,-4.2887,-4.2887,-4.2887,-4.2887,-4.2887,-4.2887,-4.2887,-4.2887,-4.2887,-4.2765,-4.2588,-4.2588,-4.1882,-4.0844,0.0,0.0,0.0,0.0,0.0,0.0,0.0,0.0,0.0,0.0,0.0,0.0,0.0,0.0,0.0,0.0,0.0,0.0,0.0,0.0,-3.7421,-3.77,-3.7524,-3.7329,-3.7298,-3.7105,-3.6938,-3.68,-3.6723,-3.6846,-3.7044,-3.6785,-3.6907,-3.748,-3.6984,-3.7044,-3.748,-3.7329,-3.7449,-3.7626,-3.7626,-3.7685,-3.7817,-3.7934,-3.8033,0.0,0.0,0.0,-3.9061,-3.9506,-3.9662,-3.9679,-3.9437,-3.9515,-3.9591,-3.887,-3.861,-3.8428,-3.794,-3.8253,-3.8705,-3.8853,-3.9661,-4.0495,-4.0893,-4.1223,-4.139,-4.1221,-4.0493,-3.9817,-3.9532,-3.8839,-3.8375,-3.8847,-3.8933,-3.9046,-3.9441,-3.9584,-3.9938,-4.0445,-4.1055,-4.1666,0.0,0.0,0.0,-4.286,-4.2887,-4.2887,-4.2887,-4.2887,-4.2887,-4.2887,-4.2887,-4.2887,-4.2887,-4.2887,-4.2887,-4.2887,-4.2887,-4.2887,-4.2887,-4.2887,-4.2887,-4.2887,-4.2887,-4.2887,-4.2887,-4.2887,-4.2887,-4.2887,-4.2887,-4.2887,-4.2887,-4.279,-4.2339,-4.1619,0.0,0.0,0.0,0.0,0.0,0.0,0.0,0.0,0.0,0.0,0.0,0.0,0.0,0.0,0.0,0.0,0.0,0.0,0.0,0.0,0.0,-3.77,-3.7389,-3.7298,-3.7417,-3.7165,-3.7015,-3.6999,-3.68,-3.6892,-3.7178,-3.6723,-3.6862,-3.748,-3.7181,-3.7181,-3.7539,-3.7539,-3.7685,-3.7943,-3.7943,-3.8132,-3.8391,-3.8391,0.0,0.0,0.0,-3.9061,-3.9435,-3.9435,-3.9609,-3.9884,-4.002,-4.0129,-3.9952,-3.8755,-3.8746,-3.8942,-3.7982,-3.8241,-3.8864,-3.9439,-4.0103,-4.0814,-4.1446,-4.1588,-4.1522,-4.1323,-4.0615,-3.9904,0.0,0.0,-3.9112,-3.9128,-3.9637,-3.9922,-3.97,-4.0206,-4.0718,0.0,0.0,0.0,0.0,0.0,0.0,-4.2887,0.0,-4.2887,-4.2887,-4.2887,-4.2887,-4.2887,-4.2887,-4.2887,-4.2887,-4.2887,-4.2887,-4.2887,-4.2887,-4.2887,-4.2887,-4.2887,-4.2887,-4.2887,-4.2887,-4.2887,-4.2887,-4.2887,-4.2887,-4.2887,-4.2887,-4.2887,-4.2887,-4.2595,-4.2387,-4.2097,0.0,0.0,0.0,0.0,0.0,0.0,0.0,0.0,0.0,0.0,0.0,0.0,0.0,0.0,0.0,0.0,0.0,0.0,0.0,0.0,0.0,0.0,0.0,0.0,0.0,0.0,0.0,-3.715,-3.7074,-3.7134,-3.7194,-3.7074,-3.727,-3.7642,-3.7329,-3.7389,-3.7817,-3.7786,-3.7886,-3.8042,0.0,-3.8335,-3.8391,0.0,0.0,0.0,0.0,0.0,-3.9781,-3.9781,-3.9644,-3.9506,-3.9262,-3.898,-3.8626,-3.8278,-3.8146,-3.8152,-3.8352,-3.8896,-3.947,-4.0135,-4.083,-4.1383,-4.1541,-4.1588,-4.1522,-4.1221,-4.095,-4.0738,0.0,0.0,0.0,-3.9754,-3.9637,0.0,-3.9394,-3.9911,0.0,-4.1042,0.0,-4.2236,-4.2833,-4.2887,0.0,0.0,-4.2887,-4.2887,-4.2887,-4.2887,-4.2887,-4.2887,-4.2887,-4.2887,-4.2887,-4.2887,-4.2887,-4.2887,-4.2887,-4.2887,-4.2887,-4.2887,-4.2887,-4.2887,-4.2887,-4.2887,-4.2887,-4.2887,-4.2887,-4.2887,-4.2887,-4.2887,-4.2887,-4.279,-4.279,-4.2666,0.0,0.0,0.0,0.0,0.0,0.0,0.0,0.0,0.0,0.0,0.0,0.0,0.0,0.0,0.0,0.0,0.0,0.0,0.0,0.0,0.0,0.0,0.0,0.0,0.0,0.0,0.0,0.0,0.0,0.0,-3.7433,-3.721,-3.7285,-3.7583,-3.7373,-3.7492,-3.7817,-3.786,0.0,0.0,0.0,0.0,0.0,0.0,0.0,0.0,0.0,0.0,0.0,0.0,0.0,-3.8936,-3.8629,-3.8578,-3.8518,-3.804,0.0,-3.8257,-3.8562,-3.9043,-3.9677,-4.0419,-4.1099,-4.1588,-4.1588,-4.1588,-4.1538,-4.1355,-4.1169,0.0,-4.0919,0.0,0.0,0.0,0.0,0.0,-3.9496,-4.0232,-4.0808,0.0,-4.1869,0.0,-4.286,-4.2887,-4.2887,0.0,-4.2887,-4.2887,-4.2887,-4.2887,-4.2887,-4.2887,-4.2887,-4.2887,-4.2887,-4.2887,-4.2887,-4.2887,-4.2887,-4.2887,-4.2887,-4.2887,-4.2887,-4.2887,0.0,-4.2887,-4.2887,-4.2887,-4.2887,-4.2887,-4.2887,-4.2887,-4.2887,-4.2679,-4.2582,-4.2484,0.0,0.0,0.0,0.0,0.0,0.0,0.0,0.0,0.0,0.0,0.0,0.0,0.0,0.0,0.0,0.0,0.0,0.0,0.0,0.0,0.0,0.0,0.0,0.0,0.0,0.0,0.0,0.0,0.0,0.0,0.0,0.0,0.0,0.0,0.0,0.0,0.0,0.0,0.0,0.0,0.0,0.0,0.0,0.0,0.0,0.0,0.0,0.0,0.0,0.0,-3.8335,-3.8278,-3.8075,-3.8492,-3.8803,-3.7934,-3.8209,-3.8721,-3.8679,-3.9139,-3.9819,-4.0546,-4.1162,-4.1588,-4.1588,-4.1588,-4.1588,-4.1588,0.0,-4.0978,-4.1025,-4.0547,-4.0147,-4.0236,0.0,-3.9922,-3.9686,-4.054,-4.1172,-4.111,-4.2086,-4.2806,-4.2873,-4.2887,-4.2887,-4.2887,-4.2887,-4.2887,-4.2887,-4.2887,-4.2887,-4.2887,-4.2887,-4.2887,-4.2887,-4.2887,-4.2887,-4.2887,-4.2887,-4.2887,-4.2887,-4.2887,-4.2887,-4.2887,0.0,0.0,-4.2887,-4.2887,-4.2887,-4.2887,-4.2887,-4.2887,-4.2887,-4.2387,-4.2177,-4.2177,0.0,0.0,0.0,0.0,0.0,0.0,0.0,0.0,0.0,0.0,-3.4765,0.0,0.0,0.0,0.0,0.0,0.0,0.0,0.0,0.0,0.0,0.0,0.0,0.0,0.0,0.0,0.0,0.0,0.0,0.0,0.0,0.0,0.0,0.0,0.0,0.0,0.0,0.0,0.0,0.0,0.0,0.0,0.0,0.0,0.0,0.0,0.0,0.0,-3.8583,-3.823,-3.8059,-3.796,-3.7685,-3.7662,-3.7741,-3.7571,-3.803,-3.8695,-3.9187,-3.9866,-4.0577,-4.1257,-4.1494,-4.1588,-4.1588,-4.1588,0.0,0.0,-4.0836,-4.0304,-4.0204,-3.9882,-3.9481,-3.931,0.0,0.0,0.0,0.0,-4.0631,0.0,-4.1734,-4.2344,-4.2833,0.0,0.0,0.0,0.0,0.0,-4.2887,-4.2887,-4.2887,-4.2887,-4.2887,-4.2887,-4.2887,-4.2887,-4.2887,-4.2887,-4.2887,-4.2887,-4.2887,-4.2887,-4.2887,-4.2887,0.0,0.0,-4.2887,-4.2887,-4.2887,-4.2887,-4.2887,-4.2887,-4.2887,-4.279,-4.279,-4.279,0.0,0.0,0.0,0.0,0.0,0.0,0.0,0.0,0.0,0.0,-3.4481,-3.4414,0.0,0.0,0.0,0.0,0.0,0.0,0.0,0.0,0.0,0.0,0.0,0.0,0.0,0.0,0.0,0.0,0.0,0.0,0.0,0.0,0.0,0.0,0.0,0.0,0.0,0.0,0.0,0.0,0.0,0.0,0.0,0.0,0.0,0.0,0.0,0.0,0.0,-3.8303,-3.8017,-3.7743,-3.7583,-3.748,-3.7543,-3.7907,-3.8254,-3.8744,-3.9787,-4.0324,-4.0751,-4.1415,-4.1588,-4.1588,-4.1588,0.0,0.0,0.0,-4.0768,-4.0188,-4.0114,-3.9717,0.0,-3.9171,-3.9463,-3.9598,-3.9305,-3.9807,0.0,-4.1042,-4.1234,-4.1633,0.0,0.0,0.0,0.0,0.0,0.0,-4.2887,-4.2887,-4.2887,-4.2887,-4.2887,-4.2887,-4.2887,-4.2887,-4.2887,-4.2887,-4.2887,-4.2887,-4.2887,-4.2887,-4.2887,-4.2887,0.0,0.0,-4.2887,-4.2887,-4.2887,-4.2887,-4.2887,-4.2887,-4.2887,-4.2693,-4.2693,-4.2693,0.0,0.0,0.0,0.0,0.0,0.0,0.0,-3.3725,-3.37,-3.4114,-3.3994,-3.4052,-3.4332,-3.4414,-3.4601,0.0,0.0,0.0,0.0,0.0,0.0,0.0,0.0,0.0,0.0,0.0,0.0,0.0,0.0,0.0,0.0,0.0,0.0,0.0,0.0,0.0,0.0,0.0,0.0,0.0,0.0,0.0,0.0,0.0,0.0,0.0,0.0,0.0,0.0,0.0,-3.8107,-3.7759,-3.7642,-3.7694,-3.7872,-3.841,-3.8774,-3.9249,-4.0309,-4.0704,-4.0941,-4.1462,-4.1588,-4.1588,-4.1588,-4.1588,0.0,-4.1456,-4.0684,-4.0001,-3.9846,-3.9436,-3.9078,0.0,-3.9257,-3.9536,-3.9292,-3.9699,-4.0191,0.0,-4.0733,0.0,0.0,0.0,0.0,0.0,0.0,0.0,0.0,-4.2595,-4.2693,-4.2887,-4.3009,-4.3077,-4.3077,-4.3213,-4.328,-4.328,-4.328,-4.328,-4.328,-4.328,-4.328,-4.328,0.0,0.0,0.0,-4.328,-4.328,-4.328,-4.328,-4.3199,-4.3077,-4.2895,-4.2717,-4.2609,0.0,0.0,0.0,0.0,0.0,0.0,0.0,-3.2074,-3.2288,-3.3192,-3.3278,-3.3561,-3.4356,-3.4414,-3.4654,0.0,0.0,0.0,0.0,0.0,0.0,0.0,0.0,0.0,0.0,0.0,0.0,0.0,0.0,0.0,0.0,0.0,0.0,0.0,0.0,0.0,0.0,0.0,0.0,0.0,0.0,0.0,0.0,0.0,0.0,0.0,0.0,0.0,0.0,0.0,0.0,-3.8107,-3.7934,-3.8264,-3.867,-3.8686,0.0,0.0,-4.0626,-4.1035,-4.1509,-4.1573,-4.1588,-4.1588,-4.1588,0.0,-4.1456,-4.0987,-4.0045,-3.9262,-3.8767,-3.8322,-3.8106,-3.827,0.0,-3.9202,-3.9312,-3.9346,-3.9523,-3.9986,0.0,0.0,0.0,0.0,0.0,0.0,0.0,0.0,0.0,-4.1796,-4.219,-4.2887,-4.3402,-4.3687,-4.3687,-4.4257,-4.4542,-4.4542,-4.4542,-4.4542,-4.4542,-4.4542,-4.4542,-4.4542,0.0,0.0,0.0,-4.4542,-4.4542,-4.4542,-4.4542,-4.4189,-4.3687,-4.3687,-4.3348,-4.2887,0.0,0.0,0.0,0.0,0.0,0.0,0.0,-3.1655,-3.1754,-3.2245,-3.2749,-3.333,-3.4105,-3.4618,-3.5103,0.0,0.0,0.0,0.0,0.0,0.0,0.0,0.0,0.0,0.0,0.0,0.0,0.0,0.0,0.0,0.0,0.0,0.0,0.0,0.0,0.0,0.0,0.0,0.0,0.0,0.0,0.0,0.0,0.0,0.0,0.0,0.0,0.0,0.0,0.0,0.0,0.0,-3.8737,-3.9248,0.0,0.0,-4.0038,-4.0833,-4.1148,-4.1399,-4.1588,-4.1588,-4.1588,-4.1588,-4.1588,0.0,-4.1456,-4.0935,-3.9975,-3.9175,-3.862,-3.8159,-3.7956,-3.8187,-3.8711,0.0,-3.9312,-3.9305,-3.9334,0.0,0.0,0.0,0.0,0.0,0.0,0.0,0.0,0.0,0.0,0.0,-4.1201,-4.1843,-4.2624,-4.3218,-4.3451,-4.4253,-4.4705,-4.4705,-4.4705,-4.4705,-4.4705,-4.4705,-4.4705,-4.4705,0.0,0.0,0.0,-4.4705,-4.4705,-4.4705,-4.4705,-4.4556,-4.4339,-4.4339,-4.3945,-4.3416,0.0,0.0,0.0,0.0,0.0,0.0,-3.1253,-3.1039,-3.1059,-3.1409,-3.1952,-3.2745,-3.3873,-3.4654,-3.5319,-3.6102,0.0,0.0,0.0,0.0,0.0,0.0,0.0,0.0,0.0,0.0,0.0,0.0,0.0,0.0,0.0,0.0,0.0,0.0,0.0,0.0,0.0,0.0,0.0,0.0,0.0,0.0,0.0,0.0,0.0,0.0,0.0,0.0,0.0,0.0,0.0,0.0,0.0,-4.021,-4.0611,0.0,-4.0704,-4.1279,-4.1593,-4.167,-4.1588,-4.1588,-4.1588,-4.1588,0.0,0.0,-4.1189,-4.0439,-3.9621,-3.8884,-3.8337,-3.7876,-3.7665,-3.8159,-3.8461,-3.8841,-3.9271,-3.9114,0.0,0.0,0.0,0.0,0.0,0.0,0.0,0.0,0.0,0.0,0.0,0.0,-4.0335,-4.1131,-4.2435,-4.324,-4.3519,-4.4689,-4.5221,-4.5221,-4.5221,-4.5221,-4.5221,-4.5221,-4.5221,0.0,0.0,0.0,0.0,-4.5221,-4.5221,-4.5221,-4.5221,-4.5112,-4.4976,-4.4976,-4.4352,-4.3511,0.0,0.0,0.0,0.0,0.0,0.0,0.0,-2.9741,-2.9904,-3.0715,-3.08,-3.1639,-3.3785,-3.4412,-3.5246,-3.66,0.0,0.0,0.0,0.0,0.0,0.0,0.0,0.0,0.0,0.0,-3.7599,-3.77,-3.7817,0.0,0.0,0.0,0.0,0.0,0.0,0.0,0.0,0.0,0.0,0.0,0.0,0.0,0.0,0.0,0.0,0.0,0.0,0.0,0.0,0.0,0.0,0.0,0.0,-4.0982,-4.1565,-4.1365,-4.1676,-4.2045,-4.1963,-4.1752,-4.1588,-4.1588,-4.1588,-4.1456,0.0,0.0,-4.0524,-3.9379,-3.8782,-3.8323,-3.7687,-3.7099,-3.7045,-3.8007,-3.8006,0.0,-3.9129,-3.8666,0.0,0.0,0.0,0.0,0.0,0.0,0.0,0.0,0.0,0.0,0.0,0.0,-3.9521,-4.1156,-4.3193,-4.4217,-4.4217,-4.5697,-4.6455,-4.6455,-4.6455,-4.6455,-4.6455,-4.6455,0.0,0.0,0.0,0.0,0.0,-4.6455,-4.6455,-4.6455,-4.6455,-4.6102,-4.5573,-4.5573,-4.4434,-4.29,0.0,0.0,0.0,0.0,0.0,0.0,0.0,-2.9602,-2.9673,-2.9932,-3.0594,-3.153,-3.304,-3.4205,-3.5385,-3.66,0.0,0.0,0.0,0.0,0.0,0.0,0.0,0.0,0.0,0.0,-3.7539,-3.7539,-3.7759,-3.7934,-3.7992,-3.8278,0.0,0.0,0.0,0.0,0.0,0.0,0.0,0.0,0.0,0.0,0.0,0.0,0.0,0.0,0.0,0.0,0.0,0.0,0.0,0.0,0.0,0.0,0.0,-4.2086,-4.2141,0.0,-4.1963,-4.1752,-4.1588,-4.1588,-4.1588,-4.1456,-4.0919,0.0,-4.0439,-3.9307,-3.8782,-3.8337,-3.7915,-3.7176,-3.6986,-3.7699,-3.7827,-3.7844,0.0,0.0,0.0,0.0,0.0,0.0,0.0,0.0,0.0,0.0,0.0,0.0,0.0,0.0,0.0,-4.0072,-4.161,-4.2914,-4.3963,-4.5035,-4.5914,-4.6469,-4.6469,-4.6469,-4.6469,-4.6469,0.0,0.0,0.0,0.0,0.0,-4.6469,-4.6238,-4.5858,-4.5858,-4.5505,-4.4976,-4.4976,-4.4094,-4.2887,0.0,0.0,0.0,0.0,0.0,0.0,0.0,-2.9602,-2.9602,-2.9651,-3.0239,-3.1185,-3.2731,-3.3875,-3.511,-3.6569,0.0,0.0,0.0,0.0,0.0,0.0,0.0,0.0,0.0,-3.748,-3.748,-3.748,-3.77,-3.7876,-3.7934,-3.8164,-3.8335,-3.8408,0.0,0.0,0.0,0.0,0.0,0.0,0.0,0.0,-3.9914,0.0,0.0,0.0,0.0,0.0,0.0,0.0,0.0,0.0,0.0,0.0,0.0,0.0,-4.2318,-4.2012,-4.2012,-4.1801,-4.1588,-4.1588,-4.1456,0.0,0.0,0.0,-3.9879,-3.8943,-3.8427,-3.8037,-3.7763,-3.7099,-3.6758,-3.7259,-3.7261,-3.7263,0.0,0.0,0.0,0.0,0.0,0.0,0.0,0.0,0.0,0.0,0.0,0.0,0.0,0.0,0.0,-3.9609,-4.1164,-4.2474,-4.327,-4.4152,-4.4912,-4.5475,-4.5808,-4.5914,-4.602,0.0,0.0,0.0,0.0,0.0,0.0,-4.5804,-4.5587,-4.5261,-4.5261,-4.5031,-4.4705,-4.4705,-4.3796,-4.2548,0.0,0.0,0.0,0.0,0.0,0.0,0.0,0.0,0.0,0.0,-2.9837,-3.0602,-3.2687,-3.3501,-3.4592,0.0,0.0,0.0,0.0,0.0,0.0,0.0,0.0,0.0,0.0,-3.748,-3.748,-3.748,-3.7642,-3.7759,-3.7934,-3.8155,-3.8359,-3.8505,-3.9233,0.0,0.0,0.0,0.0,0.0,0.0,0.0,0.0,0.0,0.0,0.0,0.0,0.0,0.0,0.0,0.0,0.0,0.0,0.0,0.0,0.0,0.0,0.0,0.0,-4.1785,-4.1522,-4.1522,-4.1122,0.0,0.0,0.0,0.0,-3.8277,-3.7839,-3.7534,-3.7303,-3.6772,-3.6491,-3.677,-3.6547,0.0,0.0,0.0,0.0,0.0,0.0,0.0,0.0,0.0,0.0,0.0,0.0,0.0,0.0,0.0,0.0,0.0,-4.1359,-4.2363,-4.2525,-4.327,-4.3674,-4.3746,-4.463,-4.5048,-4.4995,0.0,0.0,0.0,0.0,0.0,0.0,-4.4705,-4.4678,-4.4637,-4.4637,-4.461,-4.4569,-4.4529,-4.343,-4.1937,0.0,0.0,0.0,0.0,0.0,0.0,0.0,0.0,0.0,0.0,-3.0273,-3.0645,-3.2289,-3.3332,0.0,0.0,0.0,0.0,0.0,0.0,0.0,0.0,0.0,0.0,0.0,-3.748,-3.748,-3.748,-3.7642,-3.7759,-3.795,-3.8637,-3.9069,-3.925,-3.9946,-4.0254,0.0,0.0,0.0,0.0,0.0,0.0,0.0,0.0,0.0,0.0,-4.2132,-4.2245,0.0,0.0,0.0,0.0,0.0,0.0,0.0,0.0,-4.1704,-4.1225,-4.1276,0.0,-4.1003,-4.1003,-4.0562,-3.999,0.0,-3.9162,-3.8885,-3.8156,-3.7777,0.0,0.0,-3.6772,-3.6259,-3.5764,-3.6085,-3.6048,0.0,0.0,0.0,0.0,0.0,0.0,0.0,0.0,0.0,0.0,0.0,0.0,0.0,0.0,0.0,0.0,-4.0459,-4.1431,-4.2513,-4.2737,-4.2944,-4.3169,-4.4016,-4.423,-4.3925,0.0,0.0,0.0,0.0,0.0,0.0,-4.4705,-4.442,-4.3999,-4.3999,-4.3715,-4.3267,-4.2806,-4.2086,-4.1165,0.0,0.0,0.0,0.0,0.0,0.0,0.0,0.0,0.0,0.0,0.0,0.0,0.0,0.0,0.0,0.0,0.0,0.0,0.0,0.0,0.0,0.0,0.0,0.0,-3.748,-3.748,-3.748,-3.748,-3.7856,-3.8177,-3.843,-3.9221,-3.9677,-3.9978,-4.0675,-4.1177,0.0,0.0,0.0,0.0,0.0,0.0,0.0,0.0,0.0,0.0,-4.2634,-4.2634,0.0,-4.2634,-4.2571,-4.2508,0.0,0.0,0.0,0.0,-4.1292,-4.082,-4.0462,-4.0393,-4.0424,-4.0424,-3.992,-3.9436,-3.9177,-3.8885,-3.8516,-3.8005,-3.7701,0.0,0.0,0.0,0.0,0.0,-3.5236,0.0,0.0,0.0,0.0,0.0,0.0,0.0,0.0,0.0,0.0,0.0,0.0,0.0,0.0,0.0,0.0,0.0,0.0,-4.0253,-4.148,-4.1492,-4.1533,-4.1417,-4.2258,-4.2732,-4.2866,0.0,0.0,0.0,0.0,0.0,-4.2708,-4.3152,-4.2951,-4.2319,-4.2644,-4.2297,-4.1431,-4.1416,-4.0951,-4.0173,0.0,0.0,0.0,0.0,0.0,0.0,0.0,0.0,0.0,0.0,0.0,0.0,0.0,0.0,0.0,0.0,0.0,0.0,0.0,0.0,0.0,0.0,0.0,-3.748,-3.748,-3.7575,-3.7638,-3.7638,-3.8318,-3.8787,-3.9122,-3.9854,-4.0405,-4.0853,-4.1452,-4.2067,0.0,0.0,0.0,0.0,-4.2634,0.0,0.0,0.0,0.0,0.0,0.0,0.0,0.0,-4.2634,-4.2508,-4.2381,-4.2381,0.0,0.0,0.0,0.0,0.0,-3.9707,-3.9478,-3.9535,-3.9692,-3.9349,-3.8958,-3.8885,-3.8501,-3.8052,-3.7777,-3.7457,0.0,0.0,-3.5264,0.0,0.0,0.0,0.0,0.0,0.0,0.0,0.0,0.0,0.0,0.0,0.0,0.0,0.0,0.0,0.0,0.0,0.0,0.0,0.0,0.0,-3.8996,-3.9898,-4.015,-4.0006,-3.9489,-4.0303,-4.1103,-4.1652,-4.1271,0.0,0.0,0.0,0.0,-4.0414,-4.1172,-4.1058,-4.0516,-4.1167,-4.0754,-3.9792,-4.02,-3.9712,-3.8951,0.0,0.0,0.0,0.0,0.0,0.0,0.0,0.0,0.0,0.0,0.0,0.0,0.0,0.0,0.0,0.0,0.0,0.0,0.0,0.0,0.0,0.0,-3.748,-3.748,-3.748,-3.8049,-3.8365,-3.8365,-3.9029,-3.9485,-3.9718,-4.0527,-4.1401,-4.231,-4.2423,-4.252,-4.2634,-4.2634,-4.2634,-4.2634,-4.2634,0.0,0.0,0.0,0.0,0.0,0.0,0.0,0.0,-4.2634,-4.2508,-4.2381,-4.2174,0.0,0.0,0.0,0.0,0.0,-3.9162,-3.8486,-3.7872,-3.8531,-3.8546,-3.8277,-3.7915,-3.7763,-3.761,-3.7211,0.0,0.0,0.0,-3.5032,-3.4721,0.0,0.0,0.0,0.0,0.0,0.0,0.0,0.0,0.0,0.0,0.0,0.0,0.0,0.0,0.0,0.0,0.0,0.0,0.0,0.0,-3.7517,-3.7685,-3.9044,-3.9465,-3.8936,-3.975,-3.9916,-3.9678,-4.03,-4.0644,0.0,0.0,0.0,-4.0414,-4.0516,-4.0516,-4.0363,-4.0127,-3.9895,-3.9603,-3.8736,-3.8273,-3.8054,0.0,0.0,0.0,0.0,0.0,0.0,0.0,0.0,0.0,0.0,0.0,0.0,0.0,0.0,0.0,0.0,0.0,0.0,0.0,0.0,0.0,-3.7791,-3.7836,-3.7957,-3.8033,-3.8697,-3.9044,-3.9044,-3.9756,-4.0151,-4.0356,-4.1372,-4.2059,-4.2634,-4.2634,-4.2634,-4.2634,-4.2634,-4.2634,-4.2634,0.0,0.0,0.0,0.0,0.0,0.0,0.0,0.0,0.0,0.0,-4.2093,-4.1623,-4.1557,0.0,0.0,0.0,0.0,0.0,-3.8277,-3.7825,-3.7457,-3.7519,-3.7519,-3.7429,-3.6872,-3.6716,-3.6559,-3.5883,0.0,0.0,0.0,0.0,0.0,0.0,0.0,0.0,0.0,0.0,0.0,0.0,0.0,0.0,0.0,0.0,0.0,0.0,0.0,0.0,0.0,0.0,0.0,0.0,0.0,0.0,-3.6338,-3.736,-3.7902,-3.795,-3.8627,-3.905,-3.9221,-3.9104,-3.9299,0.0,0.0,-3.9092,-3.9067,-3.9295,-3.9068,-3.8699,-3.858,-3.8079,-3.7432,-3.7023,-3.7184,-3.7335,0.0,0.0,0.0,0.0,0.0,0.0,0.0,0.0,0.0,0.0,0.0,0.0,0.0,0.0,0.0,0.0,0.0,0.0,0.0,0.0,-3.734,-3.7764,-3.8028,-3.8309,-3.8621,-3.9345,-3.9692,-3.9692,-4.0482,-4.0943,-4.1119,-4.1933,-4.2381,-4.2571,-4.2571,-4.2571,-4.2571,-4.2571,-4.2634,-4.2634,0.0,0.0,0.0,0.0,0.0,0.0,0.0,0.0,0.0,0.0,0.0,0.0,0.0,0.0,0.0,-3.8914,-3.856,-3.8263,-3.761,-3.738,-3.7317,-3.685,-3.6929,-3.6822,-3.6084,-3.583,-3.5561,0.0,0.0,0.0,0.0,0.0,0.0,0.0,0.0,0.0,0.0,0.0,0.0,0.0,0.0,0.0,0.0,0.0,0.0,0.0,0.0,0.0,0.0,0.0,0.0,0.0,0.0,0.0,-3.5437,-3.5954,-3.6483,-3.7012,-3.7421,-3.7976,-3.8723,-3.8109,-3.8109,-3.8723,-3.8109,-3.7793,-3.7875,-3.8074,-3.7873,-3.7429,-3.7498,-3.6758,-3.5849,-3.6015,-3.6434,-3.69,0.0,0.0,0.0,0.0,0.0,0.0,0.0,0.0,0.0,0.0,0.0,0.0,0.0,0.0,0.0,0.0,0.0,0.0,0.0,0.0,-3.703,-3.7077,-3.767,-3.8341,-3.8918,-3.9799,-4.0208,-4.0208,-4.1112,-4.1706,-4.2029,-4.2093,-4.2254,-4.2445,-4.2571,-4.2508,-4.2445,-4.2571,-4.2634,-4.2634,-4.2634,0.0,0.0,0.0,0.0,0.0,0.0,0.0,0.0,0.0,0.0,0.0,0.0,0.0,-3.8855,-3.862,-3.7962,-3.7443,-3.7534,-3.7162,-3.6786,-3.6915,-3.7148,-3.6978,-3.571,-3.5426,-3.5061,-3.4191,0.0,0.0,0.0,0.0,0.0,0.0,0.0,0.0,0.0,0.0,0.0,0.0,0.0,0.0,0.0,0.0,0.0,0.0,0.0,0.0,0.0,0.0,0.0,0.0,0.0,0.0,-3.4883,-3.5412,-3.5942,-3.6459,-3.6507,-3.6771,-3.7356,-3.7252,-3.7252,-3.7356,-3.7252,-3.7252,-3.724,-3.7308,-3.7585,-3.7878,-3.7453,-3.6922,-3.6338,-3.6404,-3.6379,-3.6493,0.0,0.0,0.0,0.0,0.0,0.0,0.0,0.0,0.0,0.0,0.0,0.0,0.0,0.0,0.0,0.0,0.0,0.0,0.0,0.0,-3.6987,-3.7296,-3.7607,-3.8242,-3.9307,-3.9966,-4.0491,-4.0931,-4.1396,-4.1785,-4.2109,-4.2109,-4.2238,-4.2508,-4.2571,-4.2571,-4.2508,-4.2508,-4.2508,-4.2445,-4.2302,-4.2302,0.0,0.0,0.0,0.0,0.0,0.0,0.0,0.0,-4.01,-3.955,0.0,-3.8708,-3.8217,-3.781,-3.7519,-3.7303,-3.7226,-3.6652,-3.6097,-3.6031,-3.5602,0.0,0.0,-3.4441,-3.3927,-3.2846,-3.2513,0.0,0.0,0.0,0.0,0.0,0.0,0.0,0.0,0.0,0.0,0.0,0.0,0.0,0.0,0.0,0.0,0.0,0.0,0.0,0.0,0.0,0.0,0.0,0.0,0.0,0.0,-3.5028,-3.5388,-3.5918,-3.6242,-3.6675,-3.7192,-3.7192,-3.7372,-3.7685,-3.7685,-3.7685,-3.7661,-3.7324,-3.7312,-3.7433,-3.6904,-3.6579,-3.6411,-3.6411,-3.6411,-3.6411,0.0,0.0,0.0,0.0,0.0,0.0,0.0,0.0,0.0,0.0,0.0,0.0,0.0,0.0,0.0,0.0,0.0,0.0,0.0,-3.6662,-3.6816,-3.7169,-3.7295,-3.7944,-3.917,-3.9582,-4.0282,-4.1122,-4.1323,-4.1588,-4.1916,-4.1916,-4.2125,-4.2397,-4.2397,-4.2397,-4.2381,-4.2254,-4.2254,-4.2302,-4.2174,-4.198,0.0,0.0,0.0,0.0,0.0,0.0,0.0,0.0,-3.9118,0.0,0.0,0.0,0.0,0.0,-3.6978,-3.673,-3.6652,-3.591,-3.5237,-3.5114,0.0,0.0,-3.3771,-3.353,-3.3031,-3.1925,-3.1805,-3.225,-3.3332,0.0,0.0,0.0,0.0,0.0,0.0,0.0,0.0,0.0,0.0,0.0,0.0,0.0,0.0,0.0,0.0,0.0,0.0,0.0,0.0,0.0,0.0,0.0,0.0,-3.5076,-3.534,-3.5869,-3.623,-3.6675,-3.7192,-3.7192,-3.7385,-3.7733,-3.7733,-3.7733,-3.7709,-3.7336,-3.7288,-3.7409,-3.7048,-3.6904,-3.6904,-3.6904,-3.6904,-3.6904,0.0,0.0,0.0,0.0,0.0,0.0,0.0,0.0,0.0,0.0,0.0,0.0,0.0,0.0,0.0,0.0,0.0,0.0,-3.6492,-3.6492,-3.6492,-3.6492,-3.6492,-3.7138,-3.8477,-3.8719,-3.9451,-4.0799,-4.1034,-4.1288,-4.1588,-4.1588,-4.1736,-4.1898,-4.1898,-4.1898,-4.1898,-4.1914,-4.1947,-4.2109,-4.2109,-4.1754,-4.1276,0.0,0.0,0.0,0.0,0.0,0.0,0.0,-3.8472,-3.8323,0.0,0.0,0.0,-3.707,-3.6401,-3.5669,-3.5669,-3.4979,-3.4306,-3.4306,0.0,0.0,-3.3164,-3.2859,-3.255,-3.1849,-3.2118,-3.2827,-3.3849,0.0,0.0,0.0,0.0,0.0,0.0,0.0,0.0,0.0,0.0,0.0,0.0,0.0,0.0,0.0,0.0,0.0,0.0,0.0,0.0,0.0,0.0,0.0,0.0,-3.5629,-3.5893,-3.6411,-3.6411,-3.6687,-3.7192,-3.7192,-3.7192,-3.7204,-3.7204,-3.7204,-3.7204,-3.7204,-3.7505,-3.7986,-3.7986,-3.7986,-3.7986,-3.7986,-3.7986,-3.7986,0.0,0.0,0.0,0.0,0.0,0.0,0.0,0.0,0.0,0.0,0.0,0.0,0.0,0.0,0.0,0.0,0.0,0.0,-3.6492,-3.6492,-3.6492,-3.6492,-3.6953,-3.7615,-3.8492,-3.9498,-4.0344,-4.1034,-4.1034,-4.1221,-4.139,-4.1522,-4.1654,-4.167,-4.1833,-4.1833,-4.167,-4.1538,-4.1522,-4.1507,-4.0956,-4.0684,-4.0478,0.0,0.0,0.0,0.0,0.0,0.0,0.0,0.0,0.0,0.0,0.0,0.0,-3.707,-3.6401,-3.5669,-3.5669,-3.4568,0.0,-3.3395,0.0,0.0,0.0,-3.2734,0.0,0.0,-3.2935,-3.326,-3.3921,0.0,0.0,0.0,0.0,0.0,0.0,0.0,0.0,0.0,0.0,0.0,0.0,0.0,0.0,0.0,0.0,0.0,0.0,0.0,0.0,0.0,0.0,0.0,0.0,0.0,-3.6435,-3.6952,-3.6952,-3.7048,-3.7192,-3.7192,-3.7397,-3.7745,-3.7745,-3.7745,-3.7745,-3.7745,-3.7841,-3.7986,-3.7986,-3.7986,-3.7986,-3.7986,-3.7986,-3.7986,0.0,0.0,0.0,0.0,0.0,0.0,0.0,0.0,0.0,0.0,0.0,0.0,0.0,0.0,0.0,0.0,0.0,0.0,0.0,0.0,-3.6615,-3.6892,-3.7277,-3.7938,-3.8893,-3.9917,-4.0539,-4.0898,-4.0898,-4.095,-4.1122,-4.1256,-4.1323,-4.1406,-4.1421,-4.1339,-4.1039,-4.082,-4.0668,-4.0462,-4.0045,-3.9692,-3.9493,0.0,0.0,0.0,0.0,0.0,0.0,0.0,0.0,0.0,0.0,0.0,0.0,-3.7004,-3.6022,-3.505,-3.4716,-3.3577,0.0,-3.2488,-3.2077,-3.1721,-3.1949,0.0,0.0,0.0,0.0,-3.3741,0.0,0.0,0.0,0.0,0.0,0.0,0.0,0.0,0.0,0.0,0.0,0.0,0.0,0.0,0.0,0.0,0.0,0.0,0.0,0.0,0.0,0.0,0.0,0.0,0.0,0.0,0.0,-3.7505,-3.7505,-3.7505,-3.7505,-3.7505,-3.7685,-3.7986,-3.7986,-3.7986,-3.7986,-3.7986,-3.7986,-3.7986,-3.7986,-3.7986,-3.7986,-3.7986,-3.7986,-3.7986,0.0,0.0,0.0,0.0,0.0,0.0,0.0,0.0,0.0,0.0,-3.2561,0.0,0.0,0.0,0.0,0.0,0.0,0.0,0.0,0.0,-3.6846,-3.7477,-3.7615,-3.8292,-3.9518,-4.0025,-4.0331,-4.0455,-4.0455,-4.0593,-4.0799,-4.0799,-4.0882,-4.1034,-4.0882,-4.0578,-4.0146,-3.9975,-3.9606,-3.9247,-3.916,-3.8884,-3.8397,-3.8188,0.0,0.0,0.0,0.0,0.0,0.0,0.0,0.0,-3.8779,-3.8339,-3.7617,-3.6795,-3.5404,-3.3983,-3.3293,-3.2363,0.0,-3.1661,-3.1661,0.0,-3.2129,-3.2309,-3.2524,-3.3248,0.0,0.0,0.0,0.0,0.0,0.0,0.0,0.0,0.0,0.0,0.0,0.0,0.0,0.0,0.0,0.0,0.0,0.0,0.0,0.0,0.0,0.0,0.0,0.0,0.0,0.0,0.0,0.0,0.0,0.0,-3.7986,-3.7986,-3.7986,-3.7986,-3.7986,-3.7986,-3.7986,-3.7986,-3.7986,-3.7986,-3.7986,-3.7986,-3.7986,-3.7986,-3.7986,-3.7986,-3.7986,-3.7986,0.0,0.0,0.0,0.0,0.0,0.0,0.0,0.0,0.0,0.0,0.0,0.0,0.0,0.0,0.0,0.0,0.0,0.0,0.0,0.0,-3.7195,-3.7492,-3.8376,-3.9259,-4.0102,-4.027,-4.0331,-4.0331,-4.047,-4.0524,-4.0593,-4.073,-4.073,-4.0593,-4.073,-4.0455,-3.9809,-3.9753,-3.9451,-3.8855,-3.8397,-3.8098,-3.7947,-3.7429,-3.7211,0.0,0.0,0.0,0.0,0.0,0.0,0.0,-3.8173,-3.7642,-3.7093,-3.6532,-3.5227,-3.3822,-3.3696,-3.2671,0.0,0.0,-3.1395,-3.0972,-3.0512,-3.0682,-3.1483,-3.347,0.0,0.0,0.0,0.0,0.0,0.0,0.0,0.0,0.0,0.0,0.0,0.0,0.0,0.0,0.0,0.0,0.0,0.0,0.0,0.0,0.0,0.0,0.0,0.0,0.0,0.0,-3.7074,-3.7606,-3.7878,0.0,-3.7986,-3.7986,-3.7986,-3.7986,-3.7986,-3.7986,-3.7986,-3.7986,-3.7986,-3.7986,-3.7986,-3.7986,-3.7986,-3.7986,-3.7986,-3.7986,-3.7986,-3.7986,0.0,0.0,0.0,0.0,0.0,0.0,0.0,0.0,0.0,0.0,0.0,0.0,0.0,0.0,0.0,0.0,0.0,0.0,0.0,0.0,0.0,-3.8198,-3.8971,-3.9671,-4.0137,-4.0051,-4.0121,-4.0277,-4.0401,-4.047,-4.0524,-4.0593,-4.0455,-4.0106,-4.0246,-3.9737,-3.8855,-3.8855,-3.8486,-3.7886,-3.7582,-3.7443,-3.7429,-3.7134,-3.6915,-3.6892,-3.7158,0.0,0.0,0.0,0.0,0.0,0.0,0.0,-3.6854,-3.6135,-3.4855,-3.3584,-3.3248,0.0,0.0,-3.1661,0.0,-3.1026,-3.0181,-3.0379,-3.106,0.0,0.0,0.0,0.0,0.0,0.0,0.0,0.0,0.0,0.0,0.0,0.0,0.0,0.0,0.0,0.0,0.0,0.0,0.0,0.0,0.0,0.0,0.0,0.0,0.0,0.0,0.0,-3.7131,-3.7667,-3.7986,-3.7986,-3.7986,-3.7986,-3.7986,-3.7986,-3.7986,-3.7986,-3.7986,-3.7986,-3.7986,-3.7986,-3.7986,-3.7986,-3.7986,-3.7986,-3.7986,-3.7986,-3.7986,-3.7986,0.0,0.0,0.0,0.0,0.0,0.0,0.0,0.0,0.0,0.0,0.0,0.0,0.0,0.0,0.0,0.0,0.0,0.0,0.0,0.0,0.0,0.0,-3.9405,-3.9768,-3.9854,-3.9625,-3.9753,-4.0207,-4.0121,-4.0246,-4.0455,-4.0385,-4.0106,-3.9696,-3.961,-3.8929,-3.7886,-3.7886,-3.7582,-3.6978,-3.6978,-3.6993,-3.6915,-3.6915,-3.6772,-3.6605,-3.709,-3.7496,-3.7783,-3.8016,0.0,0.0,0.0,0.0,-3.6739,-3.5699,-3.457,-3.3453,-3.2846,0.0,-3.1661,-3.1472,-3.1383,0.0,-2.9897,-3.0086,0.0,0.0,0.0,0.0,0.0,0.0,0.0,0.0,0.0,0.0,0.0,0.0,0.0,0.0,0.0,0.0,0.0,0.0,0.0,0.0,0.0,0.0,0.0,0.0,0.0,0.0,0.0,-3.6337,-3.6873,-3.7392,-3.7709,-3.7709,-3.7709,-3.7709,-3.7709,-3.7709,-3.7805,-3.7986,-3.7986,-3.7986,-3.7986,-3.7986,-3.7986,-3.7974,-3.7878,-3.7841,-3.7829,-3.7745,-3.7709,-3.7709,0.0,0.0,0.0,0.0,0.0,0.0,0.0,0.0,0.0,0.0,0.0,0.0,0.0,0.0,0.0,0.0,0.0,0.0,-3.489,0.0,0.0,-3.8432,-3.9249,-3.9538,-3.925,-3.9017,-3.9235,-3.9768,-3.9565,-3.9707,-4.0347,-3.998,-3.9753,-3.9696,-3.9162,-3.856,-3.7886,-3.7886,-3.7582,-3.6978,-3.6978,-3.6929,-3.6707,-3.6707,-3.6377,-3.5804,-3.5885,-3.5939,-3.6085,-3.6796,-3.6946,0.0,0.0,0.0,-3.6048,-3.5414,-3.4326,-3.3365,-3.32,0.0,-3.1472,0.0,-3.0102,-2.9382,0.0,0.0,0.0,0.0,0.0,0.0,0.0,0.0,0.0,0.0,0.0,0.0,0.0,0.0,0.0,0.0,0.0,0.0,0.0,0.0,0.0,0.0,0.0,0.0,0.0,0.0,-3.2972,-3.3922,-3.4573,0.0,-3.5827,-3.6319,-3.6615,-3.6615,-3.6615,-3.6615,-3.6615,-3.6615,-3.712,-3.7986,-3.7986,-3.7986,-3.7986,-3.7986,-3.7986,-3.7938,-3.7481,-3.73,-3.724,-3.6783,-3.6615,-3.6615,0.0,0.0,0.0,0.0,0.0,0.0,0.0,0.0,0.0,0.0,0.0,0.0,0.0,0.0,0.0,-3.2588,-3.3129,-3.3884,-3.4947,-3.579,-3.6623,-3.7549,-3.7872,-3.8106,-3.8248,-3.8173,-3.8323,-3.8708,-3.8531,-3.8752,-3.9292,-3.8767,-3.8782,-3.9162,-3.856,-3.7962,-3.7366,-3.7366,-3.7211,-3.6978,-3.685,-3.6522,-3.6111,-3.6045,-3.5467,-3.4786,-3.4786,-3.4905,-3.5089,-3.5115,-3.5519,-3.5897,-3.5712,0.0,0.0,0.0,-3.3956,-3.3059,-3.1875,-3.1176,-3.0633,0.0,-2.9154,-2.8702,-2.7105,0.0,0.0,0.0,0.0,0.0,0.0,0.0,0.0,0.0,0.0,0.0,0.0,0.0,0.0,0.0,0.0,0.0,0.0,0.0,0.0,0.0,0.0,0.0,0.0,-3.2531,-3.3086,-3.3518,-3.4624,0.0,-3.5627,-3.6105,-3.6411,-3.6411,-3.6411,-3.6242,-3.5966,-3.5966,-3.6374,-3.7084,-3.6783,-3.6663,-3.6627,-3.6338,-3.6218,-3.6194,-3.5954,-3.5869,-3.5845,-3.5605,-3.5521,-3.5521,0.0,0.0,0.0,0.0,0.0,0.0,0.0,0.0,0.0,0.0,0.0,0.0,0.0,0.0,0.0,0.0,-3.2574,-3.3395,-3.4581,-3.4753,-3.5339,-3.6442,-3.6628,-3.6925,-3.7414,-3.7429,-3.7505,-3.781,-3.772,-3.7872,-3.8323,-3.7872,-3.7872,-3.8412,-3.7886,-3.7366,-3.6915,-3.6915,-3.6915,-3.6836,-3.6536,-3.6031,-3.5507,-3.5127,-3.4454,-3.3784,-3.3784,-3.3798,-3.3933,-3.3759,-3.4167,-3.4656,-3.4271,-3.4411,0.0,0.0,0.0,-3.2587,0.0,0.0,-2.9897,-2.8866,-2.8495,-2.8028,0.0,0.0,0.0,0.0,0.0,0.0,0.0,0.0,0.0,0.0,0.0,0.0,0.0,0.0,0.0,0.0,0.0,0.0,0.0,0.0,0.0,0.0,0.0,0.0,-3.1823,-3.2585,-3.3094,-3.3413,-3.4609,-3.5227,-3.5431,-3.5812,-3.6002,-3.6002,-3.6002,-3.5797,-3.5412,-3.528,-3.5425,-3.5797,-3.5533,-3.5425,-3.5388,-3.4992,-3.4823,-3.4811,-3.4679,-3.4631,-3.4619,-3.4487,-3.4438,-3.4438,0.0,0.0,0.0,0.0,0.0,0.0,0.0,0.0,0.0,0.0,0.0,0.0,-3.1071,-3.1233,-3.1542,-3.2169,-3.2359,-3.2717,-3.3312,-3.4299,-3.4939,-3.5166,-3.6177,0.0,-3.7042,-3.6822,-3.7042,-3.7644,-3.7169,-3.7246,-3.7962,-3.772,-3.7505,-3.738,-3.7148,-3.6915,-3.6721,-3.6721,-3.6642,-3.6391,-3.5737,-3.5304,-3.495,-3.4288,-3.3615,-3.3031,-3.3031,-3.2636,-3.2235,-3.3027,-3.2979,-3.275,-3.3417,-3.3518,-3.3356,0.0,0.0,0.0,-3.1449,-3.0554,0.0,-2.8598,-2.7757,0.0,0.0,0.0,0.0,0.0,0.0,0.0,0.0,0.0,0.0,0.0,0.0,0.0,0.0,0.0,0.0,0.0,0.0,0.0,0.0,0.0,0.0,0.0,0.0,0.0,-3.2308,-3.2443,-3.2869,-3.3878,-3.4012,-3.432,-3.481,-3.4907,-3.4907,-3.4907,-3.4907,-3.4895,-3.4847,-3.4354,-3.4138,-3.4186,-3.4667,-3.4871,-3.4871,-3.4835,-3.4823,-3.4775,-3.4282,-3.4078,-3.403,-3.3549,-3.3368,-3.3368,0.0,0.0,0.0,0.0,0.0,0.0,0.0,0.0,0.0,0.0,0.0,0.0,0.0,-3.0771,-3.1307,-3.1542,-3.1996,-3.2372,-3.2704,-3.3356,-3.3979,-3.4527,-3.512,-3.5714,-3.6177,-3.6111,-3.6177,-3.6415,-3.6177,-3.635,-3.6758,-3.6679,-3.6693,-3.6693,-3.6772,-3.6707,-3.6484,-3.6484,0.0,0.0,0.0,-3.4607,-3.3674,-3.3288,-3.2785,0.0,0.0,0.0,0.0,-3.2156,-3.2381,-3.2539,-3.281,-3.31,-3.3119,-3.2101,-3.0951,-2.9746,-2.8921,-2.8402,0.0,-2.6839,-2.6466,0.0,0.0,0.0,0.0,0.0,0.0,0.0,0.0,0.0,0.0,0.0,0.0,0.0,0.0,0.0,0.0,0.0,0.0,0.0,0.0,0.0,0.0,0.0,0.0,0.0,-3.2409,-3.2734,-3.3086,-3.3461,-3.3837,-3.4126,-3.4318,-3.4655,-3.4823,-3.4823,-3.4823,-3.4643,-3.4318,-3.4126,-3.3873,-3.3549,-3.3404,-3.3332,-3.3308,-3.2947,-3.2803,-3.2779,-3.2587,-3.2515,-3.2491,-3.231,-3.2238,-3.2238,0.0,0.0,0.0,0.0,0.0,0.0,0.0,0.0,0.0,-2.8268,0.0,0.0,0.0,0.0,-3.0771,-3.1145,-3.1776,-3.2241,-3.2359,-3.2608,-3.3111,-3.3772,-3.4308,-3.4828,-3.5411,-3.5425,-3.552,0.0,0.0,-3.5614,-3.5992,-3.6072,-3.5992,-3.5804,-3.5839,-3.5867,-3.5965,0.0,0.0,-3.4799,0.0,0.0,-3.2846,0.0,0.0,0.0,0.0,0.0,0.0,0.0,0.0,-3.126,-3.126,-3.1505,-3.1519,-3.0512,-2.9409,-2.8402,-2.7746,-2.7389,0.0,0.0,0.0,0.0,0.0,0.0,0.0,0.0,0.0,0.0,0.0,0.0,0.0,0.0,0.0,0.0,0.0,0.0,0.0,0.0,0.0,0.0,0.0,0.0,0.0,0.0,0.0,0.0,-3.2126,-3.2533,-3.2885,-3.322,-3.3756,-3.4042,-3.4042,-3.4559,-3.4823,-3.4823,-3.4823,-3.4643,-3.4294,-3.4114,-3.3861,-3.3513,-3.2996,-3.2671,-3.2454,-3.1889,-3.1661,-3.1661,-3.1661,-3.1661,-3.1661,-3.1661,-3.1661,-3.1661,0.0,0.0,0.0,0.0,0.0,0.0,0.0,0.0,-2.9263,-2.8882,0.0,0.0,0.0,0.0,0.0,-3.1123,-3.183,-3.2223,-3.2223,-3.2236,-3.2508,-3.3091,-3.3715,-3.4299,-3.4763,-3.4776,-3.514,0.0,0.0,0.0,0.0,0.0,-3.5548,-3.4664,-3.4312,-3.4446,-3.4897,0.0,-3.4415,-3.3615,0.0,-3.2698,-3.2537,0.0,0.0,0.0,-3.0543,-3.017,0.0,-2.905,0.0,0.0,0.0,-2.868,-2.868,-2.868,-2.8402,-2.8226,0.0,0.0,0.0,0.0,0.0,0.0,0.0,0.0,0.0,0.0,0.0,0.0,0.0,0.0,0.0,0.0,0.0,0.0,0.0,0.0,0.0,0.0,0.0,0.0,0.0,0.0,0.0,0.0,0.0,-3.0685,-3.1636,-3.172,-3.2206,-3.3284,-3.3765,-3.403,-3.4042,-3.4559,-3.4823,-3.4823,-3.4823,-3.4823,-3.4811,-3.4294,-3.4066,-3.403,-3.3537,-3.302,-3.2503,-3.1925,-3.1673,-3.1661,-3.1661,-3.1661,-3.1661,-3.1661,-3.1661,-3.1661,0.0,0.0,0.0,0.0,0.0,0.0,0.0,-2.8736,-2.8736,0.0,0.0,0.0,-2.8736,-2.9462,-3.047,-3.1575,-3.1863,-3.2176,-3.2641,-3.2987,-3.3462,-3.4106,-3.4526,-3.4835,-3.4995,-3.5157,-3.5319,0.0,0.0,0.0,0.0,0.0,0.0,0.0,-3.313,-3.2478,-3.2225,-3.2701,0.0,-3.2416,-3.2174,-3.1624,0.0,0.0,0.0,0.0,0.0,-2.9143,-2.905,0.0,-2.868,-2.868,0.0,-2.8215,-2.7652,-2.7652,-2.702,-2.638,-2.638,0.0,0.0,0.0,0.0,0.0,0.0,0.0,0.0,0.0,0.0,0.0,0.0,0.0,0.0,0.0,0.0,0.0,0.0,0.0,0.0,0.0,0.0,0.0,0.0,0.0,0.0,0.0,0.0,-3.154,-3.2206,-3.2252,-3.2599,-3.3272,-3.3428,-3.3669,-3.4042,-3.4559,-3.4823,-3.4823,-3.4823,-3.4823,-3.4823,-3.4679,-3.4607,-3.4583,-3.4054,-3.3753,-3.3549,-3.2647,-3.2034,-3.1661,-3.1661,-3.1661,-3.1661,-3.1661,-3.1661,-3.1661,0.0,0.0,0.0,0.0,0.0,0.0,-2.8736,-2.8657,-2.8657,0.0,0.0,0.0,-2.8811,-2.9861,-3.0779,-3.1498,-3.1754,-3.2008,-3.2329,-3.2652,-3.2927,-3.3075,-3.3799,-3.4101,-3.4031,-3.436,-3.4561,0.0,0.0,0.0,0.0,0.0,0.0,0.0,0.0,0.0,0.0,0.0,0.0,0.0,-3.0906,0.0,0.0,-2.9625,-2.9235,0.0,0.0,0.0,-2.8028,-2.7568,-2.7484,0.0,0.0,0.0,-2.6552,-2.6552,-2.6187,-2.5742,-2.5742,-2.5742,-2.5742,0.0,0.0,0.0,0.0,-2.5742,0.0,0.0,0.0,0.0,0.0,0.0,0.0,0.0,0.0,0.0,0.0,0.0,0.0,0.0,0.0,0.0,0.0,0.0,0.0,0.0,-3.11,-3.1286,-3.1842,-3.2027,-3.2298,-3.2599,-3.2839,-3.3104,-3.3392,-3.3921,-3.4186,-3.4186,-3.4186,-3.4186,-3.4198,-3.4402,-3.4499,-3.4499,-3.4402,-3.4246,-3.3982,-3.3164,-3.2503,-3.1985,-3.1757,-3.1661,-3.1661,-3.1661,-3.1661,-3.1661,0.0,0.0,0.0,0.0,0.0,0.0,0.0,-2.8882,-2.8803,0.0,-2.8852,-2.904,-2.9412,-3.0367,-3.0993,-3.1054,-3.1549,-3.1876,-3.1726,-3.1876,-3.1782,-3.1455,-3.2333,-3.2695,-3.2541,-3.3135,-3.3328,0.0,0.0,0.0,0.0,0.0,0.0,0.0,0.0,0.0,0.0,0.0,0.0,-2.9702,-2.9462,-2.919,0.0,0.0,-2.8495,0.0,-2.7379,-2.6999,-2.6914,-2.6004,-2.5742,0.0,0.0,0.0,0.0,0.0,-2.5742,-2.5742,-2.5742,-2.5742,-2.5742,0.0,0.0,0.0,-2.5742,-2.5742,0.0,0.0,0.0,0.0,0.0,0.0,0.0,0.0,0.0,0.0,0.0,0.0,0.0,0.0,0.0,0.0,0.0,0.0,0.0,-3.0397,-3.0397,-3.0578,-3.0949,-3.1484,-3.1697,-3.1757,-3.2238,-3.2527,-3.2587,-3.3056,-3.3284,-3.3284,-3.3284,-3.3284,-3.3308,-3.3753,-3.3958,-3.3982,-3.4451,-3.439,-3.3921,-3.3416,-3.2923,-3.2442,-3.1889,-3.1661,-3.1661,-3.1661,-3.1661,-3.1661,-2.8112,0.0,0.0,0.0,0.0,0.0,0.0,-2.8736,-2.8724,-2.8578,-2.8952,-2.9591,-3.0458,-3.0822,-3.1051,-3.1487,-3.1697,-3.1945,-3.2473,-3.24,-3.2486,-3.2984,-3.2988,-3.2867,-3.2635,-3.294,-3.2751,0.0,0.0,0.0,0.0,0.0,0.0,0.0,0.0,0.0,0.0,0.0,0.0,-2.7529,-2.8362,0.0,-2.7204,-2.739,-2.701,-2.6294,-2.61,-2.6014,-2.5917,0.0,-2.5742,-2.5742,0.0,0.0,0.0,-2.5742,0.0,0.0,0.0,0.0,0.0,0.0,0.0,0.0,-2.5742,-2.5742,-2.5742,0.0,0.0,0.0,0.0,0.0,0.0,0.0,0.0,0.0,0.0,0.0,0.0,0.0,0.0,0.0,0.0,0.0,-3.1395,-3.1395,-3.1395,-3.1484,-3.1572,-3.1661,-3.1865,-3.2322,-3.2442,-3.2707,-3.3128,-3.3236,-3.3284,-3.3284,-3.3284,-3.3284,-3.3284,-3.3392,-3.344,-3.344,-3.3549,-3.3537,-3.3392,-3.2863,-3.2599,-3.2442,-3.1889,-3.1661,-3.1661,-3.1661,-3.1661,-3.1661,-2.8371,0.0,0.0,0.0,0.0,0.0,0.0,0.0,-2.8155,-2.8339,-2.8886,-2.9496,-2.9942,-3.0384,-3.0802,-3.1089,-3.134,-3.1661,-3.2013,-3.2025,-3.2113,-3.2189,-3.2176,-3.2089,-3.1849,-3.1907,-3.1614,0.0,0.0,0.0,0.0,0.0,0.0,0.0,0.0,0.0,0.0,0.0,-2.6069,-2.5717,-2.6519,0.0,-2.6237,-2.6131,-2.5998,-2.5635,-2.5118,-2.451,-2.4106,-2.4106,-2.4412,0.0,0.0,-2.5226,-2.5742,0.0,-2.5742,-2.5742,0.0,0.0,0.0,-2.5742,0.0,0.0,0.0,-2.5742,-2.5742,0.0,0.0,0.0,0.0,0.0,0.0,0.0,0.0,0.0,0.0,0.0,0.0,0.0,0.0,0.0,0.0,0.0,-3.1661,-3.1661,-3.1661,-3.1661,-3.1661,-3.1661,-3.1793,-3.207,-3.2082,-3.2214,-3.2478,-3.2478,-3.2478,-3.2478,-3.2478,-3.2478,-3.2491,-3.2767,-3.2899,-3.2911,-3.3176,-3.3284,-3.3248,-3.2719,-3.2503,-3.2442,-3.1889,-3.1661,-3.1661,-3.1661,-3.1661,-3.1661,-2.8351,-2.851,0.0,0.0,0.0,0.0,0.0,0.0,-2.78,-2.8241,-2.8784,-2.9176,-2.9094,-2.9867,-3.039,-3.0414,-3.087,-3.1044,-3.1151,-3.134,-3.1252,-3.0819,-3.0986,-3.0938,-3.0678,-3.0604,-3.0146,-2.9433,0.0,0.0,0.0,0.0,0.0,0.0,0.0,0.0,0.0,0.0,0.0,-2.4454,0.0,-2.5084,-2.5543,-2.5174,-2.5246,-2.5226,-2.4196,-2.3285,-2.2492,-2.2584,0.0,-2.4088,-2.4196,-2.4913,0.0,0.0,0.0,0.0,0.0,0.0,0.0,0.0,0.0,-2.5742,0.0,0.0,0.0,0.0,0.0,0.0,0.0,0.0,0.0,0.0,0.0,0.0,0.0,0.0,0.0,0.0,0.0,0.0,0.0,0.0,-3.1661,-3.1661,-3.1661,-3.1661,-3.1661,-3.1661,-3.1661,-3.1661,-3.1661,-3.1661,-3.1661,-3.1661,-3.1661,-3.1661,-3.1472,-3.1472,-3.1673,-3.1938,-3.2153,-3.237,-3.2791,-3.2984,-3.2947,-3.2515,-3.2346,-3.2298,-3.1841,-3.1661,-3.1661,-3.1661,-3.1661,-3.1661,-2.8351,-2.851,-2.8431,0.0,0.0,0.0,0.0,0.0,-2.8265,-2.8586,-2.8704,-2.8905,-2.9341,-2.9687,-2.9867,-2.9867,-3.0073,0.0,-3.0581,0.0,-3.0517,-3.0255,-3.0343,-3.0055,-2.9351,-2.9293,-2.8939,-2.8234,0.0,0.0,0.0,0.0,0.0,0.0,-2.6528,0.0,0.0,0.0,-2.4327,0.0,-2.4048,-2.4215,0.0,-2.4996,-2.4736,-2.4097,-2.3094,-2.2584,-2.2584,0.0,-2.3393,-2.4097,0.0,-2.503,-2.5635,-2.544,0.0,0.0,0.0,0.0,0.0,0.0,-2.5538,0.0,0.0,0.0,0.0,0.0,0.0,0.0,0.0,0.0,0.0,0.0,0.0,0.0,0.0,0.0,0.0,0.0,0.0,0.0,0.0,0.0,0.0,-3.1661,-3.1484,-3.1484,-3.1661,-3.1661,-3.1661,-3.1661,-3.1661,-3.1661,-3.1661,-3.1661,-3.1661,-3.1661,-3.0824,-3.0824,-3.1661,-3.0883,-3.0918,-3.1757,-3.1829,-3.1853,-3.1841,-3.1793,-3.1757,-3.1757,-3.1685,-3.1661,-3.1661,-3.1661,-3.1661,-3.1661,-2.8431,-2.8431,-2.8339,0.0,0.0,0.0,0.0,0.0,-2.8316,-2.8467,-2.8843,-2.9101,-2.9203,0.0,0.0,-3.004,0.0,-3.0351,0.0,0.0,-3.0138,-3.0237,-2.9804,-2.9386,-2.909,-2.8715,-2.828,-2.7977,-2.769,0.0,0.0,0.0,0.0,0.0,-2.5779,0.0,-2.4317,0.0,-2.356,0.0,0.0,0.0,0.0,-2.4222,-2.3349,-2.219,-2.1684,-2.1183,-2.0688,0.0,-2.1628,0.0,0.0,0.0,0.0,0.0,0.0,0.0,0.0,0.0,0.0,0.0,0.0,0.0,-2.544,0.0,-2.5538,0.0,0.0,0.0,0.0,0.0,0.0,0.0,0.0,0.0,0.0,0.0,0.0,0.0,0.0,0.0,0.0,0.0,0.0,0.0,0.0,-3.1395,-3.1661,-3.1661,-3.1661,-3.1661,-3.1661,-3.1661,-3.1661,-3.1661,-3.1661,-3.1661,-3.1294,-3.1015,-3.0824,-3.1003,-3.1003,-3.0824,-3.1472,-3.1661,-3.1661,-3.1661,-3.1661,-3.1661,-3.1661,-3.1661,-3.1661,-3.1661,-3.1661,-3.1661,-2.8419,-2.8339,-2.8179,0.0,0.0,0.0,0.0,0.0,0.0,0.0,0.0,0.0,-2.8773,-2.93,0.0,0.0,-3.006,-3.0383,0.0,0.0,-2.991,0.0,0.0,0.0,0.0,-2.805,-2.7782,-2.7782,0.0,0.0,0.0,0.0,0.0,0.0,0.0,-2.4337,-2.3396,0.0,0.0,-2.3096,-2.3371,-2.3521,-2.3444,-2.3257,-2.2252,-2.0885,-2.0585,-1.9983,-1.9272,-1.9376,-2.0246,0.0,-2.1067,0.0,0.0,0.0,0.0,0.0,-2.4332,0.0,0.0,0.0,0.0,0.0,0.0,0.0,0.0,0.0,0.0,0.0,0.0,0.0,0.0,0.0,0.0,0.0,0.0,0.0,0.0,0.0,0.0,0.0,0.0,0.0,0.0,0.0,-3.1407,0.0,-3.1661,-3.1661,-3.1661,-3.1661,-3.1661,-3.1661,-3.1661,-3.1661,-3.156,-3.1282,-3.1282,-3.0734,-2.9795,-3.0543,-3.0633,-3.026,-3.1003,-3.1472,-3.1661,-3.1661,-3.1661,-3.1661,-3.1661,-3.1661,-3.1661,-3.1661,-3.1661,-3.1661,-2.8179,-2.8179,-2.8087,0.0,0.0,0.0,0.0,0.0,0.0,0.0,0.0,0.0,0.0,0.0,0.0,0.0,0.0,-3.018,-3.0196,0.0,-2.9875,0.0,0.0,-2.8326,0.0,0.0,-2.7254,-2.7254,0.0,0.0,0.0,0.0,0.0,0.0,0.0,-2.4251,-2.4155,-2.3396,-2.3135,-2.3115,-2.2935,-2.2082,-2.1151,0.0,-2.1878,-2.0783,-1.968,0.0,0.0,-1.9576,-2.0189,0.0,0.0,0.0,0.0,0.0,0.0,0.0,0.0,0.0,0.0,-2.4332,0.0,0.0,0.0,0.0,-2.5333,0.0,0.0,0.0,0.0,0.0,-2.6058,-2.7073,-2.7679,0.0,0.0,0.0,0.0,0.0,0.0,0.0,0.0,0.0,0.0,0.0,-3.1151,0.0,-3.1661,-3.1661,-3.1661,-3.1661,-3.1661,-3.1661,-3.1661,-3.1661,-3.1193,-3.026,-3.026,-2.9704,-2.8773,-2.8773,-2.9326,-3.017,-3.026,-3.0824,-3.1661,-3.1661,-3.1661,-3.1661,-3.1661,-3.1661,-3.1661,-3.1661,-3.1661,-3.1661,-2.8179,-2.8179,-2.8018,0.0,0.0,0.0,0.0,-2.8505,0.0,0.0,0.0,0.0,0.0,-3.025,-3.0531,0.0,0.0,-3.0497,-3.0678,-3.0055,0.0,0.0,0.0,-2.8142,0.0,0.0,0.0,0.0,0.0,0.0,0.0,0.0,0.0,0.0,0.0,-2.3907,0.0,0.0,0.0,0.0,0.0,-2.2735,-2.1988,0.0,0.0,-1.9776,-1.948,-1.9279,0.0,-1.9376,-1.9725,-2.0174,-2.0051,-2.0638,-2.1498,-2.1154,-2.1395,0.0,0.0,0.0,-2.3728,-2.4332,0.0,0.0,0.0,0.0,0.0,0.0,0.0,0.0,0.0,-2.5742,-2.6157,-2.7494,-2.7505,-2.7828,0.0,0.0,0.0,0.0,0.0,0.0,0.0,0.0,0.0,-3.0807,-3.1039,-3.1318,0.0,-3.1661,-3.1661,-3.1661,-3.1661,-3.1661,-3.1661,-3.1661,-3.156,-3.1193,-3.0543,-2.9704,-2.8669,-2.9418,-2.9521,-2.9235,-3.0633,-3.1383,-3.1661,-3.1661,-3.1661,-3.1661,-3.1661,-3.1661,-3.1661,-3.1661,-3.1661,-3.1661,-2.7255,0.0,0.0,0.0,0.0,0.0,0.0,0.0,0.0,0.0,-2.953,0.0,-3.0131,0.0,-3.1139,0.0,-3.1085,-3.0961,-3.096,-3.0413,0.0,-2.991,-2.9195,0.0,0.0,0.0,0.0,0.0,0.0,-2.688,0.0,0.0,0.0,0.0,0.0,-2.356,-2.3135,0.0,-2.3389,0.0,0.0,-2.2554,0.0,0.0,-2.0181,0.0,0.0,-1.9279,-1.9279,-1.9279,-1.9411,-1.955,-1.9345,-1.9829,-2.0361,-2.0147,-2.0395,-2.1105,-2.2509,-2.3011,0.0,0.0,-2.4932,0.0,-2.4833,0.0,0.0,0.0,0.0,0.0,0.0,0.0,-2.611,-2.7431,-2.7096,-2.7148,0.0,-2.8494,0.0,0.0,0.0,0.0,0.0,0.0,-2.9544,-3.0087,-3.0208,-3.0555,0.0,0.0,-3.1468,-3.1661,-3.1661,-3.1661,-3.1661,-3.1661,-3.1383,-3.0633,-3.0351,-2.9338,-2.7673,-2.868,-2.8958,-2.8773,-3.0079,-3.1003,-3.1661,-3.1661,-3.1661,-3.1661,-3.1661,-3.1661,-3.1661,-3.1661,-3.1661,-3.1661,0.0,0.0,0.0,0.0,-2.8522,0.0,0.0,0.0,-2.7646,0.0,-2.8288,-2.8735,-2.8746,-3.0175,-3.1205,-3.1217,-3.1383,-3.1407,-3.0883,-3.1128,0.0,0.0,-3.0196,-2.9789,-2.9059,0.0,0.0,0.0,0.0,0.0,0.0,0.0,0.0,0.0,-2.3396,0.0,-2.3135,-2.3076,-2.3349,-2.3735,-2.273,-2.1578,-2.0483,-1.9879,0.0,-1.9279,-1.9279,-1.9279,-1.9279,-1.9279,-1.9279,-1.9279,-1.9279,-1.9279,-1.9279,-1.9279,-1.9376,-1.9783,-2.1582,-2.219,-2.2593,-2.4421,0.0,0.0,0.0,0.0,-2.544,0.0,0.0,0.0,0.0,0.0,0.0,-2.6764,-2.6546,-2.6389,-2.6823,-2.7448,0.0,0.0,0.0,0.0,0.0,-2.8211,-2.8136,-2.9265,-2.8763,-2.9005,0.0,0.0,0.0,-3.1613,-3.1625,-3.1637,-3.1661,-3.1572,-3.0633,-2.8762,-2.9612,-2.8598,-2.5917,-2.6829,-2.7746,-2.868,-2.8762,-2.9886,-3.1661,-3.1661,-3.1661,-3.1661,-3.1661,-3.1661,-3.1661,-3.1661,-3.1661,-3.1572,-2.6102,-2.6259,-2.69,0.0,-2.8942,-2.9412,0.0,0.0,0.0,0.0,-2.8635,-2.8782,-2.9704,-2.9545,-2.9704,-3.0453,-2.9886,0.0,0.0,0.0,0.0,-2.9919,-2.9363,-2.9044,-2.9079,-2.7798,0.0,-2.6216,0.0,0.0,-2.4669,0.0,0.0,0.0,0.0,0.0,-2.3067,-2.3299,-2.3688,-2.4042,-2.2661,-2.2005,0.0,0.0,-1.9376,-1.9279,-1.9279,-1.9279,-1.9279,-1.9279,-1.9279,-1.9279,-1.9279,-1.9279,-1.9279,-1.9279,-1.9879,-2.0783,-2.2089,-2.2985,-2.3899,-2.4932,-2.5342,-2.544,0.0,0.0,0.0,0.0,0.0,0.0,0.0,0.0,0.0,-2.6764,-2.7123,-2.684,-2.5549,0.0,0.0,-2.5801,0.0,0.0,0.0,-2.7656,-2.8126,-2.8103,-2.83,0.0,0.0,0.0,0.0,-3.106,-3.0349,-3.0159,-3.0543,-2.9795,-2.9612,-2.9795,-2.8588,-2.7945,-2.7945,-2.7379,-2.7746,-2.8773,-2.951,-3.0543,-3.1661,-3.1661,-3.1661,-3.1661,-3.1661,-3.1661,-3.1661,-3.1661,-3.1661,-3.1572,-2.5316,0.0,0.0,-2.7506,0.0,0.0,-2.9624,0.0,0.0,-2.8735,-2.8247,0.0,-2.9246,-2.8958,-2.8958,-2.951,-2.905,0.0,-2.8319,0.0,0.0,-2.9154,-2.8887,-2.8643,-2.8544,-2.7646,0.0,-2.5946,0.0,0.0,-2.4155,0.0,0.0,0.0,0.0,-2.3135,0.0,-2.3619,-2.399,-2.4258,-2.3341,0.0,0.0,-2.0585,-1.968,-1.9279,-1.9279,-1.9279,-1.9279,-1.9279,-1.9279,-1.9279,-1.9279,-1.9279,-1.9376,-1.9879,-2.038,-2.1285,-2.2785,-2.3692,-2.4295,-2.5226,-2.5635,-2.5635,-2.5333,-2.544,-2.5635,0.0,0.0,0.0,0.0,0.0,0.0,-2.5575,-2.6104,0.0,0.0,0.0,0.0,0.0,0.0,0.0,0.0,0.0,0.0,0.0,0.0,0.0,0.0,0.0,0.0,0.0,-2.9003,-2.879,-2.9286,-2.8741,-2.8565,-2.8855,-2.7746,-2.7284,-2.7389,-2.6829,-2.7105,-2.8121,-2.868,-2.9418,-3.0351,-3.0351,-3.0351,-3.0351,-3.0351,-3.0351,-3.0351,-3.0351,-3.0633,-3.0913,0.0,0.0,0.0,0.0,0.0,0.0,0.0,-2.7704,0.0,-2.7809,0.0,-2.7378,-2.8134,-2.8376,-2.847,-2.8592,0.0,-2.829,-2.7955,-2.8308,-2.8402,-2.8132,-2.8402,-2.8299,-2.7796,-2.757,-2.696,0.0,0.0,0.0,0.0,0.0,0.0,0.0,0.0,0.0,0.0,-2.4069,-2.439,0.0,-2.4165,-2.3393,-2.219,-2.1387,-2.0483,-1.968,-1.968,-1.9583,-1.9279,-1.9279,-1.9279,-1.9279,-1.9279,-1.9376,-1.968,-2.0585,-2.1081,-2.1684,-2.3583,-2.4196,-2.4501,-2.543,-2.5742,-2.5742,-2.5742,-2.5742,-2.5742,-2.5742,-2.5742,0.0,0.0,0.0,0.0,0.0,0.0,0.0,0.0,0.0,0.0,0.0,0.0,0.0,0.0,0.0,0.0,0.0,0.0,0.0,0.0,0.0,0.0,0.0,-2.7425,0.0,-2.7793,0.0,-2.7445,-2.7096,-2.6968,-2.6648,-2.5917,-2.5917,-2.6466,-2.7369,-2.7568,-2.8121,-2.8866,-2.8866,-2.8866,-2.868,-2.868,-2.868,-2.868,-2.868,-2.9143,-2.9704,0.0,0.0,0.0,0.0,0.0,-2.639,-2.7136,-2.7051,-2.6955,-2.7051,-2.6808,-2.6941,-2.7897,-2.7539,-2.7521,-2.8015,-2.7313,0.0,0.0,0.0,0.0,-2.7379,-2.7463,-2.7432,-2.7348,-2.6734,-2.6011,0.0,0.0,0.0,0.0,0.0,0.0,0.0,0.0,0.0,-2.3852,-2.4381,0.0,-2.473,-2.4097,-2.3619,-2.332,-2.2501,-2.2089,-2.1988,-2.1988,-2.0783,-1.9279,-1.9279,-1.9279,-1.9279,-1.9279,-1.9879,-2.0688,-2.0885,-2.2181,-2.3592,-2.3989,-2.4707,-2.543,-2.5635,-2.5742,-2.5742,-2.5742,-2.5742,-2.5742,-2.5742,-2.5742,-2.5742,-2.5742,0.0,0.0,0.0,0.0,0.0,0.0,0.0,0.0,0.0,0.0,0.0,0.0,0.0,0.0,0.0,0.0,0.0,0.0,0.0,0.0,0.0,0.0,0.0,0.0,0.0,0.0,-2.6351,-2.6104,-2.6284,-2.6914,-2.6914,-2.7474,-2.8484,-2.9326,-2.9795,-2.9988,-2.9988,-2.9418,-2.868,-2.868,-2.868,-2.868,-2.868,-2.8308,-2.7652,0.0,0.0,0.0,0.0,0.0,0.0,0.0,-2.6493,0.0,-2.7196,-2.6734,-2.6854,-2.7938,-2.7371,-2.7127,-2.7412,-2.6804,-2.6299,-2.6084,-2.6316,-2.6466,-2.6466,-2.6466,0.0,-2.6466,-2.6084,-2.5579,-2.5068,0.0,0.0,-2.3789,0.0,0.0,0.0,0.0,-2.3638,0.0,0.0,0.0,-2.5137,-2.4833,-2.4421,-2.3908,-2.3493,-2.2985,-2.2484,-2.2484,-2.1887,-2.0885,-2.0285,-2.0078,-2.0078,-2.0078,-2.0483,-2.1081,-2.2181,-2.3285,-2.4196,-2.4805,-2.5323,-2.5742,-2.5742,-2.5742,-2.5742,-2.5742,-2.5742,-2.5742,-2.5742,-2.5742,-2.5635,-2.5538,-2.4987,0.0,0.0,0.0,0.0,0.0,0.0,0.0,0.0,0.0,0.0,0.0,0.0,0.0,0.0,0.0,0.0,0.0,0.0,0.0,0.0,0.0,0.0,0.0,0.0,0.0,-2.5605,-2.5464,-2.5786,-2.6466,-2.6466,-2.6648,-2.721,-2.7683,-2.7861,-2.7861,-2.7861,-2.7579,-2.7115,-2.7115,-2.7115,-2.7115,-2.7115,-2.6839,-2.6466,0.0,-2.5917,0.0,0.0,-2.5732,0.0,0.0,-2.6172,-2.6576,-2.7239,-2.6923,-2.6979,-2.7884,-2.7617,-2.7246,-2.7168,-2.6768,-2.6484,-2.6396,-2.5977,-2.5742,-2.5742,-2.5742,-2.5742,-2.5742,-2.5742,-2.5566,0.0,0.0,0.0,0.0,0.0,0.0,0.0,0.0,0.0,0.0,0.0,-2.5314,-2.544,-2.5635,-2.5216,-2.4402,-2.4402,-2.3899,-2.3194,-2.3194,-2.3194,-2.2994,-2.1988,-2.1387,-2.1285,-2.1285,-2.1387,-2.1887,-2.3592,-2.4295,-2.4599,-2.543,-2.5742,-2.5742,-2.5742,-2.5742,-2.5742,-2.5742,-2.5742,-2.5742,-2.5742,-2.5742,-2.5606,-2.5217,-2.467,0.0,0.0,0.0,0.0,0.0,0.0,0.0,0.0,0.0,0.0,0.0,0.0,0.0,0.0,0.0,0.0,0.0,0.0,0.0,0.0,0.0,0.0,-2.3473,0.0,-2.4131,0.0,-2.498,-2.5254,-2.5596,-2.5868,-2.6014,-2.6004,-2.6197,-2.6197,-2.6004,-2.583,-2.5742,-2.5742,-2.5742,-2.5742,-2.5742,-2.5742,-2.5742,-2.583,0.0,0.0,0.0,0.0,0.0,0.0,0.0,-2.6367,-2.6387,-2.6476,-2.7163,-2.7663,-2.7702,-2.8045,-2.8018,-2.7637,-2.7207,-2.6797,-2.6406,-2.5977,-2.5742,-2.5742,-2.5742,-2.5742,-2.5742,-2.5742,-2.5713,0.0,0.0,0.0,0.0,0.0,0.0,0.0,0.0,0.0,0.0,-2.5478,-2.5606,-2.5635,-2.5645,-2.5635,-2.5538,-2.5538,-2.5538,-2.543,-2.543,-2.543,-2.5226,-2.4196,-2.3185,-2.2383,-2.2383,-2.2985,-2.389,-2.4088,-2.4805,-2.5538,-2.5635,-2.5742,-2.5742,-2.5742,-2.5742,-2.5742,-2.5742,-2.5742,-2.5742,-2.5742,-2.5742,-2.5528,-2.4842,-2.4419,-2.3884,0.0,0.0,0.0,0.0,0.0,0.0,0.0,0.0,0.0,0.0,0.0,0.0,0.0,0.0,0.0,0.0,0.0,0.0,0.0,0.0,-2.2725,-2.2498,-2.3415,0.0,-2.3544,-2.4604,-2.5088,-2.5232,-2.6455,-2.7094,-2.7094,-2.8028,-2.7934,-2.701,-2.61,-2.5742,-2.5742,-2.5742,-2.5742,-2.5742,-2.5742,-2.5742,-2.5732,0.0,0.0,0.0,0.0,0.0,0.0,0.0,-2.6602,-2.6855,-2.7119,-2.7451,-2.7764,-2.8018,-2.8193,-2.8125,-2.7705,-2.7266,-2.6836,-2.6416,-2.5977,-2.5742,-2.5742,-2.5742,-2.5742,-2.5742,-2.5742,-2.5742,0.0,0.0,0.0,0.0,0.0,0.0,0.0,0.0,-2.4902,-2.5098,-2.5547,-2.5742,-2.5742,-2.5742,-2.5742,-2.5742,-2.5742,-2.5742,-2.5742,-2.5742,-2.5742,-2.5635,-2.5226,-2.4304,-2.3484,-2.3484,-2.3791,-2.4196,-2.4913,-2.5333,-2.5742,-2.5742,-2.5742,-2.5742,-2.5742,-2.5742,-2.5742,-2.5742,-2.5742,-2.5742,-2.5742,-2.5742,-2.5509,-2.5061,-2.4446,-2.3919,0.0,0.0,0.0,0.0,0.0,0.0,0.0,0.0,0.0,0.0,0.0,0.0,0.0,0.0,0.0,0.0,0.0,0.0,-2.3377,0.0,-2.2882,-2.2618,-2.3134,-2.3436,-2.3609,-2.4131,-2.457,-2.5068,-2.57,-2.6109,-2.6284,-2.6744,-2.6648,-2.6284,-2.583,-2.5742,-2.5742,-2.5742,-2.5742,-2.5742,-2.5742,-2.5742,-2.5742,-2.6602,0.0,-2.5917,0.0,-2.5732,-2.5928,-2.6484,-2.6826,-2.7217,-2.7773,-2.7744,-2.7822,-2.8252,-2.8184,-2.7988,-2.7695,-2.7158,-2.6709,-2.6406,-2.5977,-2.5742,-2.5742,-2.5742,0.0,-2.5742,-2.5742,-2.5742,-2.5742,-2.5742,0.0,0.0,0.0,0.0,0.0,-2.4932,-2.5137,-2.5283,-2.5605,-2.5742,-2.5742,-2.5742,-2.5742,-2.5742,-2.5742,-2.5742,-2.5742,-2.5742,-2.5742,-2.5742,-2.5742,-2.5226,-2.4599,-2.4599,-2.4599,-2.4707,-2.543,-2.5742,-2.5742,-2.5742,-2.5742,-2.5742,-2.5742,-2.5742,-2.5742,-2.5742,-2.5742,-2.5742,-2.5742,-2.5635,-2.54,-2.4961,-2.4438,-2.3919,0.0,0.0,0.0,0.0,0.0,0.0,0.0,-2.253,-2.2432,-2.253,0.0,0.0,0.0,0.0,0.0,0.0,0.0,0.0,0.0,0.0,0.0,0.0,0.0,-2.3291,-2.3603,-2.373,-2.4111,-2.4707,-2.4951,-2.5312,-2.5742,-2.5742,-2.5742,-2.5742,-2.5742,-2.5742,-2.5742,-2.5742,-2.5742,-2.5742,-2.5742,-2.5742,-2.5742,-2.6805,-2.6227,-2.583,-2.6004,-2.5917,-2.6025,-2.6875,-2.7012,-2.7324,-2.8174,-2.792,-2.7822,-2.8252,-2.792,-2.7676,-2.7666,-2.6885,-2.6396,-2.6387,-2.5977,-2.5742,0.0,0.0,-2.5742,-2.5742,-2.5742,-2.5742,-2.5742,0.0,0.0,-2.5059,0.0,0.0,-2.5059,-2.5068,-2.5312,-2.5732,-2.5742,-2.5742,-2.5742,-2.5742,-2.5742,-2.5742,-2.5742,-2.5742,-2.5742,-2.5742,-2.5742,-2.5742,-2.5742,-2.5732,-2.5635,-2.5635,-2.5635,-2.5635,-2.5742,-2.5742,-2.5742,-2.5742,-2.5742,-2.5742,-2.5742,-2.5742,-2.5742,-2.5742,-2.5742,-2.5742,-2.5742,-2.5381,-2.4941,-2.4502,-2.4082,-2.3573,-2.288,0.0,0.0,0.0,0.0,0.0,0.0,-2.253,-2.253,-2.2803,0.0,0.0,0.0,0.0,0.0,0.0,0.0,0.0,-2.2803,-2.2803,0.0,-2.2803,-2.2969,-2.3135,-2.3154,-2.3584,-2.3799,-2.3838,-2.4687,-2.5312,-2.5742,-2.5742,-2.5742,-2.5742,-2.5742,-2.5742,-2.5742,-2.5742,-2.5742,-2.5742,-2.5742,-2.5742,-2.5742,-2.69,-2.6709,-2.641,-2.6197,-2.6004,-2.6114,-2.6504,-2.6592,-2.6787,-2.7344,-2.7305,-2.7275,-2.7402,-2.7305,-2.7109,0.0,-2.6543,-2.626,0.0,-2.581,-2.5742,-2.5742,-2.5742,-2.5742,-2.5742,-2.5742,-2.5742,-2.5742,0.0,0.0,0.0,-2.5381,-2.5391,-2.5527,-2.5527,-2.5605,-2.5742,-2.5742,-2.5742,-2.5742,-2.5742,-2.5742,-2.5742,-2.5742,-2.5742,-2.5742,-2.5742,-2.5742,-2.5742,-2.5742,-2.5742,-2.5742,-2.5742,-2.5742,-2.5742,-2.5742,-2.5742,-2.5742,-2.5742,-2.5742,-2.5742,-2.5742,-2.5742,-2.5742,-2.5742,-2.5742,-2.5644,-2.5352,-2.5166,-2.4844,-2.4121,-2.3887,-2.3652,-2.3125,0.0,0.0,0.0,0.0,0.0,0.0,0.0,-2.2264,0.0,-2.2274,0.0,0.0,0.0,0.0,0.0,0.0,0.0,0.0,-2.2882,0.0,-2.2803,-2.2969,-2.3135,-2.3135,-2.3281,-2.3496,-2.3818,-2.4678,-2.5146,-2.5293,-2.5605,-2.5742,-2.5742,-2.5742,-2.5742,-2.5742,-2.5742,-2.5742,-2.5742,-2.5742,-2.5742,-2.5742,-2.69,-2.6805,-2.6602,-2.6304,-2.6197,-2.6152,-2.6497,-2.6476,-2.6533,-2.6963,-2.6875,-2.6777,-2.6777,-2.6631,0.0,-2.6396,-2.624,0.0,-2.5752,-2.5742,-2.5742,-2.5742,-2.5742,-2.5742,-2.5742,0.0,0.0,-2.5742,-2.5742,-2.5742,-2.5742,-2.5742,-2.5742,-2.5742,-2.5742,-2.5742,-2.5742,-2.5742,-2.5742,-2.5742,-2.5742,-2.5742,-2.5742,-2.5742,-2.5742,-2.5742,-2.5742,-2.5742,-2.5742,-2.5742,-2.5742,-2.5742,-2.5742,-2.5742,-2.5742,-2.5742,-2.5742,-2.5742,-2.5742,-2.5742,-2.5742,-2.5742,-2.5742,-2.5742,-2.5742,-2.5605,-2.541,-2.5127,-2.4814,-2.4424,-2.3887,-2.3652,-2.3457,-2.3184,0.0,0.0,0.0,0.0,0.0,0.0,0.0,0.0,0.0,-2.2451,0.0,0.0,0.0,0.0,0.0,0.0,0.0,-2.2696,-2.2969,0.0,-2.2882,-2.3057,-2.3135,-2.3135,-2.3135,-2.3369,-2.3809,-2.4346,-2.4766,-2.5088,-2.5361,-2.5586,-2.5742,-2.5742,-2.5742,-2.5742,-2.5742,-2.5742,-2.5742,-2.5742,-2.5742,-2.5742,-2.69,-2.6699,0.0,0.0,-2.6294,0.0,-2.6626,-2.6517,-2.6484,-2.6875,-2.6582,-2.6338,-2.6338,-2.5977,-2.5908,-2.6309,0.0,0.0,0.0,-2.5742,-2.5742,-2.5742,-2.5742,0.0,-2.5742,-2.5742,-2.5742,-2.5742,-2.5742,-2.5742,-2.5742,-2.5742,-2.5742,-2.5742,-2.5742,-2.5742,-2.5742,-2.5742,-2.5742,-2.5742,-2.5742,-2.5742,-2.5742,-2.5742,-2.5742,-2.5742,-2.5742,-2.5742,-2.5742,-2.5742,-2.5742,-2.5742,-2.5742,-2.5742,-2.5742,-2.5742,-2.5742,-2.5742,-2.5742,-2.5742,-2.5742,-2.5742,-2.5713,-2.5693,-2.5693,-2.5342,-2.501,-2.499,-2.4346,-2.3779,-2.375,-2.3408,-2.3135,-2.3135,-2.3057,-2.2969,-2.2803,0.0,0.0,0.0,0.0,0.0,0.0,-2.2803,-2.2882,0.0,0.0,0.0,0.0,0.0,0.0,-2.3057,-2.3135,-2.3135,-2.3135,-2.3135,-2.3135,-2.3135,-2.3135,-2.335,-2.375,-2.3779,-2.4228,-2.498,-2.5039,-2.5303,-2.5693,-2.5723,-2.5742,-2.5742,-2.5742,-2.5742,-2.5742,-2.5742,-2.5742,-2.5742,0.0,0.0,-2.7071,-2.6794,-2.6794,-2.6633,-2.6326,-2.6152,-2.6104,-2.6025,-2.5957,-2.5889,-2.5889,-2.5801,-2.5781,-2.5889,-2.5791,-2.5742,-2.5742,-2.5742,-2.5742,-2.5742,-2.5742,-2.5742,-2.5742,-2.5742,-2.5742,-2.5742,-2.5742,-2.5742,-2.5742,-2.5742,-2.5742,-2.5742,-2.5742,-2.5742,-2.5742,-2.5742,-2.5742,-2.5742,-2.5742,-2.5742,-2.5742,-2.5742,-2.5742,-2.5742,-2.5742,-2.5742,-2.5742,-2.5742,-2.5742,-2.5742,-2.5742,-2.5742,-2.5742,-2.5742,-2.5742,-2.5742,-2.5742,-2.5742,-2.5742,-2.5742,-2.5478,-2.5225,-2.5225,-2.4883,-2.4482,-2.416,-2.3926,-2.3691,-2.335,-2.3213,-2.3135,-2.3135,-2.2969,-2.2882,-2.2803,0.0,0.0,0.0,-2.2441,-2.253,-2.2794,-2.2803,-2.2803,0.0,0.0,0.0,0.0,0.0,-2.2794,-2.3057,-2.3135,-2.3135,-2.3135,-2.3135,-2.3135,-2.3135,-2.3135,-2.3193,-2.3301,-2.3633,-2.3896,-2.4131,-2.4785,-2.5127,-2.5254,-2.5596,-2.5742,-2.5742,-2.5742,-2.5742,-2.5742,-2.5742,-2.5742,-2.5742,-2.7262,-2.7262,-2.7262,-2.6996,-2.6805,-2.6602,-2.6197,-2.6004,-2.582,-2.5742,-2.5742,-2.5742,-2.5742,-2.5742,-2.5742,-2.5742,-2.5742,-2.5742,-2.5742,-2.5742,-2.5742,-2.5742,-2.5742,-2.5742,-2.5742,-2.5742,-2.5742,-2.5742,-2.5742,-2.5742,-2.5742,-2.5742,-2.5742,-2.5742,-2.5742,-2.5742,-2.5742,-2.5742,-2.5742,-2.5742,-2.5742,-2.5742,-2.5742,-2.5742,-2.5742,-2.5742,-2.5742,-2.5742,-2.5742,-2.5742,-2.5742,-2.5742,-2.5742,-2.5742,-2.5742,-2.5742,-2.5742,-2.5742,-2.5742,-2.5742,-2.5684,-2.5478,-2.5244,-2.501,-2.4814,-2.4443,-2.4062,-2.3838,-2.3633,-2.3418,-2.3184,-2.3135,-2.3135,-2.3135,-2.2969,-2.2803,-2.2803,-2.253,0.0,-2.253,-2.2618,-2.2706,-2.2882,-2.2969,-2.2969,-2.2969,0.0,0.0,-2.2969,-2.2969,-2.2969,-2.3135,-2.3135,-2.3135,-2.3135,-2.3135,-2.3135,-2.3135,-2.3135,-2.3135,-2.3144,-2.3379,-2.3603,-2.3818,-2.4287,-2.4707,-2.5088,-2.5332,-2.5557,-2.5742,-2.5742,-2.5742,-2.5742,-2.5742,-2.5742,-2.5742,-2.7262,-2.7262,-2.7177,-2.69,-2.6699,-2.64,-2.61,-2.5917,-2.5732,-2.5742,-2.5742,-2.5742,-2.5742,-2.5742,-2.5742,-2.5742,-2.5742,-2.5742,-2.5742,-2.5742,-2.5742,-2.5742,-2.5742,-2.5742,-2.5742,-2.5742,-2.5742,-2.5742,-2.5742,-2.5742,-2.5742,-2.5742,-2.5742,-2.5742,-2.5742,-2.5742,-2.5742,-2.5742,-2.5742,-2.5742,-2.5742,-2.5742,-2.5742,-2.5742,-2.5742,-2.5742,-2.5742,-2.5742,-2.5742,-2.5742,-2.5742,-2.5742,-2.5742,-2.5742,-2.5742,-2.5742,-2.5684,-2.5654,-2.5723,-2.5684,-2.5527,-2.5078,-2.4922,-2.4775,-2.4404,-2.3994,-2.3691,-2.3691,-2.3398,-2.3135,-2.3135,-2.3135,-2.3057,-2.3057,-2.2882,-2.2715,-2.2715,0.0,-2.253,-2.2803,-2.2803,-2.2882,-2.3047,-2.3135,-2.3135,-2.3135,-2.3135,0.0,0.0,-2.3135,-2.3135,-2.3135,-2.3135,-2.3135,-2.3135,-2.3135,-2.3135,-2.3135,-2.3135,-2.3135,-2.3135,-2.3135,-2.334,-2.3691,-2.376,-2.4199,-2.4883,-2.5019,-2.5293,-2.5644,-2.5713,-2.5742,-2.5742,-2.5742,-2.5742,-2.5742,-2.7262,-2.7081,-2.6996,-2.69,-2.6699,-2.64,-2.61,-2.61,-2.5917,-2.5732,-2.5742,-2.5742,-2.5742,-2.5742,-2.5742,-2.5742,-2.5742,-2.5742,-2.5742,-2.5742,-2.5742,-2.5742,-2.5742,-2.5742,-2.5742,-2.5742,-2.5742,-2.5742,-2.5742,-2.5742,-2.5742,-2.5742,-2.5742,-2.5742,-2.5742,-2.5742,-2.5742,-2.5742,-2.5742,-2.5742,-2.5742,-2.5742,-2.5742,-2.5742,-2.5742,-2.5742,-2.5742,-2.5742,-2.5742,-2.5742,-2.5742,-2.5742,-2.5742,-2.5742,-2.5742,-2.5742,-2.5469,-2.5254,-2.5635,-2.5459,-2.5068,-2.4629,-2.4248,-2.3965,-2.3906,-2.3555,-2.3242,-2.3242,-2.3184,-2.3135,-2.3135,-2.3135,-2.3057,-2.2882,-2.2618,-2.2441,0.0,0.0,-2.253,-2.2803,-2.2969,-2.3057,-2.3135,-2.3135,-2.3135,-2.3135,-2.3135,-2.3135,-2.3135,-2.3135,-2.3135,-2.3135,-2.3135,-2.3135,-2.3135,-2.3135,-2.3135,-2.3135,-2.3135,-2.3135,-2.3135,-2.3135,-2.3174,-2.3262,-2.3633,-2.3867,-2.4043,-2.4775,-2.5107,-2.5205,-2.5586,-2.5742,-2.5742,-2.5742,-2.5742,-2.5742,-2.7262,-2.7167,-2.7081,-2.69,-2.6699,-2.64,-2.61,-2.6004,-2.582,-2.5742,-2.5742,-2.5742,-2.5742,-2.5742,-2.5742,-2.5742,-2.5742,-2.5742,-2.5742,-2.5742,-2.5742,-2.5742,-2.5742,-2.5742,-2.5742,-2.5742,-2.5742,-2.5742,-2.5742,-2.5742,-2.5742,-2.5742,-2.5742,-2.5742,-2.5742,-2.5742,-2.5742,-2.5742,-2.5742,-2.5742,-2.5742,-2.5742,-2.5742,-2.5742,-2.5742,-2.5742,-2.5742,-2.5742,-2.5742,-2.5742,-2.5742,-2.5693,-2.5449,-2.5371,-2.5332,-2.5098,-2.5049,-2.5059,-2.5039,-2.4873,-2.4619,-2.4189,-2.3935,-2.373,-2.3496,-2.3281,-2.3135,-2.3135,-2.3135,-2.3135,-2.3135,-2.3135,-2.3047,-2.2803,-2.2706,0.0,0.0,-2.2618,-2.2706,-2.2969,-2.3057,-2.3135,-2.3135,-2.3135,-2.3135,-2.3135,-2.3135,-2.3135,-2.3135,-2.3135,-2.3135,-2.3135,-2.3135,-2.3135,-2.3135,-2.3135,-2.3135,-2.3135,-2.3135,-2.3135,-2.3135,-2.3135,-2.3135,-2.3154,-2.335,-2.3574,-2.3818,-2.4209,-2.4648,-2.5088,-2.5293,-2.5527,-2.5742,-2.5742,-2.5742,-2.5742,-2.7262,-2.7262,-2.7081,-2.689,-2.6602,-2.6304,-2.6004,-2.582,-2.5742,-2.5742,-2.5742,-2.5742,-2.5742,-2.5742,-2.5742,-2.5742,-2.5742,-2.5742,-2.5742,-2.5742,-2.5742,-2.5742,-2.5742,-2.5742,-2.5742,-2.5742,-2.5742,-2.5742,-2.5742,-2.5742,-2.5742,-2.5742,-2.5742,-2.5742,-2.5742,-2.5742,-2.5742,-2.5742,-2.5742,-2.5742,-2.5742,-2.5742,-2.5742,-2.5742,-2.5742,-2.5742,-2.5742,-2.5674,-2.5586,-2.5586,-2.5518,-2.5371,-2.5019,-2.4912,-2.4853,-2.4521,-2.459,-2.4697,-2.4365,-2.4268,-2.417,-2.374,-2.3633,-2.3555,-2.3213,-2.3135,-2.3135,-2.3135,-2.3135,-2.3135,-2.3135,-2.3135,-2.3047,-2.2803,0.0,0.0,0.0,-2.2803,-2.2882,-2.3057,-2.3135,-2.3135,-2.3135,-2.3135,-2.3135,-2.3135,-2.3135,-2.3135,-2.3135,-2.3135,-2.3135,-2.3135,-2.3135,-2.3135,-2.3135,-2.3135,-2.3135,-2.3135,-2.3135,-2.3135,-2.3135,-2.3135,-2.3135,-2.3135,-2.3135,-2.333,-2.3652,-2.375,-2.418,-2.4785,-2.499,-2.5283,-2.5596,-2.5703,-2.5742,-2.5742,-2.7262,-2.7081,-2.6794,-2.6602,-2.6304,-2.6004,-2.5732,-2.5732,-2.5742,-2.5742,-2.5742,-2.5742,-2.5742,-2.5742,-2.5742,-2.5742,-2.5742,-2.5742,-2.5742,-2.5742,-2.5742,-2.5742,-2.5742,-2.5742,-2.5742,-2.5742,-2.5742,-2.5742,-2.5742,-2.5742,-2.5742,-2.5742,-2.5742,-2.5742,-2.5742,-2.5742,-2.5742,-2.5742,-2.5742,-2.5742,-2.5742,-2.5742,-2.5742,-2.5742,-2.5742,-2.5742,-2.5742,-2.5469,-2.5117,-2.5117,-2.4844,-2.4512,-2.4473,-2.4463,-2.4453,-2.4424,-2.416,-2.3877,-2.3848,-2.3838,-2.373,-2.3301,-2.3184,-2.3184,-2.3144,-2.3135,-2.3135,-2.3135,-2.3135,-2.3135,-2.3135,-2.3135,-2.3047,-2.2803,0.0,0.0,-2.2803,-2.2803,-2.2882,-2.3057,-2.3135,-2.3135,-2.3135,-2.3135,-2.3135,-2.3135,-2.3135,-2.3135,-2.3135,-2.3135,-2.3135,-2.3135,-2.3135,-2.3135,-2.3135,-2.3135,-2.3135,-2.3135,-2.3135,-2.3135,-2.3135,-2.3135,-2.3135,-2.3135,-2.3135,-2.3154,-2.3213,-2.3623,-2.3828,-2.3965,-2.4756,-2.5088,-2.5166,-2.5586,-2.5742,-2.5742,-2.7262,-2.7262,-2.7081,-2.6794,-2.6506,-2.6304,-2.6014,-2.583,-2.5742,-2.5742,-2.5742,-2.5742,-2.5742,-2.5742,-2.5742,-2.5742,-2.5742,-2.5742,-2.5742,-2.5742,-2.5742,-2.5742,-2.5742,-2.5742,-2.5742,-2.5742,-2.5742,-2.5742,-2.5742,-2.5742,-2.5742,-2.5742,-2.5742,-2.5742,-2.5742,-2.5742,-2.5742,-2.5742,-2.5742,-2.5742,-2.5742,-2.5742,-2.5713,-2.543,-2.5322,-2.5293,-2.5019,-2.4814,-2.4668,-2.4668,-2.4551,-2.4375,-2.4111,-2.4033,-2.3975,-2.3701,-2.3516,-2.3389,-2.3389,-2.3389,-2.335,-2.3184,-2.3135,-2.3135,-2.3135,-2.3135,-2.3135,-2.3135,-2.3135,-2.3135,-2.3135,-2.3135,-2.3047,-2.2803,0.0,-2.2969,-2.2803,-2.2882,-2.2969,-2.3057,-2.3135,-2.3135,-2.3135,-2.3135,-2.3135,-2.3135,-2.3135,-2.3135,-2.3135,-2.3135,-2.3135,-2.3135,-2.3135,-2.3135,-2.3135,-2.3135,-2.3135,-2.3135,-2.3135,-2.3135,-2.3135,-2.3135,-2.3135,-2.3135,-2.3135,-2.3135,-2.3154,-2.332,-2.3545,-2.3828,-2.415,-2.46,-2.5088,-2.5254,-2.5498,-2.5742,-2.7262,-2.7262,-2.7167,-2.6794,-2.6602,-2.64,-2.6004,-2.583,-2.5742,-2.5742,-2.5742,-2.5742,-2.5742,-2.5742,-2.5742,-2.5742,-2.5742,-2.5742,-2.5742,-2.5742,-2.5742,-2.5742,-2.5742,-2.5742,-2.5742,-2.5742,-2.5742,-2.5742,-2.5742,-2.5742,-2.5742,-2.5742,-2.5742,-2.5742,-2.5742,-2.5742,-2.5742,-2.5742,-2.5742,-2.5723,-2.5586,-2.5527,-2.5478,-2.5029,-2.4863,-2.4824,-2.4521,-2.4336,-2.4219,-2.4219,-2.4131,-2.3965,-2.3672,-2.3584,-2.3525,-2.3223,-2.3135,-2.3135,-2.3135,-2.3135,-2.3135,-2.3135,-2.3135,-2.3135,-2.3135,-2.3135,-2.3135,-2.3135,-2.3135,-2.3135,-2.3135,-2.3135,-2.3047,-2.2882,-2.2969,-2.3047,-2.2882,-2.2969,-2.3135,-2.3135,-2.3135,-2.3135,-2.3135,-2.3135,-2.3135,-2.3135,-2.3135,-2.3135,-2.3135,-2.3135,-2.3135,-2.3135,-2.3135,-2.3135,-2.3135,-2.3135,-2.3135,-2.3135,-2.3135,-2.3135,-2.3135,-2.3135,-2.3135,-2.3135,-2.3135,-2.3135,-2.3135,-2.3135,-2.332,-2.3603,-2.374,-2.415,-2.4697,-2.4971,-2.5264,-2.5547,-2.7262,-2.7262,-2.7167,-2.6592,-2.6496,-2.6304,-2.5732,-2.5742,-2.5742,-2.5742,-2.5742,-2.5742,-2.5742,-2.5742,-2.5742,-2.5742,-2.5742,-2.5742,-2.5742,-2.5742,-2.5742,-2.5742,-2.5742,-2.5742,-2.5742,-2.5742,-2.5742,-2.5742,-2.5742,-2.5742,-2.5742,-2.5742,-2.5742,-2.5742,-2.5742,-2.5742,-2.5742,-2.5732,-2.5732,-2.5693,-2.5244,-2.5059,-2.501,-2.458,-2.4414,-2.4414,-2.4404,-2.4141,-2.3779,-2.3779,-2.3496,-2.3135,-2.3135,-2.3135,-2.3135,-2.3135,-2.3135,-2.3135,-2.3135,-2.3135,-2.3135,-2.3135,-2.3135,-2.3135,-2.3135,-2.3135,-2.3135,-2.3135,-2.3135,-2.3135,-2.3135,-2.3135,-2.3135,-2.3135,-2.3135,-2.3135,-2.3135,-2.3135,-2.3135,-2.3135,-2.3135,-2.3135,-2.3135,-2.3135,-2.3135,-2.3135,-2.3135,-2.3135,-2.3135,-2.3135,-2.3135,-2.3135,-2.3135,-2.3135,-2.3135,-2.3135,-2.3135,-2.3135,-2.3135,-2.3135,-2.3135,-2.3135,-2.3135,-2.3135,-2.3135,-2.3135,-2.3135,-2.3135,-2.3135,-2.3184,-2.3613,-2.3789,-2.3896,-2.4746,-2.5059,-2.5127,-2.7262,-2.7262,-2.7167,-2.6794,-2.6602,-2.64,-2.6004,-2.583,-2.5742,-2.5742,-2.5742,-2.5742,-2.5742,-2.5742,-2.5742,-2.5742,-2.5742,-2.5742,-2.5742,-2.5742,-2.5742,-2.5742,-2.5742,-2.5742,-2.5742,-2.5742,-2.5742,-2.5742,-2.5742,-2.5742,-2.5742,-2.5742,-2.5742,-2.5742,-2.5742,-2.5742,-2.5713,-2.54,-2.5273,-2.5225,-2.4785,-2.4609,-2.456,-2.4141,-2.3975,-2.3935,-2.3633,-2.3437,-2.333,-2.333,-2.3242,-2.3135,-2.3135,-2.3135,-2.3135,-2.3135,-2.3135,-2.3135,-2.3135,-2.3135,-2.3135,-2.3135,-2.3135,-2.3135,-2.3135,-2.3135,-2.3135,-2.3135,-2.3135,-2.3135,-2.3135,-2.3135,-2.3135,-2.3135,-2.3135,-2.3135,-2.3135,-2.3135,-2.3135,-2.3135,-2.3135,-2.3135,-2.3135,-2.3135,-2.3135,-2.3135,-2.3135,-2.3135,-2.3135,-2.3135,-2.3135,-2.3135,-2.3135,-2.3135,-2.3135,-2.3135,-2.3135,-2.3135,-2.3135,-2.3135,-2.3135,-2.3135,-2.3135,-2.3135,-2.3135,-2.3135,-2.3135,-2.3135,-2.3135,-2.3154,-2.3281,-2.3516,-2.3818,-2.4072,-2.4355,-2.4678,-2.7262,-2.7262,-2.7262,-2.6996,-2.6699,-2.64,-2.61,-2.5917,-2.5742,-2.5742,-2.5742,-2.5742,-2.5742,-2.5742,-2.5742,-2.5742,-2.5742,-2.5742,-2.5742,-2.5742,-2.5742,-2.5742,-2.5742,-2.5742,-2.5742,-2.5742,-2.5742,-2.5742,-2.5742,-2.5742,-2.5742,-2.5742,-2.5742,-2.5732,-2.5557,-2.5478,-2.5439,-2.5,-2.4805,-2.4775,-2.4336,-2.417,-2.4121,-2.3701,-2.3525,-2.3496,-2.3232,-2.3135,-2.3135,-2.3135,-2.3135,-2.3135,-2.3135,-2.3135,-2.3135,-2.3135,-2.3135,-2.3135,-2.3135,-2.3135,-2.3135,-2.3135,-2.3135,-2.3135,-2.3135,-2.3135,-2.3135,-2.3135,-2.3135,-2.3135,-2.3135,-2.3135,-2.3135,-2.3135,-2.3135,-2.3135,-2.3135,-2.3135,-2.3135,-2.3135,-2.3135,-2.3135,-2.3135,-2.3135,-2.3135,-2.3135,-2.3135,-2.3135,-2.3135,-2.3135,-2.3135,-2.3135,-2.3135,-2.3135,-2.3135,-2.3135,-2.3135,-2.3135,-2.3135,-2.3135,-2.3135,-2.3135,-2.3135,-2.3135,-2.3135,-2.3135,-2.3135,-2.3135,-2.3135,-2.3135,-2.3135,-2.3301,-2.3555,-2.3721,-2.3945,-2.4228,-2.7262,-2.7262,-2.7262,-2.6996,-2.6699,-2.64,-2.6197,-2.5917,-2.5742,-2.5742,-2.5742,-2.5742,-2.5742,-2.5742,-2.5742,-2.5742,-2.5742,-2.5742,-2.5742,-2.5742,-2.5742,-2.5742,-2.5742,-2.5742,-2.5742,-2.5742,-2.5742,-2.5742,-2.5742,-2.5742,-2.5742,-2.5742,-2.5713,-2.5664,-2.5254,-2.5049,-2.498,-2.4541,-2.4365,-2.4326,-2.3906,-2.373,-2.3691,-2.3291,-2.3135,-2.3135,-2.3135,-2.3135,-2.3135,-2.3135,-2.3135,-2.3135,-2.3135,-2.3135,-2.3135,-2.3135,-2.3135,-2.3135,-2.3135,-2.3135,-2.3135,-2.3135,-2.3135,-2.3135,-2.3135,-2.3135,-2.3135,-2.3135,-2.3135,-2.3135,-2.3135,-2.3135,-2.3135,-2.3135,-2.3135,-2.3135,-2.3135,-2.3135,-2.3135,-2.3135,-2.3135,-2.3135,-2.3135,-2.3135,-2.3135,-2.3135,-2.3135,-2.3135,-2.3135,-2.3135,-2.3135,-2.3135,-2.3135,-2.3135,-2.3135,-2.3135,-2.3135,-2.3135,-2.3135,-2.3135,-2.3135,-2.3135,-2.3135,-2.3135,-2.3135,-2.3135,-2.3135,-2.3135,-2.3135,-2.3135,-2.3135,-2.3135,-2.3184,-2.3584,-2.373,-2.3799,-2.7262,-2.7262,-2.7262,-2.7262,-2.6784,-2.6496,-2.64,-2.6024,-2.5742,-2.5742,-2.5742,-2.5742,-2.5742,-2.5742,-2.5742,-2.5742,-2.5742,-2.5742,-2.5742,-2.5742,-2.5742,-2.5742,-2.5742,-2.5742,-2.5742,-2.5742,-2.5742,-2.5742,-2.5742,-2.5742,-2.5742,-2.5742,-2.5547,-2.5205,-2.5117,-2.4883,-2.4531,-2.4102,-2.3926,-2.3887,-2.3457,-2.3281,-2.3271,-2.3174,-2.3135,-2.3135,-2.3135,-2.3135,-2.3135,-2.3135,-2.3135,-2.3135,-2.3135,-2.3135,-2.3135,-2.3135,-2.3135,-2.3135,-2.3135,-2.3135,-2.3135,-2.3135,-2.3135,-2.3135,-2.3135,-2.3135,-2.3135,-2.3135,-2.3135,-2.3135,-2.3135,-2.3135,-2.3135,-2.3135,-2.3135,-2.3135,-2.3135,-2.3135,-2.3135,-2.3135,-2.3135,-2.3135,-2.3135,-2.3135,-2.3135,-2.3135,-2.3135,-2.3135,-2.3135,-2.3135,-2.3135,-2.3135,-2.3135,-2.3135,-2.3135,-2.3135,-2.3135,-2.3135,-2.3135,-2.3135,-2.3135,-2.3135,-2.3135,-2.3135,-2.3135,-2.3135,-2.3135,-2.3135,-2.3135,-2.3135,-2.3135,-2.3135,-2.3154,-2.3242,-2.3281,-2.334,-2.7262,-2.7262,-2.7262,-2.7262,-2.688,-2.6496,-2.6496,-2.6024,-2.5742,-2.5742,-2.5742,-2.5742,-2.5742,-2.5742,-2.5742,-2.5742,-2.5742,-2.5742,-2.5742,-2.5742,-2.5742,-2.5742,-2.5742,-2.5742,-2.5742,-2.5742,-2.5742,-2.5742,-2.5742,-2.5625,-2.542,-2.542,-2.5185,-2.4746,-2.4551,-2.4336,-2.4092,-2.3662,-2.3486,-2.3457,-2.3232,-2.3135,-2.3135,-2.3135,-2.3135,-2.3135,-2.3135,-2.3135,-2.3135,-2.3135,-2.3135,-2.3135,-2.3135,-2.3135,-2.3135,-2.3135,-2.3135,-2.3135,-2.3135,-2.3135,-2.3135,-2.3135,-2.3135,-2.3135,-2.3135,-2.3135,-2.3135,-2.3135,-2.3135,-2.3135,-2.3135,-2.3135,-2.3135,-2.3135,-2.3135,-2.3135,-2.3135,-2.3135,-2.3135,-2.3135,-2.3135,-2.3135,-2.3135,-2.3135,-2.3135,-2.3135,-2.3135,-2.3135,-2.3135,-2.3135,-2.3135,-2.3135,-2.3135,-2.3135,-2.3135,-2.3135,-2.3135,-2.3135,-2.3135,-2.3135,-2.3135,-2.3135,-2.3135,-2.3135,-2.3135,-2.3135,-2.3135,-2.3135,-2.3135,-2.3135,-2.3135,-2.3135,-2.3135,-2.3135,-2.3135,-2.3174,-2.7262,-2.7262,-2.7262,-2.7262,-2.688,-2.6602,-2.6602,-2.612,-2.583,-2.5732,-2.5732,-2.5732,-2.5742,-2.5742,-2.5742,-2.5742,-2.5742,-2.5742,-2.5742,-2.5742,-2.5742,-2.5742,-2.5742,-2.5742,-2.5742,-2.5742,-2.5742,-2.5742,-2.5664,-2.543,-2.5068,-2.499,-2.4727,-2.4297,-2.3945,-2.375,-2.3652,-2.3291,-2.3135,-2.3135,-2.3135,-2.3135,-2.3135,-2.3135,-2.3135,-2.3135,-2.3135,-2.3135,-2.3135,-2.3135,-2.3135,-2.3135,-2.3135,-2.3135,-2.3135,-2.3135,-2.3135,-2.3135,-2.3135,-2.3135,-2.3135,-2.3135,-2.3135,-2.3135,-2.3135,-2.3135,-2.3135,-2.3135,-2.3135,-2.3135,-2.3135,-2.3135,-2.3135,-2.3135,-2.3135,-2.3135,-2.3135,-2.3135,-2.3135,-2.3135,-2.3135,-2.3135,-2.3135,-2.3135,-2.3135,-2.3135,-2.3135,-2.3135,-2.3135,-2.3135,-2.3135,-2.3135,-2.3135,-2.3135,-2.3135,-2.3135,-2.3135,-2.3135,-2.3135,-2.3135,-2.3135,-2.3135,-2.3135,-2.3135,-2.3135,-2.3135,-2.3135,-2.3135,-2.3135,-2.3135,-2.3135,-2.3135,-2.3135,-2.3135,-2.3135,-2.3135,-2.7262,-2.7262,-2.7262,-2.7262,-2.7081,-2.6805,-2.6805,-2.6602,-2.6304,-2.61,-2.6004,-2.5917,-2.5732,-2.5742,-2.5742,-2.5742,-2.5742,-2.5742,-2.5742,-2.5742,-2.5742,-2.5742,-2.5742,-2.5742,-2.5742,-2.5742,-2.5742,-2.5742,-2.5352,-2.5127,-2.5059,-2.4678,-2.4287,-2.3867,-2.3809,-2.3584,-2.3223,-2.3164,-2.3135,-2.3135,-2.3135,-2.3135,-2.3135,-2.3135,-2.3135,-2.3135,-2.3135,-2.3135,-2.3135,-2.3135,-2.3135,-2.3135,-2.3135,-2.3135,-2.3135,-2.3135,-2.3135,-2.3135,-2.3135,-2.3135,-2.3135,-2.3135,-2.3135,-2.3135,-2.3135,-2.3135,-2.3135,-2.3135,-2.3135,-2.3135,-2.3135,-2.3135,-2.3135,-2.3135,-2.3135,-2.3135,-2.3135,-2.3135,-2.3135,-2.3135,-2.3135,-2.3135,-2.3135,-2.3135,-2.3135,-2.3135,-2.3135,-2.3135,-2.3135,-2.3135,-2.3135,-2.3135,-2.3135,-2.3135,-2.3135,-2.3135,-2.3135,-2.3135,-2.3135,-2.3135,-2.3135,-2.3135,-2.3135,-2.3135,-2.3135,-2.3135,-2.3135,-2.3135,-2.3135,-2.3135,-2.3135,-2.3135,-2.3135,-2.3135,-2.3135,-2.3135,-2.7262,-2.7262,-2.7262,-2.7262,-2.7081,-2.69,-2.69,-2.6699,-2.6496,-2.6304,-2.6294,-2.6304,-2.612,-2.6014,-2.5917,-2.5917,-2.583,-2.5742,-2.5742,-2.5742,-2.5742,-2.5742,-2.5742,-2.5615,-2.5371,-2.5361,-2.5244,-2.5,-2.5049,-2.4824,-2.4346,-2.416,-2.3838,-2.3428,-2.3428,-2.332,-2.3135,-2.3135,-2.3135,-2.3135,-2.3135,-2.3135,-2.3135,-2.3135,-2.3135,-2.3135,-2.3135,-2.3135,-2.3135,-2.3135,-2.3135,-2.3135,-2.3135,-2.3135,-2.3135,-2.3135,-2.3135,-2.3135,-2.3135,-2.3135,-2.3135,-2.3135,-2.3135,-2.3135,-2.3135,-2.3135,-2.3135,-2.3135,-2.3135,-2.3135,-2.3135,-2.3135,-2.3135,-2.3135,-2.3135,-2.3135,-2.3135,-2.3135,-2.3135,-2.3135,-2.3135,-2.3135,-2.3135,-2.3135,-2.3135,-2.3135,-2.3135,-2.3135,-2.3135,-2.3135,-2.3135,-2.3135,-2.3135,-2.3135,-2.3135,-2.3135,-2.3135,-2.3135,-2.3135,-2.3135,-2.3135,-2.3135,-2.3135,-2.3135,-2.3135,-2.3135,-2.3135,-2.3135,-2.3135,-2.3135,-2.3135,-2.3135,-2.3135,-2.3135,-2.3135,-2.3135]},{"header":{"parameterUnit":"m.s-1","parameterCategory":1,"la1":30.6,"la2":28.766,"lo1":-90.7593,"lo2":-88.6598,"dy":0.0162,"dx":0.0183,"nx":116,"ny":114,"refTime":"2023-07-12T12:00:00:Z","depth":0,"parameterNumber":3,"parameterNumberName":"V-component_of_WINDS"},"data":[0.0,0.0,0.0,0.0,0.0,0.0,0.0,0.0,0.0,0.0,0.0,0.0,0.0,0.0,0.0,0.0,0.0,0.0,0.0,0.0,0.0,0.0,0.0,0.0,0.0,0.0,0.0,0.0,0.0,0.0,0.0,0.0,0.0,0.0,0.0,0.0,0.0,0.0,0.0,0.0,0.0,0.0,0.0,0.0,0.0,0.0,0.0,0.0,0.0,0.0,0.0,0.0,0.0,0.0,0.0,0.0,0.0,0.0,0.0,0.0,0.0,0.0,0.0,0.0,0.0,0.0,0.0,0.0,0.0,0.0,0.0,0.0,0.0,0.0,0.0,0.0,0.0,0.0,0.0,0.0,0.0,0.0,0.0,0.0,0.0,0.0,0.0,0.0,0.0,0.0,0.0,0.0,0.0,0.0,0.0,0.0,0.0,0.0,0.0,0.0,0.0,0.0,0.0,0.0,0.0,0.0,0.0,0.0,0.0,0.0,0.0,0.0,0.0,0.0,0.0,0.0,0.0,0.0,0.0,0.0,0.0,0.0,0.0,0.0,0.0,0.0,0.0,0.0,0.0,0.0,0.0,0.0,0.0,0.0,0.0,0.0,0.0,0.0,0.0,0.0,0.0,0.0,0.0,0.0,0.0,0.0,0.0,0.0,0.0,0.0,0.0,0.0,0.0,0.0,0.0,0.0,0.0,0.0,0.0,0.0,0.0,0.0,0.0,0.0,0.0,0.0,0.0,0.0,0.0,0.0,0.0,0.0,0.0,0.0,0.0,0.0,0.0,0.0,0.0,0.0,0.0,0.0,0.0,0.0,0.0,0.0,0.0,0.0,0.0,0.0,0.0,0.0,0.0,0.0,0.0,0.0,0.0,0.0,0.0,0.0,0.0,0.0,0.0,0.0,0.0,0.0,0.0,0.0,0.0,0.0,0.0,0.0,0.0,0.0,0.0,0.0,0.0,0.0,0.0,0.0,0.0,0.0,0.0,0.0,0.0,0.0,0.0,0.0,0.0,0.0,0.0,0.0,0.0,0.0,0.0,0.0,0.0,0.0,0.0,0.0,0.0,0.0,0.0,0.0,0.0,0.0,0.0,0.0,0.0,0.0,0.0,0.0,0.0,0.0,0.0,0.0,0.0,0.0,0.0,0.0,0.0,0.0,0.0,0.0,0.0,0.0,0.0,0.0,0.0,0.0,0.0,0.0,0.0,0.0,0.0,0.0,0.0,0.0,0.0,0.0,0.0,0.0,0.0,0.0,0.0,0.0,0.0,0.0,0.0,0.0,0.0,0.0,0.0,0.0,0.0,0.0,0.0,0.0,0.0,0.0,0.0,0.0,0.0,0.0,0.0,0.0,0.0,0.0,0.0,0.0,0.0,0.0,0.0,0.0,0.0,0.0,0.0,0.0,0.0,0.0,0.0,0.0,0.0,0.0,0.0,0.0,0.0,0.0,0.0,0.0,0.0,0.0,0.0,0.0,0.0,0.0,0.0,0.0,0.0,0.0,0.0,0.0,0.0,0.0,0.0,0.0,0.0,0.0,0.0,0.0,0.0,0.0,0.0,0.0,0.0,0.0,0.0,0.0,0.0,0.0,0.0,0.0,0.0,0.0,0.0,0.0,0.0,0.0,0.0,0.0,0.0,0.0,0.0,0.0,0.0,0.0,0.0,0.0,0.0,0.0,0.0,0.0,0.0,0.0,0.0,0.0,0.0,0.0,0.0,0.0,0.0,0.0,0.0,0.0,0.0,0.0,0.0,0.0,0.0,0.0,0.0,0.0,0.0,0.0,0.0,0.0,0.0,0.0,0.0,0.0,0.0,0.0,0.0,0.0,0.0,0.0,0.0,0.0,0.0,0.0,0.0,0.0,0.0,0.0,0.0,0.0,0.0,0.0,0.0,0.0,0.0,0.0,0.0,0.0,0.0,0.0,0.0,0.0,0.0,0.0,0.0,0.0,0.0,0.0,0.0,0.0,0.0,0.0,0.0,0.0,0.0,0.0,0.0,0.0,0.0,0.0,0.0,0.0,0.0,0.0,0.0,0.0,0.0,0.0,0.0,0.0,0.0,0.0,0.0,0.0,0.0,0.0,0.0,0.0,0.0,0.0,0.0,0.0,0.0,0.0,0.0,0.0,0.0,0.0,0.0,0.0,0.0,0.0,0.0,0.0,0.0,0.0,0.0,0.0,0.0,0.0,0.0,0.0,0.0,0.0,0.0,0.0,0.0,0.0,0.0,0.0,0.0,0.0,0.0,0.0,0.0,0.0,0.0,0.0,0.0,0.0,0.0,0.0,0.0,0.0,0.0,0.0,0.0,0.0,0.0,0.0,0.0,0.0,0.0,0.0,0.0,0.0,0.0,0.0,0.0,0.0,0.0,0.0,0.0,0.0,0.0,0.0,0.0,0.0,0.0,0.0,0.0,0.0,0.0,0.0,0.0,0.0,0.0,0.0,0.0,0.0,0.0,0.0,0.0,0.0,0.0,0.0,0.0,0.0,0.0,0.0,0.0,0.0,0.0,0.0,0.0,0.0,0.0,0.0,0.0,0.0,0.0,0.0,0.0,0.0,0.0,0.0,0.0,0.0,0.0,0.0,0.0,0.0,0.0,0.0,0.0,0.0,0.0,0.0,0.0,0.0,0.0,0.0,0.0,0.0,0.0,0.0,0.0,0.0,0.0,0.0,0.0,0.0,0.0,0.0,0.0,0.0,0.0,0.0,0.0,0.0,0.0,0.0,0.0,0.0,0.0,0.0,0.0,0.0,0.0,0.0,0.0,0.0,0.0,0.0,0.0,0.0,0.0,0.0,0.0,0.0,0.0,0.0,0.0,0.0,0.0,0.0,0.0,0.0,0.0,0.0,0.0,0.0,0.0,0.0,0.0,0.0,0.0,0.0,0.0,0.0,0.0,0.0,0.0,0.0,0.0,0.0,0.0,0.0,0.0,0.0,0.0,0.0,0.0,0.0,0.0,0.0,0.0,0.0,0.0,0.0,0.0,0.0,0.0,0.0,0.0,0.0,0.0,0.0,0.0,0.0,0.0,0.0,0.0,0.0,0.0,0.0,0.0,0.0,0.0,0.0,0.0,0.0,0.0,0.0,0.0,0.0,0.0,0.0,0.0,0.0,0.0,0.0,0.0,0.0,0.0,0.0,0.0,0.0,0.0,0.0,0.0,0.0,0.0,0.0,0.0,0.0,0.0,0.0,0.0,0.0,0.0,0.0,0.0,0.0,0.0,0.0,0.0,0.0,0.0,0.0,0.0,0.0,0.0,0.0,0.0,0.0,0.0,0.0,0.0,0.0,0.0,0.0,0.0,0.0,0.0,0.0,0.0,0.0,0.0,0.0,0.0,0.0,0.0,0.0,0.0,0.0,0.0,0.0,0.0,0.0,0.0,0.0,0.0,0.0,0.0,0.0,0.0,0.0,0.0,0.0,0.0,0.0,0.0,0.0,0.0,0.0,0.0,0.0,0.0,0.0,0.0,0.0,0.0,0.0,0.0,0.0,0.0,0.0,0.0,0.0,0.0,0.0,0.0,0.0,0.0,0.0,0.0,0.0,0.0,0.0,0.0,0.0,0.0,0.0,0.0,0.0,0.0,0.0,0.0,0.0,0.0,0.0,0.0,0.0,0.0,0.0,0.0,0.0,0.0,0.0,0.0,0.0,0.0,0.0,0.0,0.0,0.0,0.0,0.0,0.0,0.0,0.0,0.0,0.0,0.0,0.0,0.0,0.0,0.0,0.0,0.0,0.0,0.0,0.0,0.0,0.0,0.0,0.0,0.0,0.0,0.0,0.0,0.0,0.0,0.0,0.0,0.0,0.0,0.0,0.0,0.0,0.0,0.0,0.0,0.0,0.0,0.0,0.0,0.0,0.0,0.0,0.0,0.0,0.0,0.0,0.0,0.0,0.0,0.0,0.0,0.0,0.0,0.0,0.0,0.0,0.0,0.0,0.0,0.0,0.0,0.0,0.0,0.0,0.0,0.0,0.0,0.0,0.0,0.0,0.0,0.0,0.0,0.0,0.0,0.0,0.0,0.0,0.0,0.0,0.0,0.0,0.0,0.0,0.0,0.0,0.0,0.0,0.0,0.0,0.0,0.0,0.0,0.0,0.0,0.0,0.0,0.0,0.0,0.0,0.0,0.0,0.0,0.0,0.0,0.0,0.0,0.0,0.0,0.0,0.0,0.0,0.0,0.0,0.0,0.0,0.0,0.0,0.0,0.0,0.0,0.0,0.0,0.0,0.0,0.0,0.0,0.0,0.0,0.0,0.0,0.0,0.0,0.0,0.0,0.0,0.0,0.0,0.0,0.0,0.0,0.0,0.0,0.0,0.0,0.0,0.0,0.0,0.0,0.0,0.0,0.0,0.0,0.0,0.0,0.0,0.0,0.0,0.0,0.0,0.0,0.0,0.0,0.0,0.0,0.0,0.0,0.0,0.0,0.0,0.0,0.0,0.0,0.0,0.0,0.0,0.0,0.0,0.0,0.0,0.0,0.0,0.0,0.0,0.0,0.0,0.0,0.0,0.0,0.0,0.0,0.0,0.0,0.0,0.0,0.0,0.0,0.0,0.0,0.0,0.0,0.0,0.0,0.0,0.0,0.0,0.0,0.0,0.0,0.0,0.0,0.0,0.0,0.0,0.0,0.0,0.0,0.0,0.0,0.0,0.0,0.0,0.0,0.0,0.0,0.0,0.0,0.0,0.0,0.0,0.0,0.0,0.0,0.0,0.0,0.0,0.0,0.0,0.0,0.0,0.0,0.0,0.0,0.0,0.0,0.0,0.0,0.0,0.0,0.0,0.0,0.0,0.0,0.0,0.0,0.0,0.0,0.0,0.0,0.0,0.0,0.0,0.0,0.0,0.0,0.0,0.0,0.0,0.0,0.0,0.0,0.0,0.0,0.0,0.0,0.0,0.0,0.0,0.0,0.0,0.0,0.0,0.0,0.0,0.0,0.0,0.0,0.0,0.0,0.0,0.0,0.0,0.0,0.0,0.0,0.0,0.0,0.0,0.0,0.0,0.0,0.0,0.0,0.0,0.0,0.0,0.0,0.0,0.0,0.0,0.0,0.0,0.0,0.0,0.0,0.0,0.0,0.0,0.0,0.0,0.0,0.0,0.0,0.0,0.0,0.0,0.0,0.0,0.0,0.0,0.0,0.0,0.0,0.0,0.0,0.0,0.0,0.0,0.0,0.0,0.0,0.0,0.0,0.0,0.0,0.0,0.0,0.0,0.0,0.0,0.0,0.0,0.0,0.0,0.0,0.0,0.0,0.0,0.0,0.0,0.0,0.0,0.0,0.0,0.0,0.0,0.0,0.0,0.0,0.0,0.0,0.0,0.0,0.0,0.0,0.0,0.0,0.0,0.0,0.0,0.0,0.0,0.0,0.0,0.0,0.0,0.0,0.0,0.0,0.0,0.0,0.0,0.0,0.0,0.0,0.0,0.0,0.0,0.0,0.0,0.0,0.0,0.0,0.0,0.0,0.0,0.0,0.0,0.0,0.0,0.0,0.0,0.0,0.0,0.0,0.0,0.0,0.0,0.0,0.0,0.0,0.0,0.0,0.0,0.0,0.0,0.0,0.0,0.0,0.0,0.0,0.0,0.0,0.0,0.0,0.0,0.0,0.0,0.0,0.0,0.0,0.0,0.0,0.0,0.0,0.0,0.0,0.0,0.0,0.0,0.0,0.0,0.0,0.0,0.0,0.0,0.0,0.0,0.0,0.0,0.0,0.0,0.0,0.0,0.0,0.0,0.0,0.0,0.0,0.0,0.0,0.0,0.0,0.0,0.0,0.0,0.0,0.0,0.0,0.0,0.0,0.0,0.0,0.0,0.0,0.0,0.0,0.0,0.0,0.0,0.0,0.0,0.0,0.0,0.0,0.0,0.0,0.0,0.0,0.0,0.0,0.0,0.0,0.0,0.0,0.0,0.0,0.0,0.0,0.0,0.0,0.0,0.0,0.0,0.0,0.0,0.0,0.0,0.0,0.0,0.0,0.0,0.0,0.0,0.0,0.0,0.0,0.0,0.0,0.0,0.0,0.0,0.0,0.0,0.0,0.0,0.0,0.0,0.0,0.0,0.0,0.0,0.0,0.0,0.0,-3.0903,0.0,0.0,0.0,0.0,0.0,0.0,0.0,0.0,0.0,0.0,0.0,0.0,0.0,0.0,0.0,0.0,0.0,0.0,0.0,0.0,0.0,0.0,0.0,0.0,0.0,0.0,0.0,0.0,0.0,0.0,0.0,0.0,0.0,0.0,0.0,0.0,0.0,0.0,0.0,-1.6033,-1.5955,-1.5784,-1.6204,-1.5779,-1.4734,0.0,0.0,0.0,0.0,0.0,0.0,0.0,0.0,0.0,0.0,0.0,0.0,0.0,0.0,0.0,0.0,0.0,0.0,0.0,0.0,0.0,0.0,0.0,0.0,0.0,0.0,0.0,0.0,0.0,0.0,0.0,0.0,0.0,0.0,0.0,0.0,0.0,0.0,0.0,0.0,0.0,0.0,0.0,0.0,0.0,0.0,0.0,0.0,0.0,0.0,0.0,0.0,0.0,0.0,0.0,0.0,0.0,0.0,0.0,0.0,0.0,0.0,0.0,0.0,0.0,0.0,0.0,0.0,0.0,0.0,0.0,-3.1286,0.0,0.0,0.0,0.0,0.0,0.0,0.0,0.0,0.0,0.0,0.0,0.0,0.0,0.0,0.0,0.0,0.0,0.0,0.0,0.0,0.0,0.0,0.0,0.0,0.0,0.0,0.0,0.0,0.0,0.0,0.0,0.0,0.0,0.0,0.0,0.0,0.0,0.0,-1.7604,-1.743,-1.7262,-1.7945,-1.7196,-1.5401,-1.5401,0.0,0.0,0.0,0.0,0.0,0.0,0.0,0.0,0.0,0.0,0.0,0.0,0.0,0.0,0.0,0.0,0.0,0.0,0.0,0.0,0.0,0.0,0.0,0.0,0.0,0.0,0.0,0.0,0.0,0.0,0.0,0.0,0.0,0.0,0.0,0.0,0.0,0.0,0.0,0.0,0.0,0.0,0.0,0.0,0.0,0.0,0.0,0.0,0.0,0.0,0.0,0.0,0.0,0.0,0.0,0.0,0.0,0.0,0.0,0.0,0.0,0.0,0.0,0.0,0.0,-3.0986,-3.0986,-3.1061,-3.1272,-3.1123,-3.1286,-3.1609,0.0,0.0,0.0,0.0,0.0,0.0,0.0,0.0,0.0,0.0,0.0,0.0,0.0,0.0,0.0,0.0,0.0,0.0,0.0,0.0,0.0,0.0,0.0,0.0,0.0,0.0,0.0,0.0,0.0,0.0,0.0,0.0,0.0,0.0,-1.8143,-1.8048,-1.7771,-1.7771,-1.7953,-1.83,-1.8387,-1.8329,-1.7981,-1.7981,-1.7803,-1.7595,0.0,0.0,0.0,0.0,0.0,0.0,0.0,0.0,0.0,0.0,0.0,0.0,0.0,0.0,0.0,0.0,0.0,0.0,0.0,0.0,0.0,0.0,0.0,0.0,0.0,0.0,0.0,0.0,0.0,0.0,0.0,0.0,0.0,0.0,0.0,0.0,0.0,0.0,0.0,0.0,0.0,-3.1576,-3.1145,0.0,0.0,0.0,0.0,0.0,0.0,0.0,0.0,0.0,0.0,0.0,0.0,0.0,0.0,-3.0986,-3.0986,-3.0986,-3.0986,-3.0986,-3.0986,-3.0986,-3.0986,-3.0986,-3.1061,-3.1421,0.0,-3.1609,-3.2036,0.0,0.0,0.0,0.0,0.0,0.0,0.0,0.0,0.0,0.0,0.0,0.0,0.0,0.0,0.0,0.0,0.0,0.0,0.0,0.0,0.0,0.0,0.0,0.0,0.0,0.0,0.0,0.0,0.0,0.0,0.0,0.0,0.0,-1.9019,-1.8832,-1.8628,-1.8807,-1.8905,-1.8636,-1.9262,-1.9351,-1.9165,-1.9343,-1.9025,-1.8319,-1.8829,0.0,0.0,0.0,0.0,0.0,0.0,0.0,0.0,0.0,0.0,0.0,0.0,0.0,0.0,0.0,0.0,0.0,0.0,0.0,0.0,0.0,0.0,0.0,0.0,0.0,0.0,0.0,0.0,0.0,0.0,0.0,0.0,0.0,0.0,0.0,0.0,0.0,0.0,0.0,-3.2069,-3.1996,-3.1776,-3.1629,-3.1629,0.0,0.0,0.0,0.0,0.0,0.0,0.0,0.0,0.0,-3.1656,-3.1421,-3.1356,-3.147,-3.147,-3.1627,-3.1954,-3.1954,-3.1954,-3.194,-3.2159,-3.2312,-3.2312,-3.2782,-3.2934,-3.2893,-3.2573,-3.2561,-3.2775,0.0,0.0,0.0,0.0,0.0,0.0,0.0,0.0,0.0,0.0,0.0,0.0,0.0,0.0,0.0,0.0,0.0,0.0,0.0,0.0,0.0,-1.6275,0.0,0.0,0.0,0.0,0.0,0.0,0.0,0.0,0.0,0.0,-1.9571,-1.9463,-1.9737,-1.9646,-1.9371,-2.011,-2.0283,-2.0002,-2.0283,-1.9834,-1.8874,-1.9892,-1.9924,-1.9469,0.0,0.0,0.0,0.0,0.0,0.0,0.0,0.0,0.0,0.0,0.0,0.0,0.0,0.0,0.0,0.0,0.0,0.0,0.0,0.0,0.0,0.0,0.0,0.0,0.0,0.0,0.0,0.0,0.0,0.0,0.0,0.0,0.0,0.0,0.0,0.0,0.0,-3.2241,-3.2386,-3.2241,-3.2314,-3.2314,0.0,0.0,0.0,0.0,0.0,0.0,-3.2736,-3.28,-3.275,-3.2482,-3.232,-3.2222,-3.2368,-3.2368,-3.2579,-3.3001,-3.3001,-3.3001,-3.3001,-3.3301,-3.3456,-3.3534,-3.3932,-3.4175,-3.4093,-3.3234,-3.301,-3.3139,-3.3213,-3.3241,0.0,-3.3326,-3.3452,-3.3632,0.0,0.0,0.0,0.0,0.0,0.0,0.0,0.0,0.0,0.0,0.0,0.0,0.0,0.0,-1.6176,-1.6617,-1.672,-1.7128,0.0,0.0,0.0,0.0,0.0,0.0,0.0,0.0,0.0,-2.0201,-1.9828,-2.0093,-2.0907,-2.0736,-2.0736,-2.0898,-2.0988,-2.0517,-1.971,-2.088,-2.1165,-2.0903,-2.2422,0.0,0.0,0.0,0.0,0.0,0.0,0.0,0.0,0.0,0.0,0.0,0.0,0.0,0.0,0.0,0.0,0.0,0.0,0.0,0.0,0.0,0.0,0.0,0.0,0.0,0.0,0.0,0.0,0.0,0.0,0.0,0.0,0.0,0.0,0.0,0.0,0.0,0.0,-3.2417,-3.2561,0.0,0.0,0.0,0.0,-3.2632,-3.3111,-3.3454,-3.3601,-3.3854,-3.4004,-3.4156,-3.4004,-3.3865,-3.3892,-3.3905,-3.3919,-3.3946,-3.3946,-3.3946,-3.3946,-3.3946,-3.3946,-3.4023,-3.4389,-3.4554,-3.4499,-3.3716,-3.3441,-3.3491,-3.3139,-3.3143,-3.3326,-3.3326,-3.3326,-3.3326,0.0,0.0,0.0,0.0,0.0,0.0,0.0,0.0,0.0,0.0,0.0,0.0,0.0,-1.7747,-1.7474,-1.731,-1.7515,-1.8047,-1.9076,0.0,0.0,0.0,0.0,0.0,0.0,0.0,-2.1338,-2.1427,-2.1418,-2.1596,-2.1872,-2.1177,-2.0907,-2.0988,-2.1606,-2.1701,-2.1484,-2.2341,-2.2601,-2.2436,-2.3928,-2.4331,0.0,0.0,0.0,0.0,0.0,0.0,0.0,0.0,0.0,0.0,0.0,0.0,0.0,0.0,0.0,0.0,0.0,0.0,0.0,0.0,0.0,0.0,0.0,0.0,0.0,0.0,0.0,0.0,0.0,0.0,0.0,0.0,0.0,0.0,0.0,0.0,0.0,-3.2632,-3.2775,0.0,0.0,-3.3239,-3.3404,-3.3864,-3.4173,-3.4386,-3.446,-3.4655,-3.4705,-3.4479,-3.4774,-3.5004,-3.5165,-3.5532,-3.5926,-3.6334,-3.6334,-3.6334,-3.6334,-3.6551,-3.6699,-3.6713,-3.7129,-3.7144,-3.6632,-3.6032,-3.5306,-3.464,-3.4489,-3.4492,-3.4492,-3.4492,-3.4492,-3.4492,0.0,0.0,0.0,0.0,0.0,0.0,0.0,0.0,0.0,0.0,0.0,-1.9286,-1.8625,-1.8282,-1.8001,-1.7743,-1.8141,-1.8727,-1.9546,0.0,0.0,0.0,0.0,0.0,0.0,-2.1952,-2.2208,-2.2208,-2.2394,-2.2482,-2.2658,-2.2217,-2.2129,-2.2217,-2.2482,-2.2921,-2.3357,-2.3617,-2.378,-2.4008,-2.4922,-2.5247,-2.5242,0.0,0.0,0.0,0.0,0.0,0.0,0.0,0.0,0.0,0.0,0.0,0.0,0.0,0.0,0.0,0.0,0.0,0.0,0.0,0.0,0.0,0.0,0.0,0.0,0.0,0.0,0.0,0.0,0.0,0.0,0.0,0.0,0.0,0.0,0.0,-3.2858,-3.2994,-3.3151,-3.3545,-3.4039,-3.4094,-3.4275,-3.4752,-3.5111,-3.5395,-3.5605,-3.5967,-3.6101,-3.608,-3.6406,-3.673,-3.6809,-3.7208,-3.7621,-3.8033,-3.8033,-3.8033,-3.8033,-3.8339,-3.8422,-3.8422,-3.8779,-3.8622,-3.8201,-3.7793,-3.7147,-3.6395,-3.5564,-3.5226,-3.5226,-3.5226,-3.5226,-3.5226,0.0,0.0,0.0,0.0,0.0,0.0,0.0,0.0,0.0,0.0,-2.0042,-1.9146,-1.9348,-1.849,-1.7971,-1.8172,-1.8643,-1.9096,-1.9637,-1.9729,0.0,0.0,0.0,0.0,-2.2394,-2.2648,-2.2736,-2.2736,-2.2561,-2.2746,-2.3183,-2.378,-2.4221,-2.4498,-2.3531,-2.3887,-2.52,-2.4754,-2.4914,-2.5568,-2.5568,-2.6019,-2.6561,0.0,0.0,0.0,0.0,0.0,0.0,0.0,0.0,0.0,0.0,0.0,0.0,0.0,0.0,0.0,0.0,0.0,0.0,0.0,0.0,0.0,0.0,0.0,0.0,0.0,0.0,0.0,0.0,0.0,0.0,0.0,0.0,0.0,-3.2526,-3.2816,-3.3195,-3.3675,-3.3876,-3.4172,-3.4887,-3.4957,-3.5046,-3.5236,-3.5798,-3.6388,-3.7007,-3.7611,-3.8215,-3.8847,-3.8889,-3.8903,-3.8903,-3.8917,-3.8931,-3.8931,-3.8931,-3.8931,-3.8931,-3.8931,-3.8931,-3.8931,-3.8931,-3.8917,-3.8903,-3.8903,-3.8889,-3.8622,-3.6206,-3.5339,-3.5339,-3.5325,-3.5296,-3.5282,0.0,0.0,0.0,0.0,0.0,0.0,0.0,0.0,0.0,0.0,-2.1955,-2.1521,-2.0916,-2.0811,-2.0773,-2.0701,-2.0799,-2.1069,-2.1596,0.0,0.0,0.0,0.0,0.0,-2.2648,-2.4029,-2.4372,-2.3694,-2.4457,-2.4967,-2.5052,-2.3867,-2.379,-2.4498,-2.4231,-2.4648,-2.5663,-2.5495,-2.5924,-2.6704,-2.6704,-2.6798,-2.6809,0.0,0.0,0.0,0.0,0.0,0.0,0.0,0.0,0.0,0.0,0.0,0.0,0.0,0.0,0.0,0.0,0.0,0.0,0.0,0.0,0.0,0.0,0.0,0.0,0.0,0.0,0.0,0.0,0.0,0.0,0.0,0.0,-3.4233,-3.3581,-3.3973,-3.4482,-3.4724,-3.4826,-3.5064,-3.5681,-3.5737,-3.6192,-3.7077,-3.7302,-3.7681,-3.8313,-3.851,-3.8678,-3.8861,-3.9297,-3.9521,-3.9521,-3.9971,-4.0196,-4.0196,-4.0196,-4.0196,-4.0196,-4.0196,-4.0196,-4.0196,-4.0196,-3.9943,-3.9521,-3.9521,-3.9269,-3.8791,-3.8116,-3.785,-3.7793,-3.7316,-3.6866,-3.6487,0.0,0.0,0.0,0.0,0.0,0.0,0.0,0.0,0.0,0.0,-2.2683,-2.2226,-2.1686,-2.1715,-2.1686,-2.1695,-2.1961,-2.2315,-2.258,0.0,0.0,0.0,0.0,-2.4018,-2.4018,-2.5052,-2.5316,-2.4808,-2.5484,-2.5819,-2.583,-2.5158,-2.5084,-2.56,-2.5253,-2.5495,-2.6351,-2.5997,-2.6351,-2.7231,-2.7231,-2.7067,-2.6891,-2.6891,-2.6809,-2.6644,-2.6644,-2.6644,-2.6561,-2.6396,0.0,0.0,0.0,0.0,0.0,0.0,0.0,0.0,0.0,0.0,0.0,0.0,0.0,0.0,0.0,0.0,0.0,0.0,0.0,0.0,0.0,0.0,0.0,0.0,-3.4927,-3.518,-3.4878,-3.492,-3.5162,-3.5503,-3.562,-3.5883,-3.6754,-3.6838,-3.7245,-3.8243,-3.8313,-3.858,-3.9212,-3.9255,-3.9367,-3.9634,-3.9971,-4.0168,-4.0168,-4.0519,-4.0702,-4.0702,-4.0702,-4.0702,-4.0702,-4.0702,-4.0702,0.0,-4.0702,-4.0491,-4.0168,-4.0168,-3.9957,0.0,0.0,0.0,0.0,0.0,-3.8088,-3.7779,0.0,0.0,0.0,0.0,0.0,0.0,0.0,0.0,0.0,0.0,0.0,-2.2217,-2.2217,-2.1863,-2.1695,-2.2041,-2.2668,-2.3105,0.0,0.0,0.0,-2.4392,-2.5316,-2.5819,-2.5819,-2.5913,-2.5913,-2.5819,-2.5997,-2.5997,-2.5997,-2.6704,-2.7138,-2.7219,-2.6257,-2.6351,-2.7149,-2.6351,-2.6445,-2.7231,-2.7231,-2.7056,-2.6891,-2.6891,-2.6809,-2.6644,-2.6644,-2.6644,-2.6644,-2.6644,0.0,0.0,0.0,0.0,0.0,0.0,0.0,0.0,0.0,0.0,0.0,0.0,0.0,0.0,0.0,0.0,0.0,0.0,0.0,0.0,0.0,0.0,0.0,0.0,-3.5461,-3.6025,-3.6178,-3.577,-3.5658,-3.6206,-3.6276,-3.6726,-3.7892,-3.8004,-3.8271,-3.8917,-3.8974,-3.924,-3.9859,0.0,0.0,0.0,0.0,-4.0912,-4.0912,-4.0912,-4.0912,-4.0912,-4.0912,-4.0912,-4.0912,-4.0912,-4.0912,-4.0912,-4.0828,-4.08,-4.08,-4.073,-4.0702,-4.0589,-3.9493,-3.903,-3.8974,-3.8974,-3.8999,0.0,0.0,0.0,0.0,0.0,0.0,0.0,0.0,0.0,0.0,-2.3754,-2.3396,-2.3309,-2.3396,-2.3387,-2.3647,-2.4413,-2.4509,-2.468,0.0,0.0,-2.5359,-2.629,-2.6008,-2.5819,-2.5819,-2.667,-2.6753,-2.5819,-2.694,-2.736,-2.7174,-2.661,-2.6775,-2.736,-2.6246,-2.6351,-2.7149,-2.6974,-2.7056,-2.7231,-2.7231,-2.7149,-2.7149,-2.7149,-2.7149,-2.7067,-2.7067,-2.7067,-2.7056,-2.6891,-2.6809,-2.6809,-2.6561,0.0,0.0,0.0,0.0,0.0,0.0,0.0,0.0,0.0,0.0,0.0,0.0,0.0,0.0,0.0,0.0,0.0,0.0,0.0,0.0,-3.5884,-3.6429,-3.681,-3.681,-3.7133,-3.7414,-3.754,-3.754,-3.785,-3.8608,-3.8678,-3.8931,-3.9564,-3.9606,-3.9873,-4.0491,-4.0997,0.0,-4.1432,-4.1938,-4.2219,-4.2219,-4.2219,-4.2219,-4.2219,0.0,0.0,-4.2219,-4.2219,-4.2219,-4.2191,-4.1671,-4.1446,-4.1404,-4.0898,-4.0702,-4.0674,-4.0435,-4.0041,-3.9606,-3.9606,-3.9379,-3.912,0.0,0.0,0.0,0.0,0.0,0.0,0.0,0.0,0.0,0.0,-2.4024,-2.4024,-2.411,-2.4024,-2.4272,-2.5031,-2.5295,0.0,0.0,-2.6135,-2.6385,-2.6974,-2.6775,-2.667,-2.667,-2.736,-2.7441,-2.6857,-2.7545,-2.78,-2.7708,-2.729,-2.729,-2.7708,-2.7115,-2.7033,-2.7371,-2.7371,-2.7301,-2.7231,-2.7231,-2.7231,-2.7231,-2.7231,-2.7231,-2.7231,-2.7231,-2.688,-2.6528,-2.6891,-2.6715,-2.6362,-2.6633,-2.6644,-2.6479,0.0,0.0,0.0,0.0,0.0,0.0,0.0,0.0,0.0,0.0,0.0,0.0,0.0,0.0,-3.146,0.0,0.0,-3.5503,-3.6415,-3.6772,-3.7091,-3.74,-3.7709,-3.7906,-3.7906,-3.8187,-3.8636,-3.9269,-3.9325,-3.9578,-4.0196,-4.0519,-4.0828,-4.1137,-4.1755,-4.2093,-4.2093,-4.2416,-4.2584,-4.2584,-4.2584,-4.2584,-4.2584,-4.2584,-4.2584,-4.2584,-4.2584,-4.2584,-4.2556,-4.2233,-4.2093,-4.205,-4.1418,-4.1151,-4.1123,-4.0814,-4.0519,-4.0238,-4.0238,-4.0126,-3.9956,0.0,0.0,0.0,0.0,0.0,0.0,0.0,0.0,0.0,0.0,-2.454,-2.454,-2.454,-2.4368,-2.4529,0.0,0.0,0.0,0.0,-2.6809,-2.7056,-2.7231,-2.7371,-2.7441,-2.7522,-2.7788,-2.7893,-2.7893,-2.7962,-2.7962,-2.7962,-2.7962,-2.7962,-2.7962,-2.7881,-2.7788,-2.7522,-2.7522,-2.7371,-2.7231,-2.7231,-2.7231,-2.7231,-2.7231,-2.7056,-2.6962,-2.7138,-2.6528,-2.5913,-2.688,-2.6704,-2.6091,-2.6798,-2.6891,-2.6809,-2.6396,-2.6396,0.0,0.0,0.0,0.0,0.0,0.0,0.0,0.0,0.0,-2.8974,-2.9269,-3.0798,-3.2424,-3.3572,-3.4924,-3.6097,-3.6628,-3.6948,-3.733,-3.7835,-3.8102,-3.8271,-3.8271,-3.8735,-3.9283,-3.9901,-4.0069,-4.0336,-4.0842,-4.1446,-4.1797,-4.1797,-4.2416,-4.2753,-4.2753,-4.2879,-4.2935,-4.2935,-4.2935,-4.2935,-4.2935,-4.2935,-4.2935,-4.2935,-4.2935,-4.2935,-4.2921,-4.2809,-4.2697,-4.2542,-4.2022,-4.1797,-4.1755,-4.1264,-4.0983,-4.0856,-4.0744,-4.0787,-4.0873,0.0,0.0,0.0,0.0,0.0,0.0,0.0,0.0,0.0,0.0,0.0,0.0,0.0,0.0,0.0,0.0,0.0,0.0,-2.6644,-2.6974,-2.7149,-2.7231,-2.7231,-2.7301,-2.7522,-2.7788,-2.7893,-2.7893,-2.8283,-2.8351,-2.8179,-2.8179,-2.8179,-2.8179,-2.7962,-2.7788,-2.7522,-2.7522,-2.7371,-2.7231,-2.7231,-2.7231,-2.7231,-2.7231,-2.6704,-2.6091,-2.688,-2.6445,-2.5663,-2.6798,-2.6974,-2.6809,-2.7056,-2.7056,-2.6809,-2.6644,0.0,-2.6146,-2.599,-2.6063,-2.624,-2.6229,-2.6606,-2.7156,0.0,0.0,-2.8661,-2.9804,-3.1538,-3.3008,-3.3837,-3.5372,-3.6628,-3.6721,-3.7298,-3.7821,-3.7892,-3.8861,-3.9578,-3.9578,-3.9634,-3.9929,-4.0533,-4.1081,-4.1446,-4.1502,-4.2107,-4.2472,-4.2472,-4.3062,-4.3399,-4.3399,-4.3919,-4.4214,-4.4214,-4.4214,-4.4214,-4.4214,-4.4214,-4.4214,-4.4214,-4.4214,-4.4214,-4.4172,-4.3624,-4.309,-4.257,-4.25,-4.2472,-4.2458,-4.2388,-4.2022,-4.1446,-4.0898,-4.0958,-4.1311,0.0,0.0,0.0,0.0,0.0,0.0,0.0,0.0,0.0,0.0,0.0,0.0,0.0,0.0,0.0,0.0,0.0,0.0,-2.6644,-2.6985,-2.7231,-2.7231,-2.7301,-2.7452,-2.7522,-2.7857,-2.8111,-2.8111,-2.8351,-2.8431,-2.8179,-2.8339,-2.8271,-2.803,-2.803,-2.7857,-2.7522,-2.7522,-2.7371,-2.7231,-2.7231,-2.7231,-2.7231,-2.7231,-2.661,-2.583,-2.6257,-2.6008,0.0,0.0,-2.6268,-2.6196,-2.6974,-2.6974,-2.6633,-2.6633,-2.6385,0.0,-2.6396,-2.6479,-2.6479,0.0,-2.7417,-2.808,-2.7725,-2.8643,-2.9671,-2.9875,-3.1736,-3.345,-3.3875,-3.5588,-3.6962,0.0,-3.7658,-3.8159,-3.8889,-3.9451,-3.9915,-4.0266,-4.0631,-4.0955,-4.1207,-4.146,-4.1769,-4.2149,-4.2753,-4.3104,-4.3104,-4.3694,-4.4031,-4.4031,-4.4284,-4.4411,-4.4411,-4.4411,-4.4411,-4.4411,-4.4411,-4.4411,-4.4411,-4.4411,-4.4411,-4.4397,-4.4144,-4.3877,-4.3624,-4.3259,-4.3104,-4.3076,-4.2725,-4.2416,-4.2093,-4.146,-4.1097,-4.1043,0.0,0.0,0.0,0.0,0.0,0.0,0.0,0.0,0.0,0.0,0.0,0.0,0.0,0.0,0.0,0.0,0.0,0.0,0.0,-2.6985,-2.7231,-2.7231,-2.7371,-2.7522,-2.7615,-2.8018,-2.8259,-2.8259,-2.8431,-2.8431,-2.8179,-2.8431,-2.8283,-2.7893,-2.8111,-2.7926,-2.7522,-2.7522,-2.7371,-2.7231,-2.7231,-2.7231,-2.7231,-2.7231,-2.6704,-2.6091,-2.6091,-2.5746,0.0,-2.5652,-2.5663,-2.5589,-2.6279,-2.6373,-2.629,-2.6218,-2.6207,-2.6207,-2.6644,-2.6644,-2.6667,-2.6967,-2.7977,-2.8676,-2.8305,-2.9305,-3.031,-3.0255,-3.2007,-3.3707,-3.4056,-3.5778,-3.7386,-3.7835,-3.8187,-3.8735,-3.9662,-3.9929,-4.0266,-4.0884,-4.1334,-4.1755,-4.2093,-4.2135,-4.2331,-4.2795,-4.3399,-4.375,-4.375,-4.4172,-4.4411,-4.4411,-4.4411,-4.4411,-4.4411,-4.4411,-4.4411,-4.4411,-4.4411,-4.4411,-4.4411,-4.4411,-4.4411,-4.4411,-4.4411,-4.4411,-4.4383,-4.3933,-4.375,-4.3694,-4.3259,-4.2978,-4.2781,-4.2303,-4.1716,-4.1127,0.0,0.0,0.0,0.0,0.0,0.0,0.0,0.0,0.0,0.0,0.0,0.0,0.0,0.0,0.0,0.0,0.0,0.0,0.0,-2.7067,-2.7231,-2.7231,-2.7371,-2.7615,-2.7881,-2.8111,-2.8259,-2.851,-2.851,-2.8431,-2.8179,-2.8431,-2.8283,-2.7893,-2.8111,-2.7926,-2.7522,-2.7522,-2.7371,-2.7231,-2.7231,-2.7231,-2.7231,-2.7231,-2.7056,-2.6891,-2.6891,0.0,-2.4914,-2.5316,-2.5505,-2.5359,-2.4754,-2.52,0.0,-2.538,-2.5549,-2.5979,-2.6146,-2.6396,-2.6745,-2.7375,-2.7797,-2.8337,-2.9456,-2.9646,-2.9819,-3.1009,-3.2537,-3.3707,-3.4223,-3.628,-3.7878,-3.7906,-3.8931,-3.9746,-3.9774,-4.0294,-4.0898,-4.1516,-4.1601,-4.2093,0.0,-4.3441,-4.3441,-4.3469,-4.4031,-4.4383,-4.4383,-4.4397,-4.4411,-4.4411,-4.4411,-4.4411,-4.4411,-4.4411,-4.4411,-4.4411,-4.4411,-4.4411,-4.4411,-4.4411,-4.4411,-4.4411,-4.4411,-4.4411,-4.4411,-4.4397,-4.4383,-4.4383,-4.4355,-4.3989,-4.3469,-4.3441,-4.2937,-4.2209,0.0,0.0,0.0,0.0,0.0,0.0,0.0,0.0,0.0,0.0,0.0,0.0,0.0,0.0,0.0,0.0,0.0,0.0,0.0,-2.7138,-2.7149,-2.6985,-2.7219,-2.7383,-2.7615,-2.7869,-2.8111,-2.8339,-2.8339,-2.8191,-2.8042,-2.8191,-2.8018,-2.7476,-2.7938,-2.7857,-2.7301,-2.7441,-2.7371,-2.7231,-2.7231,-2.7231,-2.7149,-2.7067,-2.6891,-2.6622,0.0,0.0,-2.4935,-2.4296,-2.4211,-2.4402,-2.4638,-2.4734,-2.4754,-2.5105,-2.5633,-2.6146,-2.6396,-2.6869,-2.7318,-2.7752,-2.8556,-2.923,-2.95,-2.9912,-3.038,-3.1015,-3.1977,-3.3179,-3.4503,-3.5988,-3.7414,-3.8671,-3.9424,-3.9929,-4.0336,-4.0561,-4.0926,-4.1545,-4.1994,0.0,0.0,0.0,0.0,-4.4074,-4.4298,-4.4411,-4.4411,-4.4411,-4.4411,-4.4411,-4.4411,-4.4411,-4.4411,-4.4411,-4.4411,-4.4411,-4.4411,-4.4411,-4.4411,-4.4411,-4.4411,-4.4411,-4.4411,-4.4411,-4.4411,-4.4411,-4.4411,-4.4411,-4.4411,-4.4284,-4.4102,-4.4102,-4.3751,-4.3229,0.0,0.0,0.0,0.0,0.0,0.0,0.0,0.0,0.0,0.0,0.0,0.0,0.0,0.0,0.0,0.0,0.0,0.0,0.0,0.0,-2.7313,-2.6891,-2.7138,-2.7371,-2.7348,-2.7708,-2.7962,-2.8111,-2.8179,-2.8018,-2.7788,-2.8099,-2.7938,-2.7231,-2.7869,-2.7788,-2.7231,-2.7371,-2.7208,-2.6962,-2.6962,-2.688,-2.6727,-2.6561,-2.6385,0.0,0.0,0.0,-2.4765,-2.3973,-2.3714,-2.3724,-2.4049,-2.4333,-2.4619,-2.5243,-2.592,-2.6535,-2.6689,-2.716,-2.7736,-2.8099,-2.8948,-2.9692,-2.9711,-3.0088,-3.0487,-3.0781,-3.1637,-3.2823,-3.4517,-3.5902,-3.7383,-3.9017,-3.9619,-4.0082,-4.0488,-4.0812,-4.1177,-4.1882,-4.2514,-4.3146,0.0,0.0,0.0,-4.4383,-4.4411,-4.4411,-4.4411,-4.4411,-4.4411,-4.4411,-4.4411,-4.4411,-4.4411,-4.4411,-4.4411,-4.4411,-4.4411,-4.4411,-4.4411,-4.4411,-4.4411,-4.4411,-4.4411,-4.4411,-4.4411,-4.4411,-4.4411,-4.4411,-4.4411,-4.4411,-4.4411,-4.4504,-4.4422,-4.4243,0.0,0.0,0.0,0.0,0.0,0.0,0.0,0.0,0.0,0.0,0.0,0.0,0.0,0.0,0.0,0.0,0.0,0.0,0.0,0.0,0.0,-2.6891,-2.729,-2.7348,-2.7185,-2.7626,-2.7893,-2.7881,-2.8111,-2.7926,-2.751,-2.8179,-2.803,-2.7231,-2.7638,-2.7638,-2.7149,-2.7149,-2.688,-2.6445,-2.6445,-2.6207,-2.5895,-2.5895,0.0,0.0,0.0,-2.4765,-2.4166,-2.4166,-2.3917,-2.3493,-2.3222,-2.4112,-2.533,-2.5773,-2.6381,-2.689,-2.6967,-2.7277,-2.785,-2.8523,-2.9137,-2.9653,-3.0112,-3.0216,-3.0306,-3.0578,-3.1448,-3.2748,0.0,0.0,-3.7605,-3.8957,-3.9637,-4.0097,-4.0399,-4.0914,-4.1616,0.0,0.0,0.0,0.0,0.0,0.0,-4.4411,0.0,-4.4411,-4.4411,-4.4411,-4.4411,-4.4411,-4.4411,-4.4411,-4.4411,-4.4411,-4.4411,-4.4411,-4.4411,-4.4411,-4.4411,-4.4411,-4.4411,-4.4411,-4.4411,-4.4411,-4.4411,-4.4411,-4.4411,-4.4411,-4.4411,-4.4411,-4.4411,-4.469,-4.4862,-4.4946,0.0,0.0,0.0,0.0,0.0,0.0,0.0,0.0,0.0,0.0,0.0,0.0,0.0,0.0,0.0,0.0,0.0,0.0,0.0,0.0,0.0,0.0,0.0,0.0,0.0,0.0,0.0,-2.7615,-2.7684,-2.7603,-2.7522,-2.7684,-2.7452,-2.6974,-2.7371,-2.729,-2.6727,-2.6704,-2.6528,-2.6268,0.0,-2.5979,-2.5895,0.0,0.0,0.0,0.0,0.0,-2.3667,-2.3667,-2.382,-2.3973,-2.4296,-2.5073,-2.5931,-2.6063,-2.6462,-2.6963,-2.7356,-2.7872,-2.8545,-2.916,-2.9665,-3.0067,-3.0181,-3.0216,-3.0306,-3.0781,-3.1139,-3.2115,0.0,0.0,0.0,-3.9408,-4.0159,0.0,-4.0616,-4.1149,0.0,-4.25,0.0,-4.3736,-4.4355,-4.4411,0.0,0.0,-4.4411,-4.4411,-4.4411,-4.4411,-4.4411,-4.4411,-4.4411,-4.4411,-4.4411,-4.4411,-4.4411,-4.4411,-4.4411,-4.4411,-4.4411,-4.4411,-4.4411,-4.4411,-4.4411,-4.4411,-4.4411,-4.4411,-4.4411,-4.4411,-4.4411,-4.4411,-4.4411,-4.4504,-4.4504,-4.4569,0.0,0.0,0.0,0.0,0.0,0.0,0.0,0.0,0.0,0.0,0.0,0.0,0.0,0.0,0.0,0.0,0.0,0.0,0.0,0.0,0.0,0.0,0.0,0.0,0.0,0.0,0.0,0.0,0.0,0.0,-2.7196,-2.7534,-2.7464,-2.7056,-2.7278,-2.7115,-2.6727,-2.6633,0.0,0.0,0.0,0.0,0.0,0.0,0.0,0.0,0.0,0.0,0.0,0.0,0.0,-2.4925,-2.5326,-2.5899,-2.6473,-2.6512,0.0,-2.7288,-2.7633,-2.8236,-2.8827,-2.9366,-2.986,-3.0216,-3.0216,-3.0216,-3.0318,-3.0601,-3.0883,0.0,-3.4641,0.0,0.0,0.0,0.0,0.0,-4.0544,-4.1299,-4.2074,0.0,-4.3357,0.0,-4.4383,-4.4411,-4.4411,0.0,-4.4411,-4.4411,-4.4411,-4.4411,-4.4411,-4.4411,-4.4411,-4.4411,-4.4411,-4.4411,-4.4411,-4.4411,-4.4411,-4.4411,-4.4411,-4.4411,-4.4411,-4.4411,0.0,-4.4411,-4.4411,-4.4411,-4.4411,-4.4411,-4.4411,-4.4411,-4.4411,-4.4583,-4.4676,-4.4769,0.0,0.0,0.0,0.0,0.0,0.0,0.0,0.0,0.0,0.0,0.0,0.0,0.0,0.0,0.0,0.0,0.0,0.0,0.0,0.0,0.0,0.0,0.0,0.0,0.0,0.0,0.0,0.0,0.0,0.0,0.0,0.0,0.0,0.0,0.0,0.0,0.0,0.0,0.0,0.0,0.0,0.0,0.0,0.0,0.0,0.0,0.0,0.0,0.0,0.0,-2.5979,-2.6063,-2.629,-2.6579,-2.6919,-2.6934,-2.7254,-2.7747,-2.7973,-2.8436,-2.893,-2.9458,-2.9906,-3.0216,-3.0216,-3.0216,-3.0216,-3.0216,0.0,-3.1872,-3.4272,-3.5403,-3.6788,-3.9196,0.0,-4.0097,-4.0385,-4.1435,-4.2265,-4.257,-4.3582,-4.4326,-4.4397,-4.4411,-4.4411,-4.4411,-4.4411,-4.4411,-4.4411,-4.4411,-4.4411,-4.4411,-4.4411,-4.4411,-4.4411,-4.4411,-4.4411,-4.4411,-4.4411,-4.4411,-4.4411,-4.4411,-4.4411,-4.4411,0.0,0.0,-4.4411,-4.4411,-4.4411,-4.4411,-4.4411,-4.4411,-4.4411,-4.4862,-4.5032,-4.5032,0.0,0.0,0.0,0.0,0.0,0.0,0.0,0.0,0.0,0.0,-3.0622,0.0,0.0,0.0,0.0,0.0,0.0,0.0,0.0,0.0,0.0,0.0,0.0,0.0,0.0,0.0,0.0,0.0,0.0,0.0,0.0,0.0,0.0,0.0,0.0,0.0,0.0,0.0,0.0,0.0,0.0,0.0,0.0,0.0,0.0,0.0,0.0,0.0,-2.5538,-2.603,-2.6279,-2.6456,-2.688,-2.7113,-2.717,-2.7172,-2.7504,-2.7985,-2.8471,-2.8964,-2.9481,-2.9975,-3.0147,-3.0216,-3.0216,-3.0216,0.0,0.0,-3.1193,-3.2347,-3.4035,-3.5596,-3.7303,-3.8968,0.0,0.0,0.0,0.0,-4.1892,0.0,-4.3216,-4.3849,-4.4355,0.0,0.0,0.0,0.0,0.0,-4.4411,-4.4411,-4.4411,-4.4411,-4.4411,-4.4411,-4.4411,-4.4411,-4.4411,-4.4411,-4.4411,-4.4411,-4.4411,-4.4411,-4.4411,-4.4411,0.0,0.0,-4.4411,-4.4411,-4.4411,-4.4411,-4.4411,-4.4411,-4.4411,-4.4504,-4.4504,-4.4504,0.0,0.0,0.0,0.0,0.0,0.0,0.0,0.0,0.0,0.0,-3.0911,-3.0986,0.0,0.0,0.0,0.0,0.0,0.0,0.0,0.0,0.0,0.0,0.0,0.0,0.0,0.0,0.0,0.0,0.0,0.0,0.0,0.0,0.0,0.0,0.0,0.0,0.0,0.0,0.0,0.0,0.0,0.0,0.0,0.0,0.0,0.0,0.0,0.0,0.0,-2.5957,-2.6373,-2.6798,-2.7056,-2.7231,-2.7277,-2.7541,-2.7793,-2.8149,-2.8907,-2.9297,-2.9607,-3.0089,-3.0216,-3.0216,-3.0216,0.0,0.0,0.0,-3.1282,-3.2399,-3.3809,-3.5605,0.0,-3.8831,-3.9809,-4.0471,-4.0702,-4.1221,0.0,-4.25,-4.3452,-4.4257,0.0,0.0,0.0,0.0,0.0,0.0,-4.4411,-4.4411,-4.4411,-4.4411,-4.4411,-4.4411,-4.4411,-4.4411,-4.4411,-4.4411,-4.4411,-4.4411,-4.4411,-4.4411,-4.4411,-4.4411,0.0,0.0,-4.4411,-4.4411,-4.4411,-4.4411,-4.4411,-4.4411,-4.4411,-4.4597,-4.4597,-4.4597,0.0,0.0,0.0,0.0,0.0,0.0,0.0,-3.0903,-3.1016,-3.0852,-3.1014,-3.1066,-3.1048,-3.0986,-3.0748,0.0,0.0,0.0,0.0,0.0,0.0,0.0,0.0,0.0,0.0,0.0,0.0,0.0,0.0,0.0,0.0,0.0,0.0,0.0,0.0,0.0,0.0,0.0,0.0,0.0,0.0,0.0,0.0,0.0,0.0,0.0,0.0,0.0,0.0,0.0,-2.6313,-2.6809,-2.6974,-2.7136,-2.7389,-2.7779,-2.8042,-2.8385,-2.9286,-2.9573,-2.9745,-3.0124,-3.0216,-3.0216,-3.0216,-3.0216,0.0,-3.0397,-3.1359,-3.2537,-3.3732,-3.5508,-3.7246,0.0,-3.9601,-4.0232,-4.0688,-4.1109,-4.1801,0.0,-4.3681,0.0,0.0,0.0,0.0,0.0,0.0,0.0,0.0,-4.469,-4.4597,-4.4411,-4.4537,-4.4607,-4.4607,-4.4748,-4.4818,-4.4818,-4.4818,-4.4818,-4.4818,-4.4818,-4.4818,-4.4818,0.0,0.0,0.0,-4.4818,-4.4818,-4.4818,-4.4818,-4.4734,-4.4607,-4.4809,-4.4818,-4.4705,0.0,0.0,0.0,0.0,0.0,0.0,0.0,-3.0041,-3.0241,-3.0415,-3.0494,-3.0619,-3.0934,-3.0986,-3.0659,0.0,0.0,0.0,0.0,0.0,0.0,0.0,0.0,0.0,0.0,0.0,0.0,0.0,0.0,0.0,0.0,0.0,0.0,0.0,0.0,0.0,0.0,0.0,0.0,0.0,0.0,0.0,0.0,0.0,0.0,0.0,0.0,0.0,0.0,0.0,0.0,-2.6313,-2.6561,-2.7042,-2.7583,-2.7595,0.0,0.0,-2.9381,-2.9814,-3.0158,-3.0204,-3.0216,-3.0216,-3.0216,0.0,-3.0397,-3.1026,-3.214,-3.3091,-3.3849,-3.5425,-3.696,-3.8103,0.0,-3.9546,-4.0532,-4.0744,-4.1467,-4.3256,0.0,0.0,0.0,0.0,0.0,0.0,0.0,0.0,0.0,-4.5413,-4.5046,-4.4411,-4.4945,-4.524,-4.524,-4.583,-4.6125,-4.6125,-4.6125,-4.6125,-4.6125,-4.6125,-4.6125,-4.6125,0.0,0.0,0.0,-4.6125,-4.6125,-4.6125,-4.6125,-4.5759,-4.524,-4.524,-4.4888,-4.4411,0.0,0.0,0.0,0.0,0.0,0.0,0.0,-3.0171,-3.0265,-3.0201,-3.0405,-3.0408,-3.0041,-3.0226,-3.0114,0.0,0.0,0.0,0.0,0.0,0.0,0.0,0.0,0.0,0.0,0.0,0.0,0.0,0.0,0.0,0.0,0.0,0.0,0.0,0.0,0.0,0.0,0.0,0.0,0.0,0.0,0.0,0.0,0.0,0.0,0.0,0.0,0.0,0.0,0.0,0.0,0.0,-2.6499,-2.7101,0.0,0.0,-2.8559,-2.926,-2.9759,-3.0078,-3.0216,-3.0216,-3.0216,-3.0216,-3.0216,0.0,-3.0397,-3.1128,-3.2227,-3.3164,-3.3869,-3.5429,-3.6975,-3.802,-3.8711,0.0,-4.0532,-4.0702,-4.1269,0.0,0.0,0.0,0.0,0.0,0.0,0.0,0.0,0.0,0.0,0.0,-4.6162,-4.6268,-4.611,-4.6144,-4.6595,-4.6429,-4.6293,-4.6293,-4.6293,-4.6293,-4.6293,-4.6293,-4.6293,-4.6293,0.0,0.0,0.0,-4.6293,-4.6293,-4.6293,-4.6293,-4.6139,-4.5914,-4.5914,-4.5507,-4.4959,0.0,0.0,0.0,0.0,0.0,0.0,-2.9658,-2.9713,-2.9862,-2.9806,-3.0057,-3.0006,-2.9446,-2.9467,-2.9374,-2.8846,0.0,0.0,0.0,0.0,0.0,0.0,0.0,0.0,0.0,0.0,0.0,0.0,0.0,0.0,0.0,0.0,0.0,0.0,0.0,0.0,0.0,0.0,0.0,0.0,0.0,0.0,0.0,0.0,0.0,0.0,0.0,0.0,0.0,0.0,0.0,0.0,0.0,-2.725,-2.7911,0.0,-2.8767,-2.9308,-2.9943,-3.0136,-3.0216,-3.0216,-3.0216,-3.0216,0.0,0.0,-3.0758,-3.1737,-3.2661,-3.3505,-3.4217,-3.5475,-3.6852,-3.7993,-3.863,-3.9353,-4.049,-4.0859,0.0,0.0,0.0,0.0,0.0,0.0,0.0,0.0,0.0,0.0,0.0,0.0,-4.7435,-4.7524,-4.7129,-4.7189,-4.7701,-4.7093,-4.6827,-4.6827,-4.6827,-4.6827,-4.6827,-4.6827,-4.6827,0.0,0.0,0.0,0.0,-4.6827,-4.6827,-4.6827,-4.6827,-4.6715,-4.6574,-4.6574,-4.5928,-4.5057,0.0,0.0,0.0,0.0,0.0,0.0,0.0,-2.8471,-2.8752,-2.9147,-2.9228,-2.9247,-2.9369,-2.8875,-2.8415,-2.8211,0.0,0.0,0.0,0.0,0.0,0.0,0.0,0.0,0.0,0.0,-2.7067,-2.6891,-2.6727,0.0,0.0,0.0,0.0,0.0,0.0,0.0,0.0,0.0,0.0,0.0,0.0,0.0,0.0,0.0,0.0,0.0,0.0,0.0,0.0,0.0,0.0,0.0,0.0,-2.7643,-2.8036,-2.8296,-2.8912,-2.9577,-2.9794,-3.0057,-3.0216,-3.0216,-3.0216,-3.0397,0.0,0.0,-3.1661,-3.3043,-3.3713,-3.4204,-3.499,-3.567,-3.6564,-3.8007,-3.8339,0.0,-4.0519,-4.1283,0.0,0.0,0.0,0.0,0.0,0.0,0.0,0.0,0.0,0.0,0.0,0.0,-4.9022,-4.7554,-4.797,-4.8254,-4.8254,-4.8155,-4.8106,-4.8106,-4.8106,-4.8106,-4.8106,-4.8106,0.0,0.0,0.0,0.0,0.0,-4.8106,-4.8106,-4.8106,-4.8106,-4.774,-4.7193,-4.7193,-4.6012,-4.4425,0.0,0.0,0.0,0.0,0.0,0.0,0.0,-2.8587,-2.8655,-2.8779,-2.8906,-2.9019,-2.8975,-2.8575,-2.8273,-2.8211,0.0,0.0,0.0,0.0,0.0,0.0,0.0,0.0,0.0,0.0,-2.7149,-2.7149,-2.6809,-2.6561,-2.6479,-2.6063,0.0,0.0,0.0,0.0,0.0,0.0,0.0,0.0,0.0,0.0,0.0,0.0,0.0,0.0,0.0,0.0,0.0,0.0,0.0,0.0,0.0,0.0,0.0,-2.8521,-2.9098,0.0,-2.9794,-3.0057,-3.0216,-3.0216,-3.0216,-3.0397,-3.1116,0.0,-3.1737,-3.3129,-3.3713,-3.4217,-3.4743,-3.5589,-3.6346,-3.7209,-3.7993,-3.9017,0.0,0.0,0.0,0.0,0.0,0.0,0.0,0.0,0.0,0.0,0.0,0.0,0.0,0.0,0.0,-4.9706,-4.9809,-4.9804,-4.9691,-4.9147,-4.8595,-4.812,-4.812,-4.812,-4.812,-4.812,0.0,0.0,0.0,0.0,0.0,-4.812,-4.7881,-4.7488,-4.7488,-4.7122,-4.6574,-4.6574,-4.5661,-4.4411,0.0,0.0,0.0,0.0,0.0,0.0,0.0,-2.8587,-2.8587,-2.8509,-2.8571,-2.8701,-2.8705,-2.8299,-2.8053,-2.8187,0.0,0.0,0.0,0.0,0.0,0.0,0.0,0.0,0.0,-2.7231,-2.7231,-2.7231,-2.6891,-2.6644,-2.6561,-2.6229,-2.5979,-2.5906,0.0,0.0,0.0,0.0,0.0,0.0,0.0,0.0,-2.6922,0.0,0.0,0.0,0.0,0.0,0.0,0.0,0.0,0.0,0.0,0.0,0.0,0.0,-2.922,-2.9691,-2.9691,-2.9954,-3.0216,-3.0216,-3.0397,0.0,0.0,0.0,-3.2438,-3.3556,-3.4147,-3.4551,-3.4908,-3.567,-3.6438,-3.7097,-3.8249,-3.9439,0.0,0.0,0.0,0.0,0.0,0.0,0.0,0.0,0.0,0.0,0.0,0.0,0.0,0.0,0.0,-5.0697,-5.0833,-5.0843,-5.0887,-5.0124,-4.9444,-4.898,-4.8695,-4.8595,-4.8495,0.0,0.0,0.0,0.0,0.0,0.0,-4.7431,-4.7207,-4.6869,-4.6869,-4.6631,-4.6293,-4.6293,-4.5352,-4.4059,0.0,0.0,0.0,0.0,0.0,0.0,0.0,0.0,0.0,0.0,-2.8314,-2.8412,-2.8666,-2.7986,-2.7763,0.0,0.0,0.0,0.0,0.0,0.0,0.0,0.0,0.0,0.0,-2.7231,-2.7231,-2.7231,-2.6974,-2.6809,-2.6561,-2.6346,-2.6118,-2.5972,-2.6463,0.0,0.0,0.0,0.0,0.0,0.0,0.0,0.0,0.0,0.0,0.0,0.0,0.0,0.0,0.0,0.0,0.0,0.0,0.0,0.0,0.0,0.0,0.0,0.0,-2.9943,-3.0306,-3.0306,-3.0847,0.0,0.0,0.0,0.0,-3.4314,-3.4825,-3.5154,-3.5399,-3.5978,-3.665,-3.7418,-3.8851,0.0,0.0,0.0,0.0,0.0,0.0,0.0,0.0,0.0,0.0,0.0,0.0,0.0,0.0,0.0,0.0,0.0,-5.1303,-5.1619,-5.1587,-5.0887,-5.0463,-5.0324,-4.9567,-4.9161,-4.9104,0.0,0.0,0.0,0.0,0.0,0.0,-4.6293,-4.6265,-4.6223,-4.6223,-4.6195,-4.6153,-4.6111,-4.4973,-4.3427,0.0,0.0,0.0,0.0,0.0,0.0,0.0,0.0,0.0,0.0,-2.8478,-2.8452,-2.9201,-2.8217,0.0,0.0,0.0,0.0,0.0,0.0,0.0,0.0,0.0,0.0,0.0,-2.7231,-2.7231,-2.7231,-2.6974,-2.6809,-2.6573,-2.6679,-2.6601,-2.6474,-2.6944,-2.7151,0.0,0.0,0.0,0.0,0.0,0.0,0.0,0.0,0.0,0.0,-2.8418,-2.8495,0.0,0.0,0.0,0.0,0.0,0.0,0.0,0.0,-3.0023,-3.0644,-3.0543,0.0,-3.1038,-3.1038,-3.1548,-3.2239,0.0,-3.33,-3.3654,-3.4507,-3.4921,0.0,0.0,-3.5978,-3.6577,-3.7197,-3.8696,-4.0211,0.0,0.0,0.0,0.0,0.0,0.0,0.0,0.0,0.0,0.0,0.0,0.0,0.0,0.0,0.0,0.0,-5.1322,-5.1622,-5.1572,-5.1386,-5.0728,-4.966,-4.8885,-4.8269,-4.7726,0.0,0.0,0.0,0.0,0.0,0.0,-4.6293,-4.5998,-4.5563,-4.5563,-4.5268,-4.4804,-4.4326,-4.3582,-4.2815,0.0,0.0,0.0,0.0,0.0,0.0,0.0,0.0,0.0,0.0,0.0,0.0,0.0,0.0,0.0,0.0,0.0,0.0,0.0,0.0,0.0,0.0,0.0,0.0,-2.7231,-2.7231,-2.7231,-2.7231,-2.7378,-2.7232,-2.6909,-2.7208,-2.7269,-2.6966,-2.7435,-2.7774,0.0,0.0,0.0,0.0,0.0,0.0,0.0,0.0,0.0,0.0,-2.8757,-2.8757,0.0,-2.8757,-2.885,-2.8943,0.0,0.0,0.0,0.0,-3.0554,-3.1181,-3.1613,-3.1701,-3.1725,-3.1725,-3.2326,-3.2945,-3.3313,-3.3654,-3.4076,-3.4673,-3.5003,0.0,0.0,0.0,0.0,0.0,-3.9653,0.0,0.0,0.0,0.0,0.0,0.0,0.0,0.0,0.0,0.0,0.0,0.0,0.0,0.0,0.0,0.0,0.0,0.0,-5.1061,-5.1682,-5.1698,-5.1061,-5.002,-4.926,-4.8512,-4.7817,0.0,0.0,0.0,0.0,0.0,-4.6404,-4.6073,-4.5859,-4.578,-4.5531,-4.516,-4.4819,-4.4219,-4.3343,-4.2519,0.0,0.0,0.0,0.0,0.0,0.0,0.0,0.0,0.0,0.0,0.0,0.0,0.0,0.0,0.0,0.0,0.0,0.0,0.0,0.0,0.0,0.0,0.0,-2.7231,-2.7231,-2.73,-2.7346,-2.7346,-2.7839,-2.7923,-2.7521,-2.7906,-2.79,-2.7555,-2.796,-2.8375,0.0,0.0,0.0,0.0,-2.8757,0.0,0.0,0.0,0.0,0.0,0.0,0.0,0.0,-2.8757,-2.8943,-2.9128,-2.9128,0.0,0.0,0.0,0.0,0.0,-3.2587,-3.2834,-3.2735,-3.2575,-3.3018,-3.3569,-3.3654,-3.4063,-3.4564,-3.4921,-3.5236,0.0,0.0,-3.7323,0.0,0.0,0.0,0.0,0.0,0.0,0.0,0.0,0.0,0.0,0.0,0.0,0.0,0.0,0.0,0.0,0.0,0.0,0.0,0.0,0.0,-4.9912,-5.1067,-5.139,-5.1205,-5.0543,-4.9771,-4.8985,-4.8339,-4.7687,0.0,0.0,0.0,0.0,-4.6491,-4.5927,-4.6002,-4.6403,-4.5721,-4.5461,-4.5375,-4.4647,-4.3719,-4.2694,0.0,0.0,0.0,0.0,0.0,0.0,0.0,0.0,0.0,0.0,0.0,0.0,0.0,0.0,0.0,0.0,0.0,0.0,0.0,0.0,0.0,0.0,-2.7231,-2.7231,-2.7231,-2.7644,-2.7874,-2.7874,-2.8356,-2.8425,-2.82,-2.851,-2.8588,-2.8538,-2.8615,-2.868,-2.8757,-2.8757,-2.8757,-2.8757,-2.8757,0.0,0.0,0.0,0.0,0.0,0.0,0.0,0.0,-2.8757,-2.8943,-2.9128,-2.9393,0.0,0.0,0.0,0.0,0.0,-3.33,-3.405,-3.4703,-3.394,-3.3953,-3.4314,-3.4743,-3.4908,-3.5072,-3.5467,0.0,0.0,0.0,-3.7567,-3.8225,0.0,0.0,0.0,0.0,0.0,0.0,0.0,0.0,0.0,0.0,0.0,0.0,0.0,0.0,0.0,0.0,0.0,0.0,0.0,0.0,-4.8019,-4.8235,-4.9974,-5.0513,-4.9835,-4.9088,-4.8422,-4.7707,-4.6977,-4.655,0.0,0.0,0.0,-4.6491,-4.6403,-4.6403,-4.6432,-4.5756,-4.5492,-4.5358,-4.417,-4.3642,-4.3392,0.0,0.0,0.0,0.0,0.0,0.0,0.0,0.0,0.0,0.0,0.0,0.0,0.0,0.0,0.0,0.0,0.0,0.0,0.0,0.0,0.0,-2.7964,-2.7869,-2.7704,-2.7633,-2.8115,-2.8367,-2.8367,-2.8884,-2.9038,-2.8786,-2.8835,-2.8907,-2.8757,-2.8757,-2.8757,-2.8757,-2.8757,-2.8757,-2.8757,0.0,0.0,0.0,0.0,0.0,0.0,0.0,0.0,0.0,0.0,-2.9474,-3.0102,-3.0193,0.0,0.0,0.0,0.0,0.0,-3.4314,-3.4812,-3.5236,-3.5141,-3.5141,-3.5209,-3.5763,-3.5924,-3.6084,-3.6674,0.0,0.0,0.0,0.0,0.0,0.0,0.0,0.0,0.0,0.0,0.0,0.0,0.0,0.0,0.0,0.0,0.0,0.0,0.0,0.0,0.0,0.0,0.0,0.0,0.0,0.0,-4.6511,-4.7819,-4.8512,-4.8573,-4.8561,-4.8222,-4.7578,-4.7649,-4.7463,0.0,0.0,-4.7634,-4.7603,-4.683,-4.6766,-4.6945,-4.5978,-4.5582,-4.5408,-4.4122,-4.3345,-4.3138,0.0,0.0,0.0,0.0,0.0,0.0,0.0,0.0,0.0,0.0,0.0,0.0,0.0,0.0,0.0,0.0,0.0,0.0,0.0,0.0,-2.7883,-2.8457,-2.8397,-2.8347,-2.8318,-2.8717,-2.8971,-2.8971,-2.9412,-2.9475,-2.9195,-2.9226,-2.9128,-2.885,-2.885,-2.885,-2.885,-2.885,-2.8757,-2.8757,0.0,0.0,0.0,0.0,0.0,0.0,0.0,0.0,0.0,0.0,0.0,0.0,0.0,0.0,0.0,-3.353,-3.3966,-3.4301,-3.5072,-3.5318,-3.5413,-3.5898,-3.5817,-3.5871,-3.6559,-3.678,-3.6986,0.0,0.0,0.0,0.0,0.0,0.0,0.0,0.0,0.0,0.0,0.0,0.0,0.0,0.0,0.0,0.0,0.0,0.0,0.0,0.0,0.0,0.0,0.0,0.0,0.0,0.0,0.0,-4.5357,-4.6018,-4.6696,-4.7373,-4.7896,-4.7956,-4.7607,-4.8125,-4.8125,-4.7607,-4.8125,-4.8373,-4.826,-4.7228,-4.7189,-4.7691,-4.6513,-4.6005,-4.5679,-4.4673,-4.4003,-4.3588,0.0,0.0,0.0,0.0,0.0,0.0,0.0,0.0,0.0,0.0,0.0,0.0,0.0,0.0,0.0,0.0,0.0,0.0,0.0,0.0,-2.7904,-2.794,-2.8386,-2.8761,-2.9327,-2.9584,-2.9753,-2.9753,-3.0007,-2.9886,-2.9429,-2.9474,-2.9312,-2.9035,-2.885,-2.8943,-2.9035,-2.885,-2.8757,-2.8757,-2.8757,0.0,0.0,0.0,0.0,0.0,0.0,0.0,0.0,0.0,0.0,0.0,0.0,0.0,-3.3628,-3.3869,-3.4634,-3.5223,-3.5154,-3.5575,-3.5992,-3.5804,-3.5562,-3.571,-3.6978,-3.7169,-3.7434,-3.8308,0.0,0.0,0.0,0.0,0.0,0.0,0.0,0.0,0.0,0.0,0.0,0.0,0.0,0.0,0.0,0.0,0.0,0.0,0.0,0.0,0.0,0.0,0.0,0.0,0.0,0.0,-4.4649,-4.5326,-4.6003,-4.6665,-4.6726,-4.7065,-4.7599,-4.7681,-4.7681,-4.7599,-4.7681,-4.7681,-4.7665,-4.7538,-4.7891,-4.8481,-4.7722,-4.7046,-4.6511,-4.6386,-4.6355,-4.6291,0.0,0.0,0.0,0.0,0.0,0.0,0.0,0.0,0.0,0.0,0.0,0.0,0.0,0.0,0.0,0.0,0.0,0.0,0.0,0.0,-2.8253,-2.8748,-2.8857,-2.9344,-3.0298,-2.998,-2.9962,-3.0287,-3.0214,-2.9943,-2.9485,-2.9485,-2.9301,-2.8943,-2.885,-2.885,-2.8943,-2.8943,-2.8943,-2.9035,-2.9209,-2.9209,0.0,0.0,0.0,0.0,0.0,0.0,0.0,0.0,-3.204,-3.2747,0.0,-3.3797,-3.441,-3.4799,-3.5141,-3.5399,-3.548,-3.6017,-3.6573,-3.6665,-3.7028,0.0,0.0,-3.8084,-3.8517,-3.9493,-3.9793,0.0,0.0,0.0,0.0,0.0,0.0,0.0,0.0,0.0,0.0,0.0,0.0,0.0,0.0,0.0,0.0,0.0,0.0,0.0,0.0,0.0,0.0,0.0,0.0,0.0,0.0,-4.4833,-4.5295,-4.5972,-4.6388,-4.6942,-4.7604,-4.7604,-4.7835,-4.8235,-4.8235,-4.8235,-4.8204,-4.7773,-4.7758,-4.7912,-4.7234,-4.6819,-4.6603,-4.6603,-4.6603,-4.6603,0.0,0.0,0.0,0.0,0.0,0.0,0.0,0.0,0.0,0.0,0.0,0.0,0.0,0.0,0.0,0.0,0.0,0.0,0.0,-2.8259,-2.8506,-2.9039,-2.8877,-2.9379,-3.0603,-3.0099,-3.008,-3.0847,-3.0578,-3.0216,-2.976,-2.976,-2.9497,-2.9139,-2.9139,-2.9139,-2.9128,-2.9312,-2.9312,-2.9209,-2.9393,-2.9669,0.0,0.0,0.0,0.0,0.0,0.0,0.0,0.0,-3.3262,0.0,0.0,0.0,0.0,0.0,-3.571,-3.5937,-3.6017,-3.6702,-3.7295,-3.7491,0.0,0.0,-3.8679,-3.8914,-3.9364,-4.0316,-4.0709,-4.1278,-4.2663,0.0,0.0,0.0,0.0,0.0,0.0,0.0,0.0,0.0,0.0,0.0,0.0,0.0,0.0,0.0,0.0,0.0,0.0,0.0,0.0,0.0,0.0,0.0,0.0,-4.4895,-4.5234,-4.5911,-4.6372,-4.6942,-4.7604,-4.7604,-4.785,-4.8296,-4.8296,-4.8296,-4.8266,-4.7788,-4.7727,-4.7881,-4.7419,-4.7234,-4.7234,-4.7234,-4.7234,-4.7234,0.0,0.0,0.0,0.0,0.0,0.0,0.0,0.0,0.0,0.0,0.0,0.0,0.0,0.0,0.0,0.0,0.0,0.0,-2.851,-2.851,-2.851,-2.851,-2.851,-2.9015,-3.0062,-2.9845,-3.0272,-3.1306,-3.1062,-3.0691,-3.0216,-3.0216,-3.0045,-2.9886,-2.9886,-2.9886,-2.9886,-2.9897,-2.9783,-2.9485,-2.9485,-2.992,-3.0543,0.0,0.0,0.0,0.0,0.0,0.0,0.0,-3.4037,-3.4204,0.0,0.0,0.0,-3.5642,-3.6243,-3.6936,-3.6936,-3.751,-3.8101,-3.8101,0.0,0.0,-3.9175,-3.9508,-3.9839,-4.0401,-4.1109,-4.2017,-4.3325,0.0,0.0,0.0,0.0,0.0,0.0,0.0,0.0,0.0,0.0,0.0,0.0,0.0,0.0,0.0,0.0,0.0,0.0,0.0,0.0,0.0,0.0,0.0,0.0,-4.5603,-4.5942,-4.6603,-4.6603,-4.6957,-4.7604,-4.7604,-4.7604,-4.7619,-4.7619,-4.7619,-4.7619,-4.7619,-4.8004,-4.862,-4.862,-4.862,-4.862,-4.862,-4.862,-4.862,0.0,0.0,0.0,0.0,0.0,0.0,0.0,0.0,0.0,0.0,0.0,0.0,0.0,0.0,0.0,0.0,0.0,0.0,-2.851,-2.851,-2.851,-2.851,-2.8871,-2.9388,-3.0074,-3.0721,-3.1097,-3.1062,-3.1062,-3.0781,-3.0487,-3.0306,-3.0125,-3.0136,-2.9977,-2.9977,-3.0136,-3.0318,-3.0306,-3.0295,-3.1003,-3.1359,-3.1625,0.0,0.0,0.0,0.0,0.0,0.0,0.0,0.0,0.0,0.0,0.0,0.0,-3.5642,-3.6243,-3.6936,-3.6936,-3.789,0.0,-3.8928,0.0,0.0,0.0,-4.0243,0.0,0.0,-4.2155,-4.2571,-4.3417,0.0,0.0,0.0,0.0,0.0,0.0,0.0,0.0,0.0,0.0,0.0,0.0,0.0,0.0,0.0,0.0,0.0,0.0,0.0,0.0,0.0,0.0,0.0,0.0,0.0,-4.6634,-4.7296,-4.7296,-4.7419,-4.7604,-4.7604,-4.7865,-4.8312,-4.8312,-4.8312,-4.8312,-4.8312,-4.8435,-4.862,-4.862,-4.862,-4.862,-4.862,-4.862,-4.862,0.0,0.0,0.0,0.0,0.0,0.0,0.0,0.0,0.0,0.0,0.0,0.0,0.0,0.0,0.0,0.0,0.0,0.0,0.0,0.0,-2.8607,-2.8823,-2.9124,-2.9641,-3.0386,-3.1327,-3.1673,-3.1241,-3.1241,-3.1139,-3.0847,-3.0668,-3.0578,-3.0499,-3.051,-3.0589,-3.0925,-3.1181,-3.1347,-3.1613,-3.214,-3.2575,-3.2846,0.0,0.0,0.0,0.0,0.0,0.0,0.0,0.0,0.0,0.0,0.0,0.0,-3.6523,-3.7302,-3.8083,-3.7886,-3.8796,0.0,-3.9763,-4.0146,-4.0601,-4.0893,0.0,0.0,0.0,0.0,-4.3187,0.0,0.0,0.0,0.0,0.0,0.0,0.0,0.0,0.0,0.0,0.0,0.0,0.0,0.0,0.0,0.0,0.0,0.0,0.0,0.0,0.0,0.0,0.0,0.0,0.0,0.0,0.0,-4.8004,-4.8004,-4.8004,-4.8004,-4.8004,-4.8235,-4.862,-4.862,-4.862,-4.862,-4.862,-4.862,-4.862,-4.862,-4.862,-4.862,-4.862,-4.862,-4.862,0.0,0.0,0.0,0.0,0.0,0.0,0.0,0.0,0.0,0.0,-3.2846,0.0,0.0,0.0,0.0,0.0,0.0,0.0,0.0,0.0,-2.8787,-2.928,-2.9388,-2.9917,-3.1014,-3.1695,-3.1937,-3.1749,-3.1749,-3.1572,-3.1306,-3.1306,-3.1229,-3.1062,-3.1229,-3.156,-3.2077,-3.2227,-3.2649,-3.3079,-3.3152,-3.3505,-3.4121,-3.4384,0.0,0.0,0.0,0.0,0.0,0.0,0.0,0.0,-3.7612,-3.8006,-3.8447,-3.8102,-3.8977,-3.9966,-3.9501,-3.9965,0.0,-4.0524,-4.0524,0.0,-4.1496,-4.1727,-4.2005,-4.2556,0.0,0.0,0.0,0.0,0.0,0.0,0.0,0.0,0.0,0.0,0.0,0.0,0.0,0.0,0.0,0.0,0.0,0.0,0.0,0.0,0.0,0.0,0.0,0.0,0.0,0.0,0.0,0.0,0.0,0.0,-4.862,-4.862,-4.862,-4.862,-4.862,-4.862,-4.862,-4.862,-4.862,-4.862,-4.862,-4.862,-4.862,-4.862,-4.862,-4.862,-4.862,-4.862,0.0,0.0,0.0,0.0,0.0,0.0,0.0,0.0,0.0,0.0,0.0,0.0,0.0,0.0,0.0,0.0,0.0,0.0,0.0,0.0,-2.9322,-2.9292,-3.0253,-3.1089,-3.1756,-3.1889,-3.1937,-3.1937,-3.1761,-3.1661,-3.1572,-3.1395,-3.1395,-3.1572,-3.1395,-3.1749,-3.2525,-3.2624,-3.2957,-3.3628,-3.4121,-3.4454,-3.462,-3.5209,-3.5467,0.0,0.0,0.0,0.0,0.0,0.0,0.0,-3.8173,-3.8641,-3.9088,-3.9347,-3.9817,-4.0307,-4.0157,-4.0345,0.0,0.0,-4.073,-4.1102,-4.1614,-4.2817,-4.3733,-4.3422,0.0,0.0,0.0,0.0,0.0,0.0,0.0,0.0,0.0,0.0,0.0,0.0,0.0,0.0,0.0,0.0,0.0,0.0,0.0,0.0,0.0,0.0,0.0,0.0,0.0,0.0,-4.8976,-4.8569,-4.8481,0.0,-4.862,-4.862,-4.862,-4.862,-4.862,-4.862,-4.862,-4.862,-4.862,-4.862,-4.862,-4.862,-4.862,-4.862,-4.862,-4.862,-4.862,-4.862,0.0,0.0,0.0,0.0,0.0,0.0,0.0,0.0,0.0,0.0,0.0,0.0,0.0,0.0,0.0,0.0,0.0,0.0,0.0,0.0,0.0,-3.0384,-3.1418,-3.1982,-3.2213,-3.2288,-3.2201,-3.2038,-3.1849,-3.1761,-3.1661,-3.1572,-3.1749,-3.2189,-3.2013,-3.2612,-3.3628,-3.3628,-3.405,-3.4716,-3.5046,-3.5223,-3.5209,-3.5548,-3.5804,-3.5939,-3.6198,0.0,0.0,0.0,0.0,0.0,0.0,0.0,-4.0931,-4.1023,-4.1173,-4.1289,-4.1058,0.0,0.0,-4.0524,0.0,-4.0987,-4.1541,-4.2985,-4.4154,0.0,0.0,0.0,0.0,0.0,0.0,0.0,0.0,0.0,0.0,0.0,0.0,0.0,0.0,0.0,0.0,0.0,0.0,0.0,0.0,0.0,0.0,0.0,0.0,0.0,0.0,0.0,-4.9275,-4.8867,-4.862,-4.862,-4.862,-4.862,-4.862,-4.862,-4.862,-4.862,-4.862,-4.862,-4.862,-4.862,-4.862,-4.862,-4.862,-4.862,-4.862,-4.862,-4.862,-4.862,0.0,0.0,0.0,0.0,0.0,0.0,0.0,0.0,0.0,0.0,0.0,0.0,0.0,0.0,0.0,0.0,0.0,0.0,0.0,0.0,0.0,0.0,-3.2339,-3.2636,-3.2562,-3.281,-3.2624,-3.2125,-3.2201,-3.2013,-3.1749,-3.1837,-3.2189,-3.2723,-3.2797,-3.3543,-3.4716,-3.4716,-3.5046,-3.571,-3.571,-3.5723,-3.5804,-3.5804,-3.5978,-3.6287,-3.6768,-3.7496,-3.8449,-3.9367,0.0,0.0,0.0,0.0,-4.2826,-4.2734,-4.2501,-4.2245,-4.1853,0.0,-4.0524,-4.0646,-4.0715,0.0,-4.1722,-4.3167,0.0,0.0,0.0,0.0,0.0,0.0,0.0,0.0,0.0,0.0,0.0,0.0,0.0,0.0,0.0,0.0,0.0,0.0,0.0,0.0,0.0,0.0,0.0,0.0,0.0,0.0,0.0,-4.9331,-4.8932,-4.8511,-4.8266,-4.8266,-4.8266,-4.8266,-4.8266,-4.8266,-4.8389,-4.862,-4.862,-4.862,-4.862,-4.862,-4.862,-4.8604,-4.8481,-4.8435,-4.8419,-4.8312,-4.8266,-4.8266,0.0,0.0,0.0,0.0,0.0,0.0,0.0,0.0,0.0,0.0,0.0,0.0,0.0,0.0,0.0,0.0,0.0,0.0,-3.033,0.0,0.0,-3.2106,-3.2498,-3.2884,-3.3227,-3.3471,-3.3215,-3.2636,-3.276,-3.2587,-3.195,-3.2376,-3.2624,-3.2723,-3.33,-3.3966,-3.4716,-3.4716,-3.5046,-3.571,-3.571,-3.5817,-3.6072,-3.6072,-3.6377,-3.6915,-3.6999,-3.7706,-3.8696,-3.9287,-4.032,0.0,0.0,0.0,-4.3536,-4.3928,-4.3348,-4.2514,-4.2494,0.0,-4.0646,0.0,-4.1623,-4.2158,0.0,0.0,0.0,0.0,0.0,0.0,0.0,0.0,0.0,0.0,0.0,0.0,0.0,0.0,0.0,0.0,0.0,0.0,0.0,0.0,0.0,0.0,0.0,0.0,0.0,0.0,-4.82,-4.8445,-4.8247,0.0,-4.7544,-4.7119,-4.6865,-4.6865,-4.6865,-4.6865,-4.6865,-4.6865,-4.7511,-4.862,-4.862,-4.862,-4.862,-4.862,-4.862,-4.8558,-4.7973,-4.7742,-4.7665,-4.708,-4.6865,-4.6865,0.0,0.0,0.0,0.0,0.0,0.0,0.0,0.0,0.0,0.0,0.0,0.0,0.0,0.0,0.0,-3.2874,-3.2273,-3.1736,-3.1328,-3.1526,-3.2117,-3.3075,-3.3359,-3.3713,-3.4288,-3.4371,-3.4204,-3.3797,-3.394,-3.3687,-3.3116,-3.37,-3.3713,-3.33,-3.3966,-3.4634,-3.5304,-3.5304,-3.5467,-3.571,-3.5898,-3.6204,-3.6587,-3.6679,-3.7211,-3.7796,-3.7796,-3.8428,-3.9314,-3.9865,-4.086,-4.203,-4.2749,0.0,0.0,0.0,-4.3267,-4.2505,-4.2108,-4.156,-4.1209,0.0,-4.2221,-4.2553,-4.3588,0.0,0.0,0.0,0.0,0.0,0.0,0.0,0.0,0.0,0.0,0.0,0.0,0.0,0.0,0.0,0.0,0.0,0.0,0.0,0.0,0.0,0.0,0.0,0.0,-4.7555,-4.7694,-4.7869,-4.7656,0.0,-4.7278,-4.6841,-4.6603,-4.6603,-4.6603,-4.6388,-4.6034,-4.6034,-4.6557,-4.7465,-4.708,-4.6927,-4.688,-4.6511,-4.6357,-4.6326,-4.6018,-4.5911,-4.588,-4.5572,-4.5464,-4.5464,0.0,0.0,0.0,0.0,0.0,0.0,0.0,0.0,0.0,0.0,0.0,0.0,0.0,0.0,0.0,0.0,-3.286,-3.2391,-3.2106,-3.2266,-3.2811,-3.3834,-3.4007,-3.4433,-3.5196,-3.5209,-3.5127,-3.4799,-3.4868,-3.4703,-3.4204,-3.4703,-3.4703,-3.4134,-3.4716,-3.5304,-3.5804,-3.5804,-3.5804,-3.5884,-3.6218,-3.6665,-3.7092,-3.7505,-3.8098,-3.8694,-3.8694,-3.9225,-3.9906,-4.0411,-4.1265,-4.2229,-4.2892,-4.3455,0.0,0.0,0.0,-4.2277,0.0,0.0,-4.1722,-4.2395,-4.2645,-4.2953,0.0,0.0,0.0,0.0,0.0,0.0,0.0,0.0,0.0,0.0,0.0,0.0,0.0,0.0,0.0,0.0,0.0,0.0,0.0,0.0,0.0,0.0,0.0,0.0,-4.6738,-4.6972,-4.7045,-4.6843,-4.6771,-4.6748,-4.6594,-4.6252,-4.608,-4.608,-4.608,-4.5818,-4.5326,-4.5157,-4.5341,-4.5818,-4.548,-4.5341,-4.5295,-4.4787,-4.4572,-4.4556,-4.4387,-4.4326,-4.431,-4.4141,-4.4079,-4.4079,0.0,0.0,0.0,0.0,0.0,0.0,0.0,0.0,0.0,0.0,0.0,0.0,-3.4206,-3.4085,-3.3825,-3.3312,-3.3072,-3.2717,-3.2169,-3.2265,-3.2867,-3.3959,-3.4032,0.0,-3.5615,-3.5871,-3.5615,-3.495,-3.5426,-3.5345,-3.4634,-3.4868,-3.5127,-3.5318,-3.5562,-3.5804,-3.6086,-3.6086,-3.6166,-3.6391,-3.7007,-3.7366,-3.7644,-3.8248,-3.8841,-3.9364,-3.9364,-3.9768,-4.0344,-4.0785,-4.1275,-4.173,-4.2199,-4.2517,-4.2694,0.0,0.0,0.0,-4.0985,-4.1292,0.0,-4.2599,-4.3152,0.0,0.0,0.0,0.0,0.0,0.0,0.0,0.0,0.0,0.0,0.0,0.0,0.0,0.0,0.0,0.0,0.0,0.0,0.0,0.0,0.0,0.0,0.0,0.0,0.0,-4.6356,-4.6333,-4.608,-4.5368,-4.5341,-4.5133,-4.4756,-4.4679,-4.4679,-4.4679,-4.4679,-4.4664,-4.4603,-4.3972,-4.3694,-4.3756,-4.4372,-4.4633,-4.4633,-4.4587,-4.4572,-4.451,-4.3879,-4.3618,-4.3556,-4.294,-4.2709,-4.2709,0.0,0.0,0.0,0.0,0.0,0.0,0.0,0.0,0.0,0.0,0.0,0.0,0.0,-3.4476,-3.4016,-3.3825,-3.3423,-3.3086,-3.2704,-3.3211,-3.3831,-3.4527,-3.512,-3.5714,-3.6494,-3.6587,-3.6494,-3.6256,-3.6494,-3.635,-3.5965,-3.6045,-3.6058,-3.6058,-3.5978,-3.6072,-3.6325,-3.6325,0.0,0.0,0.0,-3.7933,-3.8738,-3.9147,-3.9595,0.0,0.0,0.0,0.0,-4.0607,-4.1076,-4.1648,-4.1807,-4.2176,-4.2582,-4.2599,-4.2406,-4.2285,-4.2476,-4.2707,0.0,-4.3798,-4.4047,0.0,0.0,0.0,0.0,0.0,0.0,0.0,0.0,0.0,0.0,0.0,0.0,0.0,0.0,0.0,0.0,0.0,0.0,0.0,0.0,0.0,0.0,0.0,0.0,0.0,-4.6285,-4.6104,-4.5539,-4.4606,-4.4297,-4.4075,-4.3925,-4.4356,-4.4572,-4.4572,-4.4572,-4.4341,-4.3925,-4.3679,-4.3356,-4.294,-4.2756,-4.2663,-4.2633,-4.2171,-4.1986,-4.1955,-4.1709,-4.1617,-4.1586,-4.1355,-4.1263,-4.1263,0.0,0.0,0.0,0.0,0.0,0.0,0.0,0.0,0.0,-3.5538,0.0,0.0,0.0,0.0,-3.4476,-3.4138,-3.3632,-3.3241,-3.3072,-3.362,-3.4139,-3.4668,-3.5372,-3.6065,-3.6669,-3.6683,-3.6782,0.0,0.0,-3.6718,-3.6786,-3.6707,-3.6786,-3.6915,-3.647,-3.6498,-3.6758,0.0,0.0,-3.781,0.0,0.0,-3.9493,0.0,0.0,0.0,0.0,0.0,0.0,0.0,0.0,-4.1862,-4.1862,-4.2191,-4.2595,-4.2579,-4.2591,-4.2707,-4.3136,-4.341,0.0,0.0,0.0,0.0,0.0,0.0,0.0,0.0,0.0,0.0,0.0,0.0,0.0,0.0,0.0,0.0,0.0,0.0,0.0,0.0,0.0,0.0,0.0,0.0,0.0,0.0,0.0,0.0,-4.5457,-4.5191,-4.4645,-4.3687,-4.3596,-4.3571,-4.3571,-4.4233,-4.4572,-4.4572,-4.4572,-4.4341,-4.3895,-4.3664,-4.334,-4.2894,-4.2232,-4.1817,-4.154,-4.0816,-4.0524,-4.0524,-4.0524,-4.0524,-4.0524,-4.0524,-4.0524,-4.0524,0.0,0.0,0.0,0.0,0.0,0.0,0.0,0.0,-3.5816,-3.6148,0.0,0.0,0.0,0.0,0.0,-3.4264,-3.3689,-3.3368,-3.3368,-3.3382,-3.3663,-3.4267,-3.4913,-3.5517,-3.6155,-3.6169,-3.6388,0.0,0.0,0.0,0.0,0.0,-3.7134,-3.7829,-3.6957,-3.6939,-3.7587,0.0,-3.8055,-3.8841,0.0,-3.9666,-3.9824,0.0,0.0,0.0,-4.1276,-4.1525,0.0,-4.2269,0.0,0.0,0.0,-4.252,-4.252,-4.252,-4.2707,-4.2847,0.0,0.0,0.0,0.0,0.0,0.0,0.0,0.0,0.0,0.0,0.0,0.0,0.0,0.0,0.0,0.0,0.0,0.0,0.0,0.0,0.0,0.0,0.0,0.0,0.0,0.0,0.0,0.0,0.0,-4.4439,-4.3743,-4.3658,-4.3325,-4.2602,-4.3217,-4.3556,-4.3571,-4.4233,-4.4572,-4.4572,-4.4572,-4.4572,-4.4556,-4.3895,-4.3602,-4.3556,-4.2925,-4.2263,-4.1601,-4.0863,-4.0539,-4.0524,-4.0524,-4.0524,-4.0524,-4.0524,-4.0524,-4.0524,0.0,0.0,0.0,0.0,0.0,0.0,0.0,-3.6289,-3.6289,0.0,0.0,0.0,-3.6289,-3.6383,-3.6312,-3.6163,-3.6014,-3.5735,-3.5311,-3.5842,-3.6041,-3.5783,-3.6542,-3.703,-3.7201,-3.7048,-3.7056,0.0,0.0,0.0,0.0,0.0,0.0,0.0,-3.6794,-3.7034,-3.7564,-3.7124,0.0,-3.8631,-3.8858,-3.9757,0.0,0.0,0.0,0.0,0.0,-4.2205,-4.2269,0.0,-4.252,-4.252,0.0,-4.2831,-4.3196,-4.3196,-4.3663,-4.4121,-4.4121,0.0,0.0,0.0,0.0,0.0,0.0,0.0,0.0,0.0,0.0,0.0,0.0,0.0,0.0,0.0,0.0,0.0,0.0,0.0,0.0,0.0,0.0,0.0,0.0,0.0,0.0,0.0,0.0,-4.3812,-4.3325,-4.2607,-4.2293,-4.2586,-4.2786,-4.3094,-4.3571,-4.4233,-4.4572,-4.4572,-4.4572,-4.4572,-4.4572,-4.4387,-4.4295,-4.4264,-4.3587,-4.3202,-4.294,-4.1786,-4.1001,-4.0524,-4.0524,-4.0524,-4.0524,-4.0524,-4.0524,-4.0524,0.0,0.0,0.0,0.0,0.0,0.0,-3.6289,-3.6352,-3.6352,0.0,0.0,0.0,-3.6876,-3.704,-3.7173,-3.7207,-3.7015,-3.6821,-3.6541,-3.6906,-3.7054,-3.6896,-3.7374,-3.7707,-3.7796,-3.7497,-3.7552,0.0,0.0,0.0,0.0,0.0,0.0,0.0,0.0,0.0,0.0,0.0,0.0,0.0,-3.9204,0.0,0.0,-4.1724,-4.2141,0.0,0.0,0.0,-4.2953,-4.3273,-4.335,0.0,0.0,0.0,-4.3972,-4.3972,-4.4236,-4.4587,-4.4587,-4.4587,-4.4587,0.0,0.0,0.0,0.0,-4.4587,0.0,0.0,0.0,0.0,0.0,0.0,0.0,0.0,0.0,0.0,0.0,0.0,0.0,0.0,0.0,0.0,0.0,0.0,0.0,0.0,-4.2805,-4.2669,-4.2256,-4.155,-4.134,-4.1724,-4.2032,-4.2371,-4.274,-4.3417,-4.3756,-4.3756,-4.3756,-4.3756,-4.3771,-4.4033,-4.4156,-4.4156,-4.4033,-4.3833,-4.3494,-4.2448,-4.1601,-4.094,-4.0647,-4.0524,-4.0524,-4.0524,-4.0524,-4.0524,0.0,0.0,0.0,0.0,0.0,0.0,0.0,-3.6148,-3.6211,0.0,-3.6272,-3.6672,-3.7646,-3.7836,-3.7933,-3.8009,-3.7599,-3.7322,-3.7476,-3.7322,-3.7377,-3.7653,-3.7857,-3.8112,-3.827,-3.7783,-3.8003,0.0,0.0,0.0,0.0,0.0,0.0,0.0,0.0,0.0,0.0,0.0,0.0,-3.8534,-3.9816,-4.0547,0.0,0.0,-4.2645,0.0,-4.3393,-4.363,-4.3706,-4.4367,-4.4587,0.0,0.0,0.0,0.0,0.0,-4.4587,-4.4587,-4.4587,-4.4587,-4.4587,0.0,0.0,0.0,-4.4587,-4.4587,0.0,0.0,0.0,0.0,0.0,0.0,0.0,0.0,0.0,0.0,0.0,0.0,0.0,0.0,0.0,0.0,0.0,0.0,0.0,-4.1456,-4.1456,-4.1323,-4.107,-4.0662,-4.057,-4.0647,-4.1263,-4.1632,-4.1709,-4.2309,-4.2602,-4.2602,-4.2602,-4.2602,-4.2633,-4.3202,-4.3464,-4.3494,-4.4095,-4.4018,-4.3417,-4.2771,-4.214,-4.1524,-4.0816,-4.0524,-4.0524,-4.0524,-4.0524,-4.0524,-3.6307,0.0,0.0,0.0,0.0,0.0,0.0,-3.6289,-3.6274,-3.6414,-3.689,-3.7705,-3.8985,-3.9097,-3.9388,-3.9941,-3.9849,-3.9625,-3.9219,-3.9305,-3.9234,-3.879,-3.8967,-3.917,-3.9414,-3.9083,-3.8859,0.0,0.0,0.0,0.0,0.0,0.0,0.0,0.0,0.0,0.0,0.0,0.0,-3.7891,-3.9217,0.0,-4.2091,-4.2993,-4.3647,-4.4196,-4.431,-4.4384,-4.444,0.0,-4.4587,-4.4587,0.0,0.0,0.0,-4.4587,0.0,0.0,0.0,0.0,0.0,0.0,0.0,0.0,-4.4587,-4.4587,-4.4587,0.0,0.0,0.0,0.0,0.0,0.0,0.0,0.0,0.0,0.0,0.0,0.0,0.0,0.0,0.0,0.0,0.0,-4.073,-4.073,-4.073,-4.0662,-4.0593,-4.0524,-4.0786,-4.137,-4.1524,-4.1863,-4.2402,-4.254,-4.2602,-4.2602,-4.2602,-4.2602,-4.2602,-4.274,-4.2802,-4.2802,-4.294,-4.2925,-4.274,-4.2063,-4.1724,-4.1524,-4.0816,-4.0524,-4.0524,-4.0524,-4.0524,-4.0524,-3.6477,0.0,0.0,0.0,0.0,0.0,0.0,0.0,-3.6693,-3.66,-3.714,-3.7754,-3.8496,-3.9241,-3.9781,-4.0152,-4.0476,-4.0524,-4.0246,-4.0261,-4.0191,-4.0106,-4.0091,-4.0161,-4.0401,-3.9756,-3.939,0.0,0.0,0.0,0.0,0.0,0.0,0.0,0.0,0.0,0.0,0.0,-3.8108,-3.8488,-3.9502,0.0,-4.1988,-4.3063,-4.3917,-4.4626,-4.4852,-4.5142,-4.5337,-4.5337,-4.5196,0.0,0.0,-4.4814,-4.4587,0.0,-4.4587,-4.4587,0.0,0.0,0.0,-4.4587,0.0,0.0,0.0,-4.4587,-4.4587,0.0,0.0,0.0,0.0,0.0,0.0,0.0,0.0,0.0,0.0,0.0,0.0,0.0,0.0,0.0,0.0,0.0,-4.0524,-4.0524,-4.0524,-4.0524,-4.0524,-4.0524,-4.0693,-4.1047,-4.1063,-4.1232,-4.1571,-4.1571,-4.1571,-4.1571,-4.1571,-4.1571,-4.1586,-4.194,-4.2109,-4.2125,-4.2463,-4.2602,-4.2556,-4.1878,-4.1601,-4.1524,-4.0816,-4.0524,-4.0524,-4.0524,-4.0524,-4.0524,-3.6616,-3.6492,0.0,0.0,0.0,0.0,0.0,0.0,-3.706,-3.6971,-3.7343,-3.7681,-3.7917,-3.8924,-3.9606,-3.9637,-4.005,-4.0458,-4.0597,-4.0476,-4.0545,-4.0899,-4.0748,-4.0686,-4.0712,-3.9885,-3.9645,-3.9959,0.0,0.0,0.0,0.0,0.0,0.0,0.0,0.0,0.0,0.0,0.0,-3.9325,0.0,-4.0933,-4.1683,-4.2951,-4.3948,-4.4814,-4.5267,-4.5699,-4.6116,-4.6049,0.0,-4.5303,-4.5267,-4.4944,0.0,0.0,0.0,0.0,0.0,0.0,0.0,0.0,0.0,-4.4587,0.0,0.0,0.0,0.0,0.0,0.0,0.0,0.0,0.0,0.0,0.0,0.0,0.0,0.0,0.0,0.0,0.0,0.0,0.0,0.0,-4.0524,-4.0524,-4.0524,-4.0524,-4.0524,-4.0524,-4.0524,-4.0524,-4.0524,-4.0524,-4.0524,-4.0524,-4.0524,-4.0524,-4.0646,-4.0646,-4.0539,-4.1249,-4.1527,-4.1432,-4.1971,-4.2217,-4.2171,-4.1617,-4.1401,-4.134,-4.0755,-4.0524,-4.0524,-4.0524,-4.0524,-4.0524,-3.6616,-3.6492,-3.6554,0.0,0.0,0.0,0.0,0.0,-3.7002,-3.7764,-3.7919,-3.8184,-3.876,-3.8865,-3.8924,-3.8924,-3.8839,0.0,-3.9854,0.0,-3.9951,-4.015,-4.0084,-3.9885,-3.9485,-3.9407,-3.9109,-3.8683,0.0,0.0,0.0,0.0,0.0,0.0,-3.7886,0.0,0.0,0.0,-3.9312,0.0,-4.0622,-4.1521,0.0,-4.3078,-4.417,-4.532,-4.5817,-4.6049,-4.6049,0.0,-4.5665,-4.532,0.0,-4.4923,-4.4626,-4.4737,0.0,0.0,0.0,0.0,0.0,0.0,-4.4682,0.0,0.0,0.0,0.0,0.0,0.0,0.0,0.0,0.0,0.0,0.0,0.0,0.0,0.0,0.0,0.0,0.0,0.0,0.0,0.0,0.0,0.0,-4.0524,-4.0662,-4.0662,-4.0524,-4.0524,-4.0524,-4.0524,-4.0524,-4.0524,-4.0524,-4.0524,-4.0524,-4.0524,-4.1091,-4.1091,-4.0524,-4.1169,-4.1216,-4.0647,-4.0739,-4.077,-4.0755,-4.0693,-4.0647,-4.0647,-4.0555,-4.0524,-4.0524,-4.0524,-4.0524,-4.0524,-3.6554,-3.6554,-3.66,0.0,0.0,0.0,0.0,0.0,-3.7747,-3.8122,-3.845,-3.8794,-3.9108,0.0,0.0,-3.9505,0.0,-3.9734,0.0,0.0,-3.9455,-3.9944,-3.9732,-3.9532,-3.9314,-3.8984,-3.8746,-3.8507,-3.8112,0.0,0.0,0.0,0.0,0.0,-3.8399,0.0,-3.9295,0.0,-3.9799,0.0,0.0,0.0,0.0,-4.3473,-4.4853,-4.6262,-4.6501,-4.6753,-4.7017,0.0,-4.6915,0.0,0.0,0.0,0.0,0.0,0.0,0.0,0.0,0.0,0.0,0.0,0.0,0.0,-4.4737,0.0,-4.4682,0.0,0.0,0.0,0.0,0.0,0.0,0.0,0.0,0.0,0.0,0.0,0.0,0.0,0.0,0.0,0.0,0.0,0.0,0.0,0.0,-4.073,-4.0524,-4.0524,-4.0524,-4.0524,-4.0524,-4.0524,-4.0524,-4.0524,-4.0524,-4.0524,-4.0783,-4.0972,-4.1091,-4.0956,-4.0956,-4.1091,-4.0646,-4.0524,-4.0524,-4.0524,-4.0524,-4.0524,-4.0524,-4.0524,-4.0524,-4.0524,-4.0524,-4.0524,-3.6538,-3.66,-3.6723,0.0,0.0,0.0,0.0,0.0,0.0,0.0,0.0,0.0,-3.9062,-3.9596,0.0,0.0,-3.971,-3.9955,0.0,0.0,-3.9334,0.0,0.0,0.0,0.0,-3.843,-3.8239,-3.8239,0.0,0.0,0.0,0.0,0.0,0.0,0.0,-3.9329,-3.9918,0.0,0.0,-4.0206,-4.1308,-4.2433,-4.3632,-4.4438,-4.5624,-4.6908,-4.7062,-4.7363,-4.7699,-4.7657,-4.7697,0.0,-4.7041,0.0,0.0,0.0,0.0,0.0,-4.5283,0.0,0.0,0.0,0.0,0.0,0.0,0.0,0.0,0.0,0.0,0.0,0.0,0.0,0.0,0.0,0.0,0.0,0.0,0.0,0.0,0.0,0.0,0.0,0.0,0.0,0.0,0.0,-4.0746,0.0,-4.0524,-4.0524,-4.0524,-4.0524,-4.0524,-4.0524,-4.0524,-4.0524,-4.0578,-4.0768,-4.0768,-4.1158,-4.1771,-4.1276,-4.1209,-4.1459,-4.0956,-4.0646,-4.0524,-4.0524,-4.0524,-4.0524,-4.0524,-4.0524,-4.0524,-4.0524,-4.0524,-4.0524,-3.6723,-3.6723,-3.6769,0.0,0.0,0.0,0.0,0.0,0.0,0.0,0.0,0.0,0.0,0.0,0.0,0.0,0.0,-3.8978,-4.0072,0.0,-3.9825,0.0,0.0,-3.8809,0.0,0.0,-3.7512,-3.7512,0.0,0.0,0.0,0.0,0.0,0.0,0.0,-3.9382,-3.9418,-3.9918,-4.007,-4.0239,-4.2241,-4.4533,-4.6682,0.0,-4.6389,-4.6954,-4.7511,0.0,0.0,-4.7554,-4.7276,0.0,0.0,0.0,0.0,0.0,0.0,0.0,0.0,0.0,0.0,-4.5283,0.0,0.0,0.0,0.0,-4.4776,0.0,0.0,0.0,0.0,0.0,-4.4018,-4.2292,-4.2621,0.0,0.0,0.0,0.0,0.0,0.0,0.0,0.0,0.0,0.0,0.0,-4.0966,0.0,-4.0524,-4.0524,-4.0524,-4.0524,-4.0524,-4.0524,-4.0524,-4.0524,-4.0836,-4.1459,-4.1459,-4.1836,-4.2458,-4.2458,-4.2078,-4.1525,-4.1459,-4.1091,-4.0524,-4.0524,-4.0524,-4.0524,-4.0524,-4.0524,-4.0524,-4.0524,-4.0524,-4.0524,-3.6723,-3.6723,-3.6846,0.0,0.0,0.0,0.0,-3.9234,0.0,0.0,0.0,0.0,0.0,-4.0325,-4.0333,0.0,0.0,-3.9745,-4.0712,-3.9885,0.0,0.0,0.0,-3.8557,0.0,0.0,0.0,0.0,0.0,0.0,0.0,0.0,0.0,0.0,0.0,-3.9592,0.0,0.0,0.0,0.0,0.0,-4.4861,-4.6358,0.0,0.0,-4.745,-4.7615,-4.7717,0.0,-4.7657,-4.7915,-4.8109,-4.7525,-4.7465,-4.7447,-4.6959,-4.6678,0.0,0.0,0.0,-4.558,-4.5283,0.0,0.0,0.0,0.0,0.0,0.0,0.0,0.0,0.0,-4.4587,-4.4186,-4.295,-4.3174,-4.2851,0.0,0.0,0.0,0.0,0.0,0.0,0.0,0.0,0.0,-4.0148,-4.0634,-4.0814,0.0,-4.0524,-4.0524,-4.0524,-4.0524,-4.0524,-4.0524,-4.0524,-4.0578,-4.0836,-4.1276,-4.1836,-4.2504,-4.2013,-4.1965,-4.2141,-4.1209,-4.0715,-4.0524,-4.0524,-4.0524,-4.0524,-4.0524,-4.0524,-4.0524,-4.0524,-4.0524,-4.0524,-3.7342,0.0,0.0,0.0,0.0,0.0,0.0,0.0,0.0,0.0,-4.0831,0.0,-4.1094,0.0,-4.095,0.0,-4.0328,-4.0349,-4.1086,-4.0177,0.0,-4.0237,-3.9455,0.0,0.0,0.0,0.0,0.0,0.0,-3.7685,0.0,0.0,0.0,0.0,0.0,-3.9799,-4.007,0.0,-4.051,0.0,0.0,-4.5236,0.0,0.0,-4.7258,0.0,0.0,-4.7717,-4.7717,-4.7717,-4.8043,-4.8387,-4.788,-4.7872,-4.7967,-4.7463,-4.7187,-4.6852,-4.6151,-4.5903,0.0,0.0,-4.4978,0.0,-4.5032,0.0,0.0,0.0,0.0,0.0,0.0,0.0,-4.4327,-4.3476,-4.3363,-4.2614,0.0,-3.958,0.0,0.0,0.0,0.0,0.0,0.0,-3.9926,-3.9567,-4.0088,-4.0364,0.0,0.0,-4.0278,-4.0524,-4.0524,-4.0524,-4.0524,-4.0524,-4.0715,-4.1209,-4.1393,-4.2094,-4.3229,-4.252,-4.2332,-4.2458,-4.1591,-4.0956,-4.0524,-4.0524,-4.0524,-4.0524,-4.0524,-4.0524,-4.0524,-4.0524,-4.0524,-4.0524,0.0,0.0,0.0,0.0,-3.9077,0.0,0.0,0.0,-4.0414,0.0,-4.0777,-4.1038,-4.1054,-4.0965,-4.0851,-4.0867,-4.0715,-4.0746,-4.1169,-4.0935,0.0,0.0,-4.0072,-3.9352,-3.787,0.0,0.0,0.0,0.0,0.0,0.0,0.0,0.0,0.0,-3.9918,0.0,-4.007,-4.0172,-4.0646,-4.1528,-4.3898,-4.5753,-4.7107,-4.7407,0.0,-4.7717,-4.7717,-4.7717,-4.7717,-4.7717,-4.7717,-4.7717,-4.7717,-4.7717,-4.7717,-4.7717,-4.7657,-4.7468,-4.6548,-4.6262,-4.6067,-4.5213,0.0,0.0,0.0,0.0,-4.4737,0.0,0.0,0.0,0.0,0.0,0.0,-4.3889,-4.3107,-4.1824,-3.958,-3.8838,0.0,0.0,0.0,0.0,0.0,-3.9734,-3.9811,-3.9013,-3.9408,-3.974,0.0,0.0,0.0,-4.0462,-4.0478,-4.0493,-4.0524,-4.0593,-4.1209,-4.2442,-4.1901,-4.2599,-4.444,-4.3781,-4.3136,-4.252,-4.2442,-4.1706,-4.0524,-4.0524,-4.0524,-4.0524,-4.0524,-4.0524,-4.0524,-4.0524,-4.0524,-4.0593,-3.8157,-3.93,-4.0258,0.0,-4.0388,-4.0482,0.0,0.0,0.0,0.0,-4.2056,-4.2074,-4.1452,-4.1805,-4.1836,-4.1343,-4.1706,0.0,0.0,0.0,0.0,-4.1369,-4.0976,-4.0531,-4.0024,-3.9333,0.0,-3.9235,0.0,0.0,-3.9098,0.0,0.0,0.0,0.0,0.0,-4.0155,-4.0765,-4.1869,-4.3372,-4.5204,-4.6134,0.0,0.0,-4.7657,-4.7717,-4.7717,-4.7717,-4.7717,-4.7717,-4.7717,-4.7717,-4.7717,-4.7717,-4.7717,-4.7717,-4.7407,-4.6954,-4.631,-4.585,-4.5425,-4.4978,-4.4793,-4.4737,0.0,0.0,0.0,0.0,0.0,0.0,0.0,0.0,0.0,-4.3889,-4.2167,-4.0743,-4.0298,0.0,0.0,-3.8432,0.0,0.0,0.0,-3.8594,-3.8713,-3.8681,-3.9311,0.0,0.0,0.0,0.0,-3.9754,-4.0275,-4.0758,-4.1276,-4.1771,-4.1901,-4.1771,-4.2583,-4.3031,-4.3031,-4.3393,-4.3136,-4.2458,-4.1949,-4.1276,-4.0524,-4.0524,-4.0524,-4.0524,-4.0524,-4.0524,-4.0524,-4.0524,-4.0524,-4.0593,-3.9358,0.0,0.0,-4.1754,0.0,0.0,-4.1917,0.0,0.0,-4.2601,-4.288,0.0,-4.2157,-4.2332,-4.2332,-4.1949,-4.2269,0.0,-4.2785,0.0,0.0,-4.2221,-4.1835,-4.1482,-4.1146,-4.0603,0.0,-3.9764,0.0,0.0,-3.9418,0.0,0.0,0.0,0.0,-4.007,0.0,-4.1324,-4.2618,-4.3989,-4.5319,0.0,0.0,-4.7062,-4.7511,-4.7717,-4.7717,-4.7717,-4.7717,-4.7717,-4.7717,-4.7717,-4.7717,-4.7717,-4.7657,-4.7407,-4.7151,-4.6707,-4.595,-4.5511,-4.5214,-4.4814,-4.4626,-4.4626,-4.4776,-4.4737,-4.4626,0.0,0.0,0.0,0.0,0.0,0.0,-4.3418,-4.1979,0.0,0.0,0.0,0.0,0.0,0.0,0.0,0.0,0.0,0.0,0.0,0.0,0.0,0.0,0.0,0.0,0.0,-4.0103,-4.0736,-4.1438,-4.1818,-4.2151,-4.2379,-4.3136,-4.3453,-4.341,-4.3781,-4.3588,-4.2892,-4.252,-4.2013,-4.1393,-4.1393,-4.1393,-4.1393,-4.1393,-4.1393,-4.1393,-4.1393,-4.1209,-4.1024,0.0,0.0,0.0,0.0,0.0,0.0,0.0,-4.3279,0.0,-4.3235,0.0,-4.3602,-4.3117,-4.3075,-4.3013,-4.2791,0.0,-4.2945,-4.3047,-4.2769,-4.2707,-4.2909,-4.2707,-4.2353,-4.1797,-4.1852,-4.1318,0.0,0.0,0.0,0.0,0.0,0.0,0.0,0.0,0.0,0.0,-4.1899,-4.311,0.0,-4.4973,-4.5665,-4.6262,-4.666,-4.7107,-4.7511,-4.7511,-4.7572,-4.7717,-4.7717,-4.7717,-4.7717,-4.7717,-4.7657,-4.7511,-4.7062,-4.6799,-4.6501,-4.5545,-4.5267,-4.5125,-4.472,-4.4587,-4.4587,-4.4587,-4.4587,-4.4587,-4.4587,-4.4587,0.0,0.0,0.0,0.0,0.0,0.0,0.0,0.0,0.0,0.0,0.0,0.0,0.0,0.0,0.0,0.0,0.0,0.0,0.0,0.0,0.0,0.0,0.0,-4.0091,0.0,-4.1399,0.0,-4.2261,-4.3363,-4.358,-4.3914,-4.444,-4.444,-4.4047,-4.3376,-4.3273,-4.2892,-4.2395,-4.2395,-4.2395,-4.252,-4.252,-4.252,-4.252,-4.252,-4.2205,-4.1836,0.0,0.0,0.0,0.0,0.0,-4.4138,-4.3638,-4.3713,-4.3772,-4.3713,-4.4616,-4.506,-4.4429,-4.5384,-4.5577,-4.4401,-4.479,0.0,0.0,0.0,0.0,-4.3393,-4.3317,-4.3267,-4.3135,-4.2783,-4.2655,0.0,0.0,0.0,0.0,0.0,0.0,0.0,0.0,0.0,-4.2158,-4.3093,0.0,-4.4844,-4.532,-4.5615,-4.5768,-4.6133,-4.631,-4.6358,-4.6358,-4.6954,-4.7717,-4.7717,-4.7717,-4.7717,-4.7717,-4.7407,-4.7017,-4.6908,-4.6244,-4.5563,-4.5355,-4.5035,-4.472,-4.4626,-4.4587,-4.4587,-4.4587,-4.4587,-4.4587,-4.4587,-4.4587,-4.4587,-4.4587,0.0,0.0,0.0,0.0,0.0,0.0,0.0,0.0,0.0,0.0,0.0,0.0,0.0,0.0,0.0,0.0,0.0,0.0,0.0,0.0,0.0,0.0,0.0,0.0,0.0,0.0,-4.2791,-4.3877,-4.4179,-4.3706,-4.3706,-4.3333,-4.2629,-4.2078,-4.1771,-4.1656,-4.1656,-4.2013,-4.252,-4.252,-4.252,-4.252,-4.252,-4.2769,-4.3196,0.0,0.0,0.0,0.0,0.0,0.0,0.0,-4.4531,0.0,-4.438,-4.516,-4.5589,-4.5369,-4.6236,-4.6515,-4.5848,-4.5732,-4.5551,-4.5179,-4.4454,-4.4047,-4.4047,-4.4047,0.0,-4.4047,-4.3843,-4.3642,-4.342,0.0,0.0,-4.1204,0.0,0.0,0.0,0.0,-4.1358,0.0,0.0,0.0,-4.4886,-4.5032,-4.5213,-4.5442,-4.5614,-4.585,-4.6098,-4.6098,-4.6406,-4.6908,-4.7214,-4.7302,-4.7302,-4.7302,-4.7107,-4.6799,-4.6244,-4.5699,-4.5267,-4.4981,-4.4759,-4.4587,-4.4587,-4.4587,-4.4587,-4.4587,-4.4587,-4.4587,-4.4587,-4.4587,-4.4626,-4.4682,-4.4164,0.0,0.0,0.0,0.0,0.0,0.0,0.0,0.0,0.0,0.0,0.0,0.0,0.0,0.0,0.0,0.0,0.0,0.0,0.0,0.0,0.0,0.0,0.0,0.0,0.0,-4.3037,-4.3664,-4.3996,-4.4047,-4.4047,-4.3914,-4.3545,-4.3246,-4.3108,-4.3108,-4.3108,-4.329,-4.3604,-4.3604,-4.3604,-4.3604,-4.3604,-4.3798,-4.4047,0.0,-4.444,0.0,0.0,-4.457,0.0,0.0,-4.5331,-4.5571,-4.5109,-4.5707,-4.6262,-4.6407,-4.6885,-4.7192,-4.7056,-4.6363,-4.5872,-4.572,-4.4993,-4.4587,-4.4587,-4.4587,-4.4587,-4.4587,-4.4587,-4.4282,0.0,0.0,0.0,0.0,0.0,0.0,0.0,0.0,0.0,0.0,0.0,-4.4067,-4.4737,-4.4626,-4.4797,-4.5178,-4.5178,-4.5425,-4.5767,-4.5767,-4.5767,-4.5868,-4.6358,-4.666,-4.6707,-4.6707,-4.666,-4.6406,-4.5563,-4.5214,-4.5072,-4.472,-4.4587,-4.4587,-4.4587,-4.4587,-4.4587,-4.4587,-4.4587,-4.4587,-4.4587,-4.4587,-4.4575,-4.4572,-4.4051,0.0,0.0,0.0,0.0,0.0,0.0,0.0,0.0,0.0,0.0,0.0,0.0,0.0,0.0,0.0,0.0,0.0,0.0,0.0,0.0,0.0,0.0,-4.107,0.0,-4.1796,0.0,-4.3267,-4.3741,-4.4333,-4.4356,-4.4384,-4.4367,-4.4253,-4.4253,-4.4367,-4.4514,-4.4587,-4.4587,-4.4587,-4.4587,-4.4587,-4.4587,-4.4587,-4.4514,0.0,0.0,0.0,0.0,0.0,0.0,0.0,-4.5669,-4.5703,-4.5628,-4.6811,-4.7673,-4.774,-4.8331,-4.8528,-4.7868,-4.7124,-4.6413,-4.5737,-4.4993,-4.4587,-4.4587,-4.4587,-4.4587,-4.4587,-4.4587,-4.4536,0.0,0.0,0.0,0.0,0.0,0.0,0.0,0.0,0.0,0.0,-4.413,-4.4575,-4.4626,-4.4643,-4.4626,-4.4682,-4.4682,-4.4682,-4.472,-4.472,-4.472,-4.4814,-4.5267,-4.5749,-4.6147,-4.6147,-4.585,-4.5407,-4.5303,-4.4981,-4.4682,-4.4626,-4.4587,-4.4587,-4.4587,-4.4587,-4.4587,-4.4587,-4.4587,-4.4587,-4.4587,-4.4587,-4.4439,-4.3909,-4.3161,-4.2431,0.0,0.0,0.0,0.0,0.0,0.0,0.0,0.0,0.0,0.0,0.0,0.0,0.0,0.0,0.0,0.0,0.0,0.0,0.0,0.0,-4.0372,-4.0588,-4.0968,0.0,-4.1614,-4.2831,-4.3453,-4.3483,-4.3597,-4.3571,-4.3571,-4.2953,-4.3015,-4.3647,-4.431,-4.4587,-4.4587,-4.4587,-4.4587,-4.4587,-4.4587,-4.4587,-4.457,0.0,0.0,0.0,0.0,0.0,0.0,0.0,-4.6075,-4.6515,-4.6972,-4.7547,-4.8088,-4.8528,-4.8832,-4.8714,-4.7986,-4.7225,-4.6481,-4.5754,-4.4993,-4.4587,-4.4587,-4.4587,-4.4587,-4.4587,-4.4587,-4.4587,0.0,0.0,0.0,0.0,0.0,0.0,0.0,0.0,-4.3132,-4.347,-4.4248,-4.4587,-4.4587,-4.4587,-4.4587,-4.4587,-4.4587,-4.4587,-4.4587,-4.4587,-4.4587,-4.4626,-4.4814,-4.5232,-4.5597,-4.5597,-4.5459,-4.5267,-4.4944,-4.4776,-4.4587,-4.4587,-4.4587,-4.4587,-4.4587,-4.4587,-4.4587,-4.4587,-4.4587,-4.4587,-4.4587,-4.4587,-4.4406,-4.3627,-4.2988,-4.2277,0.0,0.0,0.0,0.0,0.0,0.0,0.0,0.0,0.0,0.0,0.0,0.0,0.0,0.0,0.0,0.0,0.0,0.0,-3.9885,0.0,-4.0238,-4.0387,-4.0476,-4.0798,-4.1307,-4.1796,-4.2557,-4.342,-4.3412,-4.3669,-4.4179,-4.3856,-4.3914,-4.4179,-4.4514,-4.4587,-4.4587,-4.4587,-4.4587,-4.4587,-4.4587,-4.4587,-4.4587,-4.4056,0.0,-4.444,0.0,-4.457,-4.4908,-4.5872,-4.6464,-4.7141,-4.8105,-4.8054,-4.8189,-4.8934,-4.8815,-4.8477,-4.797,-4.7039,-4.6261,-4.5737,-4.4993,-4.4587,-4.4587,-4.4587,0.0,-4.4587,-4.4587,-4.4587,-4.4587,-4.4587,0.0,0.0,0.0,0.0,0.0,-4.3183,-4.3538,-4.3792,-4.435,-4.4587,-4.4587,-4.4587,-4.4587,-4.4587,-4.4587,-4.4587,-4.4587,-4.4587,-4.4587,-4.4587,-4.4587,-4.4814,-4.5072,-4.5072,-4.5072,-4.5035,-4.472,-4.4587,-4.4587,-4.4587,-4.4587,-4.4587,-4.4587,-4.4587,-4.4587,-4.4587,-4.4587,-4.4587,-4.4587,-4.4401,-4.3995,-4.3234,-4.2543,-4.185,0.0,0.0,0.0,0.0,0.0,0.0,0.0,-4.0436,-4.0468,-4.0436,0.0,0.0,0.0,0.0,0.0,0.0,0.0,0.0,0.0,0.0,0.0,0.0,0.0,-4.0341,-4.0882,-4.1102,-4.1762,-4.2794,-4.3217,-4.3842,-4.4587,-4.4587,-4.4587,-4.4587,-4.4587,-4.4587,-4.4587,-4.4587,-4.4587,-4.4587,-4.4587,-4.4587,-4.4587,-4.3956,-4.4303,-4.4514,-4.4367,-4.444,-4.5077,-4.6549,-4.6786,-4.7327,-4.8798,-4.8359,-4.8189,-4.8934,-4.8359,-4.7936,-4.7919,-4.6566,-4.572,-4.5703,-4.4993,-4.4587,0.0,0.0,-4.4587,-4.4587,-4.4587,-4.4587,-4.4587,0.0,0.0,-4.3403,0.0,0.0,-4.3403,-4.342,-4.3842,-4.457,-4.4587,-4.4587,-4.4587,-4.4587,-4.4587,-4.4587,-4.4587,-4.4587,-4.4587,-4.4587,-4.4587,-4.4587,-4.4587,-4.457,-4.4626,-4.4626,-4.4626,-4.4626,-4.4587,-4.4587,-4.4587,-4.4587,-4.4587,-4.4587,-4.4587,-4.4587,-4.4587,-4.4587,-4.4587,-4.4587,-4.4587,-4.3961,-4.32,-4.2439,-4.1711,-4.1035,-4.0441,0.0,0.0,0.0,0.0,0.0,0.0,-4.0436,-4.0436,-4.0305,0.0,0.0,0.0,0.0,0.0,0.0,0.0,0.0,-4.0305,-4.0305,0.0,-4.0305,-4.0188,-4.007,-4.0104,-4.0849,-4.1221,-4.1288,-4.276,-4.3842,-4.4587,-4.4587,-4.4587,-4.4587,-4.4587,-4.4587,-4.4587,-4.4587,-4.4587,-4.4587,-4.4587,-4.4587,-4.4587,-4.3898,-4.4015,-4.4172,-4.4253,-4.4367,-4.4778,-4.5906,-4.6058,-4.6397,-4.7361,-4.7293,-4.7242,-4.7462,-4.7293,-4.6955,0.0,-4.5974,-4.5483,0.0,-4.4705,-4.4587,-4.4587,-4.4587,-4.4587,-4.4587,-4.4587,-4.4587,-4.4587,0.0,0.0,0.0,-4.3961,-4.3978,-4.4215,-4.4215,-4.435,-4.4587,-4.4587,-4.4587,-4.4587,-4.4587,-4.4587,-4.4587,-4.4587,-4.4587,-4.4587,-4.4587,-4.4587,-4.4587,-4.4587,-4.4587,-4.4587,-4.4587,-4.4587,-4.4587,-4.4587,-4.4587,-4.4587,-4.4587,-4.4587,-4.4587,-4.4587,-4.4587,-4.4587,-4.4587,-4.4587,-4.4418,-4.391,-4.3589,-4.3031,-4.1779,-4.1373,-4.0967,-4.0256,0.0,0.0,0.0,0.0,0.0,0.0,0.0,-4.0583,0.0,-4.06,0.0,0.0,0.0,0.0,0.0,0.0,0.0,0.0,-4.0238,0.0,-4.0305,-4.0188,-4.007,-4.007,-4.0324,-4.0696,-4.1255,-4.2743,-4.3555,-4.3809,-4.435,-4.4587,-4.4587,-4.4587,-4.4587,-4.4587,-4.4587,-4.4587,-4.4587,-4.4587,-4.4587,-4.4587,-4.3898,-4.3956,-4.4056,-4.4212,-4.4253,-4.4619,-4.5436,-4.5628,-4.5957,-4.6701,-4.6549,-4.638,-4.638,-4.6126,0.0,-4.572,-4.5449,0.0,-4.4604,-4.4587,-4.4587,-4.4587,-4.4587,-4.4587,-4.4587,0.0,0.0,-4.4587,-4.4587,-4.4587,-4.4587,-4.4587,-4.4587,-4.4587,-4.4587,-4.4587,-4.4587,-4.4587,-4.4587,-4.4587,-4.4587,-4.4587,-4.4587,-4.4587,-4.4587,-4.4587,-4.4587,-4.4587,-4.4587,-4.4587,-4.4587,-4.4587,-4.4587,-4.4587,-4.4587,-4.4587,-4.4587,-4.4587,-4.4587,-4.4587,-4.4587,-4.4587,-4.4587,-4.4587,-4.4587,-4.435,-4.4012,-4.3521,-4.298,-4.2303,-4.1373,-4.0967,-4.0629,-4.0155,0.0,0.0,0.0,0.0,0.0,0.0,0.0,0.0,0.0,-4.0502,0.0,0.0,0.0,0.0,0.0,0.0,0.0,-4.032,-4.0188,0.0,-4.0238,-4.0138,-4.007,-4.007,-4.007,-4.0476,-4.1238,-4.2168,-4.2895,-4.3453,-4.3927,-4.4316,-4.4587,-4.4587,-4.4587,-4.4587,-4.4587,-4.4587,-4.4587,-4.4587,-4.4587,-4.4587,-4.3898,-4.3998,0.0,0.0,-4.4196,0.0,-4.5202,-4.5469,-4.5872,-4.6549,-4.6041,-4.5618,-4.5618,-4.4993,-4.4874,-4.5568,0.0,0.0,0.0,-4.4587,-4.4587,-4.4587,-4.4587,0.0,-4.4587,-4.4587,-4.4587,-4.4587,-4.4587,-4.4587,-4.4587,-4.4587,-4.4587,-4.4587,-4.4587,-4.4587,-4.4587,-4.4587,-4.4587,-4.4587,-4.4587,-4.4587,-4.4587,-4.4587,-4.4587,-4.4587,-4.4587,-4.4587,-4.4587,-4.4587,-4.4587,-4.4587,-4.4587,-4.4587,-4.4587,-4.4587,-4.4587,-4.4587,-4.4587,-4.4587,-4.4587,-4.4587,-4.4536,-4.4502,-4.4502,-4.3893,-4.3318,-4.3284,-4.2168,-4.1187,-4.1136,-4.0544,-4.007,-4.007,-4.0138,-4.0188,-4.0305,0.0,0.0,0.0,0.0,0.0,0.0,-4.0305,-4.0238,0.0,0.0,0.0,0.0,0.0,0.0,-4.0138,-4.007,-4.007,-4.007,-4.007,-4.007,-4.007,-4.007,-4.0443,-4.1136,-4.1187,-4.1965,-4.3267,-4.3369,-4.3826,-4.4502,-4.4553,-4.4587,-4.4587,-4.4587,-4.4587,-4.4587,-4.4587,-4.4587,-4.4587,0.0,0.0,-4.3747,-4.3939,-4.3939,-4.4106,-4.4471,-4.4619,-4.4761,-4.5077,-4.4959,-4.484,-4.484,-4.4688,-4.4654,-4.484,-4.4671,-4.4587,-4.4587,-4.4587,-4.4587,-4.4587,-4.4587,-4.4587,-4.4587,-4.4587,-4.4587,-4.4587,-4.4587,-4.4587,-4.4587,-4.4587,-4.4587,-4.4587,-4.4587,-4.4587,-4.4587,-4.4587,-4.4587,-4.4587,-4.4587,-4.4587,-4.4587,-4.4587,-4.4587,-4.4587,-4.4587,-4.4587,-4.4587,-4.4587,-4.4587,-4.4587,-4.4587,-4.4587,-4.4587,-4.4587,-4.4587,-4.4587,-4.4587,-4.4587,-4.4587,-4.4587,-4.413,-4.369,-4.369,-4.3098,-4.2405,-4.1847,-4.1441,-4.1035,-4.0443,-4.0206,-4.007,-4.007,-4.0188,-4.0238,-4.0305,0.0,0.0,0.0,-4.0485,-4.0436,-4.0288,-4.0305,-4.0305,0.0,0.0,0.0,0.0,0.0,-4.0288,-4.0138,-4.007,-4.007,-4.007,-4.007,-4.007,-4.007,-4.007,-4.0172,-4.0358,-4.0933,-4.139,-4.1796,-4.2929,-4.3521,-4.3741,-4.4333,-4.4587,-4.4587,-4.4587,-4.4587,-4.4587,-4.4587,-4.4587,-4.4587,-4.3628,-4.3628,-4.3628,-4.3839,-4.3956,-4.4056,-4.4253,-4.4367,-4.4497,-4.4587,-4.4587,-4.4587,-4.4587,-4.4587,-4.4587,-4.4587,-4.4587,-4.4587,-4.4587,-4.4587,-4.4587,-4.4587,-4.4587,-4.4587,-4.4587,-4.4587,-4.4587,-4.4587,-4.4587,-4.4587,-4.4587,-4.4587,-4.4587,-4.4587,-4.4587,-4.4587,-4.4587,-4.4587,-4.4587,-4.4587,-4.4587,-4.4587,-4.4587,-4.4587,-4.4587,-4.4587,-4.4587,-4.4587,-4.4587,-4.4587,-4.4587,-4.4587,-4.4587,-4.4587,-4.4587,-4.4587,-4.4587,-4.4587,-4.4587,-4.4587,-4.4485,-4.413,-4.3724,-4.3318,-4.298,-4.2337,-4.1677,-4.1288,-4.0933,-4.0561,-4.0155,-4.007,-4.007,-4.007,-4.0188,-4.0305,-4.0305,-4.0436,0.0,-4.0436,-4.0387,-4.0337,-4.0238,-4.0188,-4.0188,-4.0188,0.0,0.0,-4.0188,-4.0188,-4.0188,-4.007,-4.007,-4.007,-4.007,-4.007,-4.007,-4.007,-4.007,-4.007,-4.0087,-4.0493,-4.0882,-4.1255,-4.2066,-4.2794,-4.3453,-4.3876,-4.4265,-4.4587,-4.4587,-4.4587,-4.4587,-4.4587,-4.4587,-4.4587,-4.3628,-4.3628,-4.3704,-4.3898,-4.3998,-4.4155,-4.431,-4.444,-4.457,-4.4587,-4.4587,-4.4587,-4.4587,-4.4587,-4.4587,-4.4587,-4.4587,-4.4587,-4.4587,-4.4587,-4.4587,-4.4587,-4.4587,-4.4587,-4.4587,-4.4587,-4.4587,-4.4587,-4.4587,-4.4587,-4.4587,-4.4587,-4.4587,-4.4587,-4.4587,-4.4587,-4.4587,-4.4587,-4.4587,-4.4587,-4.4587,-4.4587,-4.4587,-4.4587,-4.4587,-4.4587,-4.4587,-4.4587,-4.4587,-4.4587,-4.4587,-4.4587,-4.4587,-4.4587,-4.4587,-4.4587,-4.4485,-4.4434,-4.4553,-4.4485,-4.4215,-4.3436,-4.3166,-4.2912,-4.2269,-4.1559,-4.1035,-4.1035,-4.0527,-4.007,-4.007,-4.007,-4.0138,-4.0138,-4.0238,-4.0355,-4.0355,0.0,-4.0436,-4.0305,-4.0305,-4.0238,-4.0121,-4.007,-4.007,-4.007,-4.007,0.0,0.0,-4.007,-4.007,-4.007,-4.007,-4.007,-4.007,-4.007,-4.007,-4.007,-4.007,-4.007,-4.007,-4.007,-4.0426,-4.1035,-4.1153,-4.1914,-4.3098,-4.3335,-4.3809,-4.4418,-4.4536,-4.4587,-4.4587,-4.4587,-4.4587,-4.4587,-4.3628,-4.3763,-4.3839,-4.3898,-4.3998,-4.4155,-4.431,-4.431,-4.444,-4.457,-4.4587,-4.4587,-4.4587,-4.4587,-4.4587,-4.4587,-4.4587,-4.4587,-4.4587,-4.4587,-4.4587,-4.4587,-4.4587,-4.4587,-4.4587,-4.4587,-4.4587,-4.4587,-4.4587,-4.4587,-4.4587,-4.4587,-4.4587,-4.4587,-4.4587,-4.4587,-4.4587,-4.4587,-4.4587,-4.4587,-4.4587,-4.4587,-4.4587,-4.4587,-4.4587,-4.4587,-4.4587,-4.4587,-4.4587,-4.4587,-4.4587,-4.4587,-4.4587,-4.4587,-4.4587,-4.4587,-4.4113,-4.3741,-4.4401,-4.4096,-4.342,-4.2658,-4.1999,-4.1508,-4.1407,-4.0798,-4.0257,-4.0257,-4.0155,-4.007,-4.007,-4.007,-4.0138,-4.0238,-4.0387,-4.0485,0.0,0.0,-4.0436,-4.0305,-4.0188,-4.0138,-4.007,-4.007,-4.007,-4.007,-4.007,-4.007,-4.007,-4.007,-4.007,-4.007,-4.007,-4.007,-4.007,-4.007,-4.007,-4.007,-4.007,-4.007,-4.007,-4.007,-4.0138,-4.029,-4.0933,-4.1339,-4.1644,-4.2912,-4.3487,-4.3656,-4.4316,-4.4587,-4.4587,-4.4587,-4.4587,-4.4587,-4.3628,-4.3687,-4.3763,-4.3898,-4.3998,-4.4155,-4.431,-4.4367,-4.4497,-4.4587,-4.4587,-4.4587,-4.4587,-4.4587,-4.4587,-4.4587,-4.4587,-4.4587,-4.4587,-4.4587,-4.4587,-4.4587,-4.4587,-4.4587,-4.4587,-4.4587,-4.4587,-4.4587,-4.4587,-4.4587,-4.4587,-4.4587,-4.4587,-4.4587,-4.4587,-4.4587,-4.4587,-4.4587,-4.4587,-4.4587,-4.4587,-4.4587,-4.4587,-4.4587,-4.4587,-4.4587,-4.4587,-4.4587,-4.4587,-4.4587,-4.4587,-4.4502,-4.4079,-4.3944,-4.3876,-4.347,-4.3386,-4.3403,-4.3369,-4.3081,-4.2642,-4.1897,-4.1457,-4.1102,-4.0696,-4.0324,-4.007,-4.007,-4.007,-4.007,-4.007,-4.007,-4.0121,-4.0305,-4.0337,0.0,0.0,-4.0387,-4.0337,-4.0188,-4.0138,-4.007,-4.007,-4.007,-4.007,-4.007,-4.007,-4.007,-4.007,-4.007,-4.007,-4.007,-4.007,-4.007,-4.007,-4.007,-4.007,-4.007,-4.007,-4.007,-4.007,-4.007,-4.007,-4.0104,-4.0443,-4.0832,-4.1255,-4.1931,-4.2692,-4.3453,-4.3809,-4.4215,-4.4587,-4.4587,-4.4587,-4.4587,-4.3628,-4.3628,-4.3763,-4.3881,-4.4056,-4.4212,-4.4367,-4.4497,-4.4587,-4.4587,-4.4587,-4.4587,-4.4587,-4.4587,-4.4587,-4.4587,-4.4587,-4.4587,-4.4587,-4.4587,-4.4587,-4.4587,-4.4587,-4.4587,-4.4587,-4.4587,-4.4587,-4.4587,-4.4587,-4.4587,-4.4587,-4.4587,-4.4587,-4.4587,-4.4587,-4.4587,-4.4587,-4.4587,-4.4587,-4.4587,-4.4587,-4.4587,-4.4587,-4.4587,-4.4587,-4.4587,-4.4587,-4.4468,-4.4316,-4.4316,-4.4198,-4.3944,-4.3335,-4.3149,-4.3047,-4.2472,-4.2591,-4.2777,-4.2202,-4.2033,-4.1863,-4.1119,-4.0933,-4.0798,-4.0206,-4.007,-4.007,-4.007,-4.007,-4.007,-4.007,-4.007,-4.0121,-4.0305,0.0,0.0,0.0,-4.0305,-4.0238,-4.0138,-4.007,-4.007,-4.007,-4.007,-4.007,-4.007,-4.007,-4.007,-4.007,-4.007,-4.007,-4.007,-4.007,-4.007,-4.007,-4.007,-4.007,-4.007,-4.007,-4.007,-4.007,-4.007,-4.007,-4.007,-4.007,-4.0409,-4.0967,-4.1136,-4.188,-4.2929,-4.3284,-4.3792,-4.4333,-4.4519,-4.4587,-4.4587,-4.3628,-4.3763,-4.3939,-4.4056,-4.4212,-4.4367,-4.457,-4.457,-4.4587,-4.4587,-4.4587,-4.4587,-4.4587,-4.4587,-4.4587,-4.4587,-4.4587,-4.4587,-4.4587,-4.4587,-4.4587,-4.4587,-4.4587,-4.4587,-4.4587,-4.4587,-4.4587,-4.4587,-4.4587,-4.4587,-4.4587,-4.4587,-4.4587,-4.4587,-4.4587,-4.4587,-4.4587,-4.4587,-4.4587,-4.4587,-4.4587,-4.4587,-4.4587,-4.4587,-4.4587,-4.4587,-4.4587,-4.4113,-4.3504,-4.3504,-4.3031,-4.2455,-4.2388,-4.2371,-4.2354,-4.2303,-4.1847,-4.1356,-4.1305,-4.1288,-4.1102,-4.0358,-4.0155,-4.0155,-4.0087,-4.007,-4.007,-4.007,-4.007,-4.007,-4.007,-4.007,-4.0121,-4.0305,0.0,0.0,-4.0305,-4.0305,-4.0238,-4.0138,-4.007,-4.007,-4.007,-4.007,-4.007,-4.007,-4.007,-4.007,-4.007,-4.007,-4.007,-4.007,-4.007,-4.007,-4.007,-4.007,-4.007,-4.007,-4.007,-4.007,-4.007,-4.007,-4.007,-4.007,-4.007,-4.0104,-4.0206,-4.0916,-4.1271,-4.1508,-4.2878,-4.3453,-4.3589,-4.4316,-4.4587,-4.4587,-4.3628,-4.3628,-4.3763,-4.3939,-4.4114,-4.4212,-4.4384,-4.4514,-4.4587,-4.4587,-4.4587,-4.4587,-4.4587,-4.4587,-4.4587,-4.4587,-4.4587,-4.4587,-4.4587,-4.4587,-4.4587,-4.4587,-4.4587,-4.4587,-4.4587,-4.4587,-4.4587,-4.4587,-4.4587,-4.4587,-4.4587,-4.4587,-4.4587,-4.4587,-4.4587,-4.4587,-4.4587,-4.4587,-4.4587,-4.4587,-4.4587,-4.4587,-4.4536,-4.4045,-4.3859,-4.3809,-4.3335,-4.298,-4.2726,-4.2726,-4.2523,-4.2219,-4.1762,-4.1627,-4.1525,-4.1052,-4.073,-4.051,-4.051,-4.051,-4.0443,-4.0155,-4.007,-4.007,-4.007,-4.007,-4.007,-4.007,-4.007,-4.007,-4.007,-4.007,-4.0121,-4.0305,0.0,-4.0188,-4.0305,-4.0238,-4.0188,-4.0138,-4.007,-4.007,-4.007,-4.007,-4.007,-4.007,-4.007,-4.007,-4.007,-4.007,-4.007,-4.007,-4.007,-4.007,-4.007,-4.007,-4.007,-4.007,-4.007,-4.007,-4.007,-4.007,-4.007,-4.007,-4.007,-4.007,-4.0104,-4.0392,-4.0781,-4.1271,-4.183,-4.2608,-4.3453,-4.3741,-4.4164,-4.4587,-4.3628,-4.3628,-4.3687,-4.3939,-4.4056,-4.4155,-4.4367,-4.4514,-4.4587,-4.4587,-4.4587,-4.4587,-4.4587,-4.4587,-4.4587,-4.4587,-4.4587,-4.4587,-4.4587,-4.4587,-4.4587,-4.4587,-4.4587,-4.4587,-4.4587,-4.4587,-4.4587,-4.4587,-4.4587,-4.4587,-4.4587,-4.4587,-4.4587,-4.4587,-4.4587,-4.4587,-4.4587,-4.4587,-4.4587,-4.4553,-4.4316,-4.4215,-4.413,-4.3352,-4.3064,-4.2997,-4.2472,-4.2151,-4.1948,-4.1948,-4.1796,-4.1508,-4.1001,-4.0849,-4.0747,-4.0223,-4.007,-4.007,-4.007,-4.007,-4.007,-4.007,-4.007,-4.007,-4.007,-4.007,-4.007,-4.007,-4.007,-4.007,-4.007,-4.007,-4.0121,-4.0238,-4.0188,-4.0121,-4.0238,-4.0188,-4.007,-4.007,-4.007,-4.007,-4.007,-4.007,-4.007,-4.007,-4.007,-4.007,-4.007,-4.007,-4.007,-4.007,-4.007,-4.007,-4.007,-4.007,-4.007,-4.007,-4.007,-4.007,-4.007,-4.007,-4.007,-4.007,-4.007,-4.007,-4.007,-4.007,-4.0392,-4.0882,-4.1119,-4.183,-4.2777,-4.325,-4.3758,-4.4248,-4.3628,-4.3628,-4.3687,-4.4039,-4.4097,-4.4212,-4.457,-4.4587,-4.4587,-4.4587,-4.4587,-4.4587,-4.4587,-4.4587,-4.4587,-4.4587,-4.4587,-4.4587,-4.4587,-4.4587,-4.4587,-4.4587,-4.4587,-4.4587,-4.4587,-4.4587,-4.4587,-4.4587,-4.4587,-4.4587,-4.4587,-4.4587,-4.4587,-4.4587,-4.4587,-4.4587,-4.4587,-4.457,-4.457,-4.4502,-4.3724,-4.3403,-4.3318,-4.2574,-4.2286,-4.2286,-4.2269,-4.1813,-4.1187,-4.1187,-4.0696,-4.007,-4.007,-4.007,-4.007,-4.007,-4.007,-4.007,-4.007,-4.007,-4.007,-4.007,-4.007,-4.007,-4.007,-4.007,-4.007,-4.007,-4.007,-4.007,-4.007,-4.007,-4.007,-4.007,-4.007,-4.007,-4.007,-4.007,-4.007,-4.007,-4.007,-4.007,-4.007,-4.007,-4.007,-4.007,-4.007,-4.007,-4.007,-4.007,-4.007,-4.007,-4.007,-4.007,-4.007,-4.007,-4.007,-4.007,-4.007,-4.007,-4.007,-4.007,-4.007,-4.007,-4.007,-4.007,-4.007,-4.007,-4.007,-4.0155,-4.0899,-4.1204,-4.139,-4.2861,-4.3403,-4.3521,-4.3628,-4.3628,-4.3687,-4.3939,-4.4056,-4.4155,-4.4367,-4.4514,-4.4587,-4.4587,-4.4587,-4.4587,-4.4587,-4.4587,-4.4587,-4.4587,-4.4587,-4.4587,-4.4587,-4.4587,-4.4587,-4.4587,-4.4587,-4.4587,-4.4587,-4.4587,-4.4587,-4.4587,-4.4587,-4.4587,-4.4587,-4.4587,-4.4587,-4.4587,-4.4587,-4.4587,-4.4536,-4.3995,-4.3775,-4.369,-4.2929,-4.2625,-4.254,-4.1813,-4.1525,-4.1457,-4.0933,-4.0595,-4.0409,-4.0409,-4.0257,-4.007,-4.007,-4.007,-4.007,-4.007,-4.007,-4.007,-4.007,-4.007,-4.007,-4.007,-4.007,-4.007,-4.007,-4.007,-4.007,-4.007,-4.007,-4.007,-4.007,-4.007,-4.007,-4.007,-4.007,-4.007,-4.007,-4.007,-4.007,-4.007,-4.007,-4.007,-4.007,-4.007,-4.007,-4.007,-4.007,-4.007,-4.007,-4.007,-4.007,-4.007,-4.007,-4.007,-4.007,-4.007,-4.007,-4.007,-4.007,-4.007,-4.007,-4.007,-4.007,-4.007,-4.007,-4.007,-4.007,-4.007,-4.007,-4.0104,-4.0324,-4.073,-4.1255,-4.1694,-4.2185,-4.2743,-4.3628,-4.3628,-4.3628,-4.3839,-4.3998,-4.4155,-4.431,-4.444,-4.4587,-4.4587,-4.4587,-4.4587,-4.4587,-4.4587,-4.4587,-4.4587,-4.4587,-4.4587,-4.4587,-4.4587,-4.4587,-4.4587,-4.4587,-4.4587,-4.4587,-4.4587,-4.4587,-4.4587,-4.4587,-4.4587,-4.4587,-4.4587,-4.4587,-4.457,-4.4265,-4.413,-4.4062,-4.3301,-4.2963,-4.2912,-4.2151,-4.1863,-4.1779,-4.1052,-4.0747,-4.0696,-4.024,-4.007,-4.007,-4.007,-4.007,-4.007,-4.007,-4.007,-4.007,-4.007,-4.007,-4.007,-4.007,-4.007,-4.007,-4.007,-4.007,-4.007,-4.007,-4.007,-4.007,-4.007,-4.007,-4.007,-4.007,-4.007,-4.007,-4.007,-4.007,-4.007,-4.007,-4.007,-4.007,-4.007,-4.007,-4.007,-4.007,-4.007,-4.007,-4.007,-4.007,-4.007,-4.007,-4.007,-4.007,-4.007,-4.007,-4.007,-4.007,-4.007,-4.007,-4.007,-4.007,-4.007,-4.007,-4.007,-4.007,-4.007,-4.007,-4.007,-4.007,-4.007,-4.007,-4.007,-4.007,-4.0358,-4.0798,-4.1085,-4.1474,-4.1965,-4.3628,-4.3628,-4.3628,-4.3839,-4.3998,-4.4155,-4.4253,-4.444,-4.4587,-4.4587,-4.4587,-4.4587,-4.4587,-4.4587,-4.4587,-4.4587,-4.4587,-4.4587,-4.4587,-4.4587,-4.4587,-4.4587,-4.4587,-4.4587,-4.4587,-4.4587,-4.4587,-4.4587,-4.4587,-4.4587,-4.4587,-4.4587,-4.4536,-4.4451,-4.3741,-4.3386,-4.3267,-4.2506,-4.2202,-4.2134,-4.1407,-4.1102,-4.1035,-4.0341,-4.007,-4.007,-4.007,-4.007,-4.007,-4.007,-4.007,-4.007,-4.007,-4.007,-4.007,-4.007,-4.007,-4.007,-4.007,-4.007,-4.007,-4.007,-4.007,-4.007,-4.007,-4.007,-4.007,-4.007,-4.007,-4.007,-4.007,-4.007,-4.007,-4.007,-4.007,-4.007,-4.007,-4.007,-4.007,-4.007,-4.007,-4.007,-4.007,-4.007,-4.007,-4.007,-4.007,-4.007,-4.007,-4.007,-4.007,-4.007,-4.007,-4.007,-4.007,-4.007,-4.007,-4.007,-4.007,-4.007,-4.007,-4.007,-4.007,-4.007,-4.007,-4.007,-4.007,-4.007,-4.007,-4.007,-4.007,-4.007,-4.0155,-4.0849,-4.1102,-4.1221,-4.3628,-4.3628,-4.3628,-4.3628,-4.3923,-4.4097,-4.4155,-4.44,-4.4587,-4.4587,-4.4587,-4.4587,-4.4587,-4.4587,-4.4587,-4.4587,-4.4587,-4.4587,-4.4587,-4.4587,-4.4587,-4.4587,-4.4587,-4.4587,-4.4587,-4.4587,-4.4587,-4.4587,-4.4587,-4.4587,-4.4587,-4.4587,-4.4248,-4.3656,-4.3504,-4.3098,-4.2489,-4.1745,-4.1441,-4.1373,-4.0629,-4.0324,-4.0307,-4.0138,-4.007,-4.007,-4.007,-4.007,-4.007,-4.007,-4.007,-4.007,-4.007,-4.007,-4.007,-4.007,-4.007,-4.007,-4.007,-4.007,-4.007,-4.007,-4.007,-4.007,-4.007,-4.007,-4.007,-4.007,-4.007,-4.007,-4.007,-4.007,-4.007,-4.007,-4.007,-4.007,-4.007,-4.007,-4.007,-4.007,-4.007,-4.007,-4.007,-4.007,-4.007,-4.007,-4.007,-4.007,-4.007,-4.007,-4.007,-4.007,-4.007,-4.007,-4.007,-4.007,-4.007,-4.007,-4.007,-4.007,-4.007,-4.007,-4.007,-4.007,-4.007,-4.007,-4.007,-4.007,-4.007,-4.007,-4.007,-4.007,-4.0104,-4.0257,-4.0324,-4.0426,-4.3628,-4.3628,-4.3628,-4.3628,-4.3864,-4.4097,-4.4097,-4.44,-4.4587,-4.4587,-4.4587,-4.4587,-4.4587,-4.4587,-4.4587,-4.4587,-4.4587,-4.4587,-4.4587,-4.4587,-4.4587,-4.4587,-4.4587,-4.4587,-4.4587,-4.4587,-4.4587,-4.4587,-4.4587,-4.4384,-4.4028,-4.4028,-4.3623,-4.2861,-4.2523,-4.2151,-4.1728,-4.0984,-4.0679,-4.0629,-4.024,-4.007,-4.007,-4.007,-4.007,-4.007,-4.007,-4.007,-4.007,-4.007,-4.007,-4.007,-4.007,-4.007,-4.007,-4.007,-4.007,-4.007,-4.007,-4.007,-4.007,-4.007,-4.007,-4.007,-4.007,-4.007,-4.007,-4.007,-4.007,-4.007,-4.007,-4.007,-4.007,-4.007,-4.007,-4.007,-4.007,-4.007,-4.007,-4.007,-4.007,-4.007,-4.007,-4.007,-4.007,-4.007,-4.007,-4.007,-4.007,-4.007,-4.007,-4.007,-4.007,-4.007,-4.007,-4.007,-4.007,-4.007,-4.007,-4.007,-4.007,-4.007,-4.007,-4.007,-4.007,-4.007,-4.007,-4.007,-4.007,-4.007,-4.007,-4.007,-4.007,-4.007,-4.007,-4.0138,-4.3628,-4.3628,-4.3628,-4.3628,-4.3864,-4.4056,-4.4056,-4.4344,-4.4514,-4.457,-4.457,-4.457,-4.4587,-4.4587,-4.4587,-4.4587,-4.4587,-4.4587,-4.4587,-4.4587,-4.4587,-4.4587,-4.4587,-4.4587,-4.4587,-4.4587,-4.4587,-4.4587,-4.4451,-4.4045,-4.342,-4.3284,-4.2828,-4.2083,-4.1474,-4.1136,-4.0967,-4.0341,-4.007,-4.007,-4.007,-4.007,-4.007,-4.007,-4.007,-4.007,-4.007,-4.007,-4.007,-4.007,-4.007,-4.007,-4.007,-4.007,-4.007,-4.007,-4.007,-4.007,-4.007,-4.007,-4.007,-4.007,-4.007,-4.007,-4.007,-4.007,-4.007,-4.007,-4.007,-4.007,-4.007,-4.007,-4.007,-4.007,-4.007,-4.007,-4.007,-4.007,-4.007,-4.007,-4.007,-4.007,-4.007,-4.007,-4.007,-4.007,-4.007,-4.007,-4.007,-4.007,-4.007,-4.007,-4.007,-4.007,-4.007,-4.007,-4.007,-4.007,-4.007,-4.007,-4.007,-4.007,-4.007,-4.007,-4.007,-4.007,-4.007,-4.007,-4.007,-4.007,-4.007,-4.007,-4.007,-4.007,-4.007,-4.007,-4.3628,-4.3628,-4.3628,-4.3628,-4.3763,-4.3956,-4.3956,-4.4056,-4.4212,-4.431,-4.4367,-4.444,-4.457,-4.4587,-4.4587,-4.4587,-4.4587,-4.4587,-4.4587,-4.4587,-4.4587,-4.4587,-4.4587,-4.4587,-4.4587,-4.4587,-4.4587,-4.4587,-4.391,-4.3521,-4.3403,-4.2743,-4.2066,-4.1339,-4.1238,-4.0849,-4.0223,-4.0121,-4.007,-4.007,-4.007,-4.007,-4.007,-4.007,-4.007,-4.007,-4.007,-4.007,-4.007,-4.007,-4.007,-4.007,-4.007,-4.007,-4.007,-4.007,-4.007,-4.007,-4.007,-4.007,-4.007,-4.007,-4.007,-4.007,-4.007,-4.007,-4.007,-4.007,-4.007,-4.007,-4.007,-4.007,-4.007,-4.007,-4.007,-4.007,-4.007,-4.007,-4.007,-4.007,-4.007,-4.007,-4.007,-4.007,-4.007,-4.007,-4.007,-4.007,-4.007,-4.007,-4.007,-4.007,-4.007,-4.007,-4.007,-4.007,-4.007,-4.007,-4.007,-4.007,-4.007,-4.007,-4.007,-4.007,-4.007,-4.007,-4.007,-4.007,-4.007,-4.007,-4.007,-4.007,-4.007,-4.007,-4.007,-4.007,-4.3628,-4.3628,-4.3628,-4.3628,-4.3763,-4.3898,-4.3898,-4.3998,-4.4097,-4.4212,-4.4196,-4.4212,-4.4344,-4.4384,-4.444,-4.444,-4.4514,-4.4587,-4.4587,-4.4587,-4.4587,-4.4587,-4.4587,-4.4367,-4.3944,-4.3927,-4.3724,-4.3301,-4.3386,-4.2997,-4.2168,-4.1847,-4.1288,-4.0578,-4.0578,-4.0392,-4.007,-4.007,-4.007,-4.007,-4.007,-4.007,-4.007,-4.007,-4.007,-4.007,-4.007,-4.007,-4.007,-4.007,-4.007,-4.007,-4.007,-4.007,-4.007,-4.007,-4.007,-4.007,-4.007,-4.007,-4.007,-4.007,-4.007,-4.007,-4.007,-4.007,-4.007,-4.007,-4.007,-4.007,-4.007,-4.007,-4.007,-4.007,-4.007,-4.007,-4.007,-4.007,-4.007,-4.007,-4.007,-4.007,-4.007,-4.007,-4.007,-4.007,-4.007,-4.007,-4.007,-4.007,-4.007,-4.007,-4.007,-4.007,-4.007,-4.007,-4.007,-4.007,-4.007,-4.007,-4.007,-4.007,-4.007,-4.007,-4.007,-4.007,-4.007,-4.007,-4.007,-4.007,-4.007,-4.007,-4.007,-4.007,-4.007,-4.007]}]]